<?xml version="1.0" encoding="UTF-8" standalone="no" ?>
<gpx xmlns="http://www.topografix.com/GPX/1/1" xmlns:xsi="http://www.w3.org/2001/XMLSchema-instance" xsi:schemaLocation="http://www.topografix.com/GPX/1/1 http://www.topografix.com/GPX/1/1/gpx.xsd" version="1.1" creator="VisuGPX - https://www.visugpx.com">
  <metadata>
    <name>Autours de Lyons 22 06 2014</name>
    <desc><![CDATA[Groupe musclés]]></desc>
  </metadata>
  <trk>
    <name><![CDATA[Actuel: 22 JUN 2014 09:21]]></name>
    <trkseg>
      <trkpt lat="49.39928" lon="1.47903">
        <ele>107.98</ele>
        <time>2014-06-22T07:21:03Z</time>
      </trkpt>
      <trkpt lat="49.39928" lon="1.47904">
        <ele>107.98</ele>
        <time>2014-06-22T07:21:04Z</time>
      </trkpt>
      <trkpt lat="49.39927" lon="1.47905">
        <ele>108.17</ele>
        <time>2014-06-22T07:21:13Z</time>
      </trkpt>
      <trkpt lat="49.39924" lon="1.47906">
        <ele>108.36</ele>
        <time>2014-06-22T07:21:29Z</time>
      </trkpt>
      <trkpt lat="49.39914" lon="1.47908">
        <ele>108.28</ele>
        <time>2014-06-22T07:21:34Z</time>
      </trkpt>
      <trkpt lat="49.39897" lon="1.47893">
        <ele>108.89</ele>
        <time>2014-06-22T07:21:42Z</time>
      </trkpt>
      <trkpt lat="49.39886" lon="1.47884">
        <ele>109.71</ele>
        <time>2014-06-22T07:21:48Z</time>
      </trkpt>
      <trkpt lat="49.39871" lon="1.47885">
        <ele>111.93</ele>
        <time>2014-06-22T07:21:55Z</time>
      </trkpt>
      <trkpt lat="49.39855" lon="1.47885">
        <ele>114.13</ele>
        <time>2014-06-22T07:22:03Z</time>
      </trkpt>
      <trkpt lat="49.39835" lon="1.47885">
        <ele>116.61</ele>
        <time>2014-06-22T07:22:12Z</time>
      </trkpt>
      <trkpt lat="49.39819" lon="1.47884">
        <ele>118.62</ele>
        <time>2014-06-22T07:22:20Z</time>
      </trkpt>
      <trkpt lat="49.39801" lon="1.47882">
        <ele>120.8</ele>
        <time>2014-06-22T07:22:29Z</time>
      </trkpt>
      <trkpt lat="49.39789" lon="1.47883">
        <ele>122.67</ele>
        <time>2014-06-22T07:22:36Z</time>
      </trkpt>
      <trkpt lat="49.39772" lon="1.47883">
        <ele>124.99</ele>
        <time>2014-06-22T07:22:45Z</time>
      </trkpt>
      <trkpt lat="49.39758" lon="1.47884">
        <ele>126.95</ele>
        <time>2014-06-22T07:22:52Z</time>
      </trkpt>
      <trkpt lat="49.3974" lon="1.47883">
        <ele>128.86</ele>
        <time>2014-06-22T07:23:02Z</time>
      </trkpt>
      <trkpt lat="49.39725" lon="1.4788">
        <ele>131.58</ele>
        <time>2014-06-22T07:23:11Z</time>
      </trkpt>
      <trkpt lat="49.39715" lon="1.47877">
        <ele>133.08</ele>
        <time>2014-06-22T07:23:18Z</time>
      </trkpt>
      <trkpt lat="49.39705" lon="1.4787">
        <ele>134.74</ele>
        <time>2014-06-22T07:23:25Z</time>
      </trkpt>
      <trkpt lat="49.39696" lon="1.47857">
        <ele>136.41</ele>
        <time>2014-06-22T07:23:33Z</time>
      </trkpt>
      <trkpt lat="49.39686" lon="1.47841">
        <ele>138.27</ele>
        <time>2014-06-22T07:23:43Z</time>
      </trkpt>
      <trkpt lat="49.39671" lon="1.4782">
        <ele>139.64</ele>
        <time>2014-06-22T07:23:53Z</time>
      </trkpt>
      <trkpt lat="49.39662" lon="1.47806">
        <ele>140.58</ele>
        <time>2014-06-22T07:24:01Z</time>
      </trkpt>
      <trkpt lat="49.39655" lon="1.47793">
        <ele>141.68</ele>
        <time>2014-06-22T07:24:08Z</time>
      </trkpt>
      <trkpt lat="49.39645" lon="1.47778">
        <ele>142.41</ele>
        <time>2014-06-22T07:24:17Z</time>
      </trkpt>
      <trkpt lat="49.39626" lon="1.4775">
        <ele>143.89</ele>
        <time>2014-06-22T07:24:26Z</time>
      </trkpt>
      <trkpt lat="49.39612" lon="1.47736">
        <ele>144.83</ele>
        <time>2014-06-22T07:24:34Z</time>
      </trkpt>
      <trkpt lat="49.39609" lon="1.47734">
        <ele>144.97</ele>
        <time>2014-06-22T07:24:35Z</time>
      </trkpt>
      <trkpt lat="49.39593" lon="1.47737">
        <ele>146.99</ele>
        <time>2014-06-22T07:24:43Z</time>
      </trkpt>
      <trkpt lat="49.39591" lon="1.47739">
        <ele>147.04</ele>
        <time>2014-06-22T07:24:44Z</time>
      </trkpt>
      <trkpt lat="49.3958" lon="1.47762">
        <ele>147.97</ele>
        <time>2014-06-22T07:24:52Z</time>
      </trkpt>
      <trkpt lat="49.39573" lon="1.47784">
        <ele>148.34</ele>
        <time>2014-06-22T07:24:58Z</time>
      </trkpt>
      <trkpt lat="49.39567" lon="1.47808">
        <ele>149.37</ele>
        <time>2014-06-22T07:25:05Z</time>
      </trkpt>
      <trkpt lat="49.39561" lon="1.47831">
        <ele>150.01</ele>
        <time>2014-06-22T07:25:12Z</time>
      </trkpt>
      <trkpt lat="49.39557" lon="1.47859">
        <ele>150.59</ele>
        <time>2014-06-22T07:25:19Z</time>
      </trkpt>
      <trkpt lat="49.39555" lon="1.47901">
        <ele>150.2</ele>
        <time>2014-06-22T07:25:26Z</time>
      </trkpt>
      <trkpt lat="49.39554" lon="1.47944">
        <ele>150.66</ele>
        <time>2014-06-22T07:25:32Z</time>
      </trkpt>
      <trkpt lat="49.3954" lon="1.48008">
        <ele>150.97</ele>
        <time>2014-06-22T07:25:40Z</time>
      </trkpt>
      <trkpt lat="49.39539" lon="1.48016">
        <ele>151.03</ele>
        <time>2014-06-22T07:25:41Z</time>
      </trkpt>
      <trkpt lat="49.39524" lon="1.48037">
        <ele>150.29</ele>
        <time>2014-06-22T07:25:45Z</time>
      </trkpt>
      <trkpt lat="49.39497" lon="1.48055">
        <ele>149.93</ele>
        <time>2014-06-22T07:25:51Z</time>
      </trkpt>
      <trkpt lat="49.3949" lon="1.48075">
        <ele>148.54</ele>
        <time>2014-06-22T07:25:54Z</time>
      </trkpt>
      <trkpt lat="49.3948" lon="1.48097">
        <ele>145.49</ele>
        <time>2014-06-22T07:26:00Z</time>
      </trkpt>
      <trkpt lat="49.39473" lon="1.48106">
        <ele>143.75</ele>
        <time>2014-06-22T07:26:03Z</time>
      </trkpt>
      <trkpt lat="49.39473" lon="1.48128">
        <ele>140</ele>
        <time>2014-06-22T07:26:07Z</time>
      </trkpt>
      <trkpt lat="49.39475" lon="1.48136">
        <ele>139.87</ele>
        <time>2014-06-22T07:26:08Z</time>
      </trkpt>
      <trkpt lat="49.39478" lon="1.48147">
        <ele>138.99</ele>
        <time>2014-06-22T07:26:10Z</time>
      </trkpt>
      <trkpt lat="49.39475" lon="1.48159">
        <ele>136.45</ele>
        <time>2014-06-22T07:26:13Z</time>
      </trkpt>
      <trkpt lat="49.3946" lon="1.4816">
        <ele>136.28</ele>
        <time>2014-06-22T07:26:17Z</time>
      </trkpt>
      <trkpt lat="49.39429" lon="1.48167">
        <ele>138.04</ele>
        <time>2014-06-22T07:26:25Z</time>
      </trkpt>
      <trkpt lat="49.394" lon="1.48174">
        <ele>140.21</ele>
        <time>2014-06-22T07:26:34Z</time>
      </trkpt>
      <trkpt lat="49.39376" lon="1.48184">
        <ele>141.84</ele>
        <time>2014-06-22T07:26:42Z</time>
      </trkpt>
      <trkpt lat="49.39351" lon="1.48191">
        <ele>143.58</ele>
        <time>2014-06-22T07:26:50Z</time>
      </trkpt>
      <trkpt lat="49.39323" lon="1.48201">
        <ele>145.39</ele>
        <time>2014-06-22T07:26:59Z</time>
      </trkpt>
      <trkpt lat="49.39295" lon="1.4821">
        <ele>147.4</ele>
        <time>2014-06-22T07:27:08Z</time>
      </trkpt>
      <trkpt lat="49.39292" lon="1.48211">
        <ele>147.69</ele>
        <time>2014-06-22T07:27:09Z</time>
      </trkpt>
      <trkpt lat="49.39281" lon="1.48232">
        <ele>148.54</ele>
        <time>2014-06-22T07:27:14Z</time>
      </trkpt>
      <trkpt lat="49.39288" lon="1.48248">
        <ele>150.25</ele>
        <time>2014-06-22T07:27:19Z</time>
      </trkpt>
      <trkpt lat="49.3929" lon="1.48251">
        <ele>150.63</ele>
        <time>2014-06-22T07:27:20Z</time>
      </trkpt>
      <trkpt lat="49.39307" lon="1.48281">
        <ele>153.51</ele>
        <time>2014-06-22T07:27:28Z</time>
      </trkpt>
      <trkpt lat="49.39312" lon="1.48291">
        <ele>153.75</ele>
        <time>2014-06-22T07:27:30Z</time>
      </trkpt>
      <trkpt lat="49.39324" lon="1.48312">
        <ele>153.91</ele>
        <time>2014-06-22T07:27:34Z</time>
      </trkpt>
      <trkpt lat="49.3933" lon="1.48324">
        <ele>154.34</ele>
        <time>2014-06-22T07:27:36Z</time>
      </trkpt>
      <trkpt lat="49.39339" lon="1.48342">
        <ele>154.89</ele>
        <time>2014-06-22T07:27:39Z</time>
      </trkpt>
      <trkpt lat="49.39356" lon="1.48384">
        <ele>155.5</ele>
        <time>2014-06-22T07:27:46Z</time>
      </trkpt>
      <trkpt lat="49.39366" lon="1.4842">
        <ele>156.39</ele>
        <time>2014-06-22T07:27:52Z</time>
      </trkpt>
      <trkpt lat="49.39375" lon="1.48455">
        <ele>157.46</ele>
        <time>2014-06-22T07:27:58Z</time>
      </trkpt>
      <trkpt lat="49.39383" lon="1.48488">
        <ele>156.35</ele>
        <time>2014-06-22T07:28:03Z</time>
      </trkpt>
      <trkpt lat="49.39384" lon="1.48495">
        <ele>156.23</ele>
        <time>2014-06-22T07:28:04Z</time>
      </trkpt>
      <trkpt lat="49.3939" lon="1.48545">
        <ele>157.16</ele>
        <time>2014-06-22T07:28:11Z</time>
      </trkpt>
      <trkpt lat="49.39392" lon="1.4856">
        <ele>157.12</ele>
        <time>2014-06-22T07:28:13Z</time>
      </trkpt>
      <trkpt lat="49.39399" lon="1.48596">
        <ele>157.3</ele>
        <time>2014-06-22T07:28:20Z</time>
      </trkpt>
      <trkpt lat="49.39401" lon="1.48627">
        <ele>157.02</ele>
        <time>2014-06-22T07:28:26Z</time>
      </trkpt>
      <trkpt lat="49.39405" lon="1.48668">
        <ele>157.8</ele>
        <time>2014-06-22T07:28:32Z</time>
      </trkpt>
      <trkpt lat="49.39408" lon="1.48687">
        <ele>157.52</ele>
        <time>2014-06-22T07:28:35Z</time>
      </trkpt>
      <trkpt lat="49.3941" lon="1.48701">
        <ele>156.76</ele>
        <time>2014-06-22T07:28:37Z</time>
      </trkpt>
      <trkpt lat="49.39412" lon="1.48758">
        <ele>156.31</ele>
        <time>2014-06-22T07:28:43Z</time>
      </trkpt>
      <trkpt lat="49.39414" lon="1.48776">
        <ele>155.91</ele>
        <time>2014-06-22T07:28:45Z</time>
      </trkpt>
      <trkpt lat="49.39413" lon="1.48804">
        <ele>154.26</ele>
        <time>2014-06-22T07:28:48Z</time>
      </trkpt>
      <trkpt lat="49.39413" lon="1.48839">
        <ele>153.55</ele>
        <time>2014-06-22T07:28:52Z</time>
      </trkpt>
      <trkpt lat="49.39411" lon="1.48878">
        <ele>149.57</ele>
        <time>2014-06-22T07:28:58Z</time>
      </trkpt>
      <trkpt lat="49.39414" lon="1.48894">
        <ele>147.69</ele>
        <time>2014-06-22T07:29:01Z</time>
      </trkpt>
      <trkpt lat="49.39419" lon="1.48902">
        <ele>144.09</ele>
        <time>2014-06-22T07:29:08Z</time>
      </trkpt>
      <trkpt lat="49.39412" lon="1.48919">
        <ele>142.52</ele>
        <time>2014-06-22T07:29:14Z</time>
      </trkpt>
      <trkpt lat="49.39409" lon="1.48924">
        <ele>145.04</ele>
        <time>2014-06-22T07:29:21Z</time>
      </trkpt>
      <trkpt lat="49.39404" lon="1.48928">
        <ele>146.82</ele>
        <time>2014-06-22T07:29:28Z</time>
      </trkpt>
      <trkpt lat="49.39402" lon="1.48933">
        <ele>147.98</ele>
        <time>2014-06-22T07:29:32Z</time>
      </trkpt>
      <trkpt lat="49.39403" lon="1.48937">
        <ele>148.68</ele>
        <time>2014-06-22T07:29:35Z</time>
      </trkpt>
      <trkpt lat="49.39412" lon="1.48956">
        <ele>150.65</ele>
        <time>2014-06-22T07:29:45Z</time>
      </trkpt>
      <trkpt lat="49.39412" lon="1.48963">
        <ele>151.48</ele>
        <time>2014-06-22T07:29:49Z</time>
      </trkpt>
      <trkpt lat="49.39413" lon="1.48975">
        <ele>152.43</ele>
        <time>2014-06-22T07:29:58Z</time>
      </trkpt>
      <trkpt lat="49.39414" lon="1.48978">
        <ele>152.53</ele>
        <time>2014-06-22T07:30:00Z</time>
      </trkpt>
      <trkpt lat="49.3942" lon="1.49003">
        <ele>153.62</ele>
        <time>2014-06-22T07:30:08Z</time>
      </trkpt>
      <trkpt lat="49.39434" lon="1.49032">
        <ele>154.52</ele>
        <time>2014-06-22T07:30:15Z</time>
      </trkpt>
      <trkpt lat="49.39444" lon="1.4905">
        <ele>154.79</ele>
        <time>2014-06-22T07:30:21Z</time>
      </trkpt>
      <trkpt lat="49.39457" lon="1.49063">
        <ele>155.42</ele>
        <time>2014-06-22T07:30:28Z</time>
      </trkpt>
      <trkpt lat="49.39467" lon="1.49073">
        <ele>155.91</ele>
        <time>2014-06-22T07:30:33Z</time>
      </trkpt>
      <trkpt lat="49.3949" lon="1.49067">
        <ele>155.89</ele>
        <time>2014-06-22T07:30:41Z</time>
      </trkpt>
      <trkpt lat="49.39517" lon="1.49048">
        <ele>155.48</ele>
        <time>2014-06-22T07:30:49Z</time>
      </trkpt>
      <trkpt lat="49.39537" lon="1.49035">
        <ele>155.41</ele>
        <time>2014-06-22T07:30:56Z</time>
      </trkpt>
      <trkpt lat="49.39563" lon="1.49016">
        <ele>154.86</ele>
        <time>2014-06-22T07:31:04Z</time>
      </trkpt>
      <trkpt lat="49.3959" lon="1.48999">
        <ele>154.79</ele>
        <time>2014-06-22T07:31:11Z</time>
      </trkpt>
      <trkpt lat="49.39601" lon="1.4899">
        <ele>154.48</ele>
        <time>2014-06-22T07:31:14Z</time>
      </trkpt>
      <trkpt lat="49.39638" lon="1.48972">
        <ele>153.45</ele>
        <time>2014-06-22T07:31:21Z</time>
      </trkpt>
      <trkpt lat="49.39665" lon="1.48952">
        <ele>152.55</ele>
        <time>2014-06-22T07:31:27Z</time>
      </trkpt>
      <trkpt lat="49.39685" lon="1.48948">
        <ele>151.7</ele>
        <time>2014-06-22T07:31:32Z</time>
      </trkpt>
      <trkpt lat="49.39716" lon="1.48957">
        <ele>152.38</ele>
        <time>2014-06-22T07:31:40Z</time>
      </trkpt>
      <trkpt lat="49.39744" lon="1.48962">
        <ele>153.47</ele>
        <time>2014-06-22T07:31:47Z</time>
      </trkpt>
      <trkpt lat="49.39779" lon="1.48974">
        <ele>153.18</ele>
        <time>2014-06-22T07:31:55Z</time>
      </trkpt>
      <trkpt lat="49.39794" lon="1.48978">
        <ele>153.68</ele>
        <time>2014-06-22T07:31:59Z</time>
      </trkpt>
      <trkpt lat="49.39824" lon="1.48989">
        <ele>153.18</ele>
        <time>2014-06-22T07:32:07Z</time>
      </trkpt>
      <trkpt lat="49.39833" lon="1.48992">
        <ele>153.23</ele>
        <time>2014-06-22T07:32:09Z</time>
      </trkpt>
      <trkpt lat="49.39865" lon="1.48991">
        <ele>152.74</ele>
        <time>2014-06-22T07:32:16Z</time>
      </trkpt>
      <trkpt lat="49.39883" lon="1.4901">
        <ele>152.3</ele>
        <time>2014-06-22T07:32:21Z</time>
      </trkpt>
      <trkpt lat="49.39884" lon="1.49019">
        <ele>151.98</ele>
        <time>2014-06-22T07:32:25Z</time>
      </trkpt>
      <trkpt lat="49.39884" lon="1.49017">
        <ele>151.88</ele>
        <time>2014-06-22T07:32:26Z</time>
      </trkpt>
      <trkpt lat="49.39883" lon="1.48995">
        <ele>152.25</ele>
        <time>2014-06-22T07:32:32Z</time>
      </trkpt>
      <trkpt lat="49.39882" lon="1.48989">
        <ele>152.32</ele>
        <time>2014-06-22T07:32:37Z</time>
      </trkpt>
      <trkpt lat="49.39882" lon="1.4899">
        <ele>152.32</ele>
        <time>2014-06-22T07:32:54Z</time>
      </trkpt>
      <trkpt lat="49.39883" lon="1.48984">
        <ele>152.29</ele>
        <time>2014-06-22T07:32:57Z</time>
      </trkpt>
      <trkpt lat="49.39899" lon="1.48973">
        <ele>151.91</ele>
        <time>2014-06-22T07:33:03Z</time>
      </trkpt>
      <trkpt lat="49.39927" lon="1.48977">
        <ele>151.6</ele>
        <time>2014-06-22T07:33:10Z</time>
      </trkpt>
      <trkpt lat="49.39968" lon="1.48982">
        <ele>150.25</ele>
        <time>2014-06-22T07:33:19Z</time>
      </trkpt>
      <trkpt lat="49.39978" lon="1.48982">
        <ele>149.94</ele>
        <time>2014-06-22T07:33:21Z</time>
      </trkpt>
      <trkpt lat="49.39995" lon="1.48982">
        <ele>149.34</ele>
        <time>2014-06-22T07:33:25Z</time>
      </trkpt>
      <trkpt lat="49.39997" lon="1.49006">
        <ele>148.31</ele>
        <time>2014-06-22T07:33:31Z</time>
      </trkpt>
      <trkpt lat="49.39996" lon="1.49016">
        <ele>148.58</ele>
        <time>2014-06-22T07:33:33Z</time>
      </trkpt>
      <trkpt lat="49.40001" lon="1.49028">
        <ele>148.3</ele>
        <time>2014-06-22T07:33:37Z</time>
      </trkpt>
      <trkpt lat="49.40008" lon="1.49047">
        <ele>147.74</ele>
        <time>2014-06-22T07:33:44Z</time>
      </trkpt>
      <trkpt lat="49.40013" lon="1.49075">
        <ele>147.37</ele>
        <time>2014-06-22T07:33:52Z</time>
      </trkpt>
      <trkpt lat="49.40018" lon="1.4911">
        <ele>146.17</ele>
        <time>2014-06-22T07:33:58Z</time>
      </trkpt>
      <trkpt lat="49.40024" lon="1.49145">
        <ele>145.18</ele>
        <time>2014-06-22T07:34:04Z</time>
      </trkpt>
      <trkpt lat="49.40029" lon="1.49184">
        <ele>144.42</ele>
        <time>2014-06-22T07:34:11Z</time>
      </trkpt>
      <trkpt lat="49.40037" lon="1.4922">
        <ele>143.26</ele>
        <time>2014-06-22T07:34:18Z</time>
      </trkpt>
      <trkpt lat="49.40041" lon="1.49246">
        <ele>142.28</ele>
        <time>2014-06-22T07:34:24Z</time>
      </trkpt>
      <trkpt lat="49.40044" lon="1.49278">
        <ele>141.49</ele>
        <time>2014-06-22T07:34:29Z</time>
      </trkpt>
      <trkpt lat="49.40043" lon="1.49328">
        <ele>139.86</ele>
        <time>2014-06-22T07:34:36Z</time>
      </trkpt>
      <trkpt lat="49.40042" lon="1.49355">
        <ele>139.27</ele>
        <time>2014-06-22T07:34:40Z</time>
      </trkpt>
      <trkpt lat="49.40034" lon="1.49391">
        <ele>137.12</ele>
        <time>2014-06-22T07:34:44Z</time>
      </trkpt>
      <trkpt lat="49.40035" lon="1.49432">
        <ele>136.77</ele>
        <time>2014-06-22T07:34:50Z</time>
      </trkpt>
      <trkpt lat="49.40043" lon="1.49441">
        <ele>136.37</ele>
        <time>2014-06-22T07:34:54Z</time>
      </trkpt>
      <trkpt lat="49.40046" lon="1.4944">
        <ele>136.36</ele>
        <time>2014-06-22T07:34:55Z</time>
      </trkpt>
      <trkpt lat="49.40063" lon="1.49442">
        <ele>132.72</ele>
        <time>2014-06-22T07:35:01Z</time>
      </trkpt>
      <trkpt lat="49.40076" lon="1.49449">
        <ele>131.73</ele>
        <time>2014-06-22T07:35:04Z</time>
      </trkpt>
      <trkpt lat="49.40098" lon="1.49459">
        <ele>132.09</ele>
        <time>2014-06-22T07:35:10Z</time>
      </trkpt>
      <trkpt lat="49.40109" lon="1.49471">
        <ele>131.95</ele>
        <time>2014-06-22T07:35:14Z</time>
      </trkpt>
      <trkpt lat="49.40118" lon="1.49504">
        <ele>133.66</ele>
        <time>2014-06-22T07:35:22Z</time>
      </trkpt>
      <trkpt lat="49.40128" lon="1.49531">
        <ele>135.3</ele>
        <time>2014-06-22T07:35:28Z</time>
      </trkpt>
      <trkpt lat="49.40131" lon="1.49564">
        <ele>136.64</ele>
        <time>2014-06-22T07:35:35Z</time>
      </trkpt>
      <trkpt lat="49.40132" lon="1.49593">
        <ele>137.3</ele>
        <time>2014-06-22T07:35:41Z</time>
      </trkpt>
      <trkpt lat="49.40126" lon="1.4962">
        <ele>139.22</ele>
        <time>2014-06-22T07:35:48Z</time>
      </trkpt>
      <trkpt lat="49.40128" lon="1.49646">
        <ele>140.03</ele>
        <time>2014-06-22T07:35:54Z</time>
      </trkpt>
      <trkpt lat="49.40112" lon="1.49659">
        <ele>141.25</ele>
        <time>2014-06-22T07:36:01Z</time>
      </trkpt>
      <trkpt lat="49.40109" lon="1.49662">
        <ele>141.51</ele>
        <time>2014-06-22T07:36:02Z</time>
      </trkpt>
      <trkpt lat="49.40091" lon="1.49691">
        <ele>142.36</ele>
        <time>2014-06-22T07:36:10Z</time>
      </trkpt>
      <trkpt lat="49.40074" lon="1.49724">
        <ele>141.8</ele>
        <time>2014-06-22T07:36:17Z</time>
      </trkpt>
      <trkpt lat="49.40055" lon="1.4976">
        <ele>141.79</ele>
        <time>2014-06-22T07:36:25Z</time>
      </trkpt>
      <trkpt lat="49.4005" lon="1.49772">
        <ele>141.03</ele>
        <time>2014-06-22T07:36:27Z</time>
      </trkpt>
      <trkpt lat="49.40043" lon="1.49792">
        <ele>140.71</ele>
        <time>2014-06-22T07:36:30Z</time>
      </trkpt>
      <trkpt lat="49.40031" lon="1.49829">
        <ele>139.91</ele>
        <time>2014-06-22T07:36:37Z</time>
      </trkpt>
      <trkpt lat="49.40021" lon="1.49862">
        <ele>141.56</ele>
        <time>2014-06-22T07:36:44Z</time>
      </trkpt>
      <trkpt lat="49.4001" lon="1.49889">
        <ele>141.21</ele>
        <time>2014-06-22T07:36:50Z</time>
      </trkpt>
      <trkpt lat="49.39995" lon="1.49921">
        <ele>143.54</ele>
        <time>2014-06-22T07:36:57Z</time>
      </trkpt>
      <trkpt lat="49.39985" lon="1.49937">
        <ele>143.72</ele>
        <time>2014-06-22T07:37:02Z</time>
      </trkpt>
      <trkpt lat="49.3999" lon="1.49954">
        <ele>142.06</ele>
        <time>2014-06-22T07:37:07Z</time>
      </trkpt>
      <trkpt lat="49.40001" lon="1.49962">
        <ele>140.01</ele>
        <time>2014-06-22T07:37:10Z</time>
      </trkpt>
      <trkpt lat="49.40035" lon="1.49991">
        <ele>134.95</ele>
        <time>2014-06-22T07:37:16Z</time>
      </trkpt>
      <trkpt lat="49.40039" lon="1.49994">
        <ele>134.32</ele>
        <time>2014-06-22T07:37:17Z</time>
      </trkpt>
      <trkpt lat="49.40069" lon="1.50016">
        <ele>129.76</ele>
        <time>2014-06-22T07:37:22Z</time>
      </trkpt>
      <trkpt lat="49.40095" lon="1.50047">
        <ele>123.67</ele>
        <time>2014-06-22T07:37:27Z</time>
      </trkpt>
      <trkpt lat="49.40101" lon="1.50053">
        <ele>122.56</ele>
        <time>2014-06-22T07:37:28Z</time>
      </trkpt>
      <trkpt lat="49.40111" lon="1.50067">
        <ele>121.88</ele>
        <time>2014-06-22T07:37:30Z</time>
      </trkpt>
      <trkpt lat="49.40124" lon="1.50062">
        <ele>121.83</ele>
        <time>2014-06-22T07:37:34Z</time>
      </trkpt>
      <trkpt lat="49.40126" lon="1.50048">
        <ele>122.31</ele>
        <time>2014-06-22T07:37:36Z</time>
      </trkpt>
      <trkpt lat="49.40133" lon="1.50016">
        <ele>122.49</ele>
        <time>2014-06-22T07:37:41Z</time>
      </trkpt>
      <trkpt lat="49.40159" lon="1.49953">
        <ele>120.57</ele>
        <time>2014-06-22T07:37:50Z</time>
      </trkpt>
      <trkpt lat="49.40198" lon="1.49908">
        <ele>118.43</ele>
        <time>2014-06-22T07:37:58Z</time>
      </trkpt>
      <trkpt lat="49.40238" lon="1.49861">
        <ele>116.66</ele>
        <time>2014-06-22T07:38:06Z</time>
      </trkpt>
      <trkpt lat="49.40271" lon="1.49814">
        <ele>116.11</ele>
        <time>2014-06-22T07:38:14Z</time>
      </trkpt>
      <trkpt lat="49.40279" lon="1.49802">
        <ele>115.64</ele>
        <time>2014-06-22T07:38:16Z</time>
      </trkpt>
      <trkpt lat="49.40303" lon="1.49766">
        <ele>114.34</ele>
        <time>2014-06-22T07:38:23Z</time>
      </trkpt>
      <trkpt lat="49.40312" lon="1.4975">
        <ele>114.18</ele>
        <time>2014-06-22T07:38:26Z</time>
      </trkpt>
      <trkpt lat="49.40333" lon="1.49695">
        <ele>112.87</ele>
        <time>2014-06-22T07:38:33Z</time>
      </trkpt>
      <trkpt lat="49.40337" lon="1.49678">
        <ele>112.81</ele>
        <time>2014-06-22T07:38:35Z</time>
      </trkpt>
      <trkpt lat="49.40344" lon="1.49641">
        <ele>111.58</ele>
        <time>2014-06-22T07:38:40Z</time>
      </trkpt>
      <trkpt lat="49.40348" lon="1.49612">
        <ele>111.32</ele>
        <time>2014-06-22T07:38:44Z</time>
      </trkpt>
      <trkpt lat="49.40349" lon="1.49591">
        <ele>111.76</ele>
        <time>2014-06-22T07:38:47Z</time>
      </trkpt>
      <trkpt lat="49.40339" lon="1.49549">
        <ele>111.31</ele>
        <time>2014-06-22T07:38:53Z</time>
      </trkpt>
      <trkpt lat="49.40325" lon="1.49513">
        <ele>110.93</ele>
        <time>2014-06-22T07:38:59Z</time>
      </trkpt>
      <trkpt lat="49.40287" lon="1.49443">
        <ele>108.5</ele>
        <time>2014-06-22T07:39:08Z</time>
      </trkpt>
      <trkpt lat="49.40274" lon="1.49415">
        <ele>106.86</ele>
        <time>2014-06-22T07:39:12Z</time>
      </trkpt>
      <trkpt lat="49.40271" lon="1.49409">
        <ele>107.4</ele>
        <time>2014-06-22T07:39:13Z</time>
      </trkpt>
      <trkpt lat="49.4027" lon="1.49372">
        <ele>107.25</ele>
        <time>2014-06-22T07:39:18Z</time>
      </trkpt>
      <trkpt lat="49.40284" lon="1.4934">
        <ele>107.29</ele>
        <time>2014-06-22T07:39:23Z</time>
      </trkpt>
      <trkpt lat="49.40295" lon="1.49327">
        <ele>106.79</ele>
        <time>2014-06-22T07:39:26Z</time>
      </trkpt>
      <trkpt lat="49.40328" lon="1.493">
        <ele>106.9</ele>
        <time>2014-06-22T07:39:34Z</time>
      </trkpt>
      <trkpt lat="49.40357" lon="1.49278">
        <ele>106.42</ele>
        <time>2014-06-22T07:39:40Z</time>
      </trkpt>
      <trkpt lat="49.40368" lon="1.49268">
        <ele>105.71</ele>
        <time>2014-06-22T07:39:42Z</time>
      </trkpt>
      <trkpt lat="49.40393" lon="1.49243">
        <ele>104.74</ele>
        <time>2014-06-22T07:39:48Z</time>
      </trkpt>
      <trkpt lat="49.40423" lon="1.49203">
        <ele>103.92</ele>
        <time>2014-06-22T07:39:55Z</time>
      </trkpt>
      <trkpt lat="49.40458" lon="1.49141">
        <ele>101.28</ele>
        <time>2014-06-22T07:40:02Z</time>
      </trkpt>
      <trkpt lat="49.40461" lon="1.49132">
        <ele>101.1</ele>
        <time>2014-06-22T07:40:03Z</time>
      </trkpt>
      <trkpt lat="49.40474" lon="1.49077">
        <ele>100.64</ele>
        <time>2014-06-22T07:40:09Z</time>
      </trkpt>
      <trkpt lat="49.40481" lon="1.4904">
        <ele>100.66</ele>
        <time>2014-06-22T07:40:13Z</time>
      </trkpt>
      <trkpt lat="49.40491" lon="1.48965">
        <ele>99.29</ele>
        <time>2014-06-22T07:40:21Z</time>
      </trkpt>
      <trkpt lat="49.40493" lon="1.48955">
        <ele>98.81</ele>
        <time>2014-06-22T07:40:22Z</time>
      </trkpt>
      <trkpt lat="49.40496" lon="1.48914">
        <ele>97.25</ele>
        <time>2014-06-22T07:40:26Z</time>
      </trkpt>
      <trkpt lat="49.40507" lon="1.48869">
        <ele>93.02</ele>
        <time>2014-06-22T07:40:30Z</time>
      </trkpt>
      <trkpt lat="49.40516" lon="1.48847">
        <ele>92.13</ele>
        <time>2014-06-22T07:40:32Z</time>
      </trkpt>
      <trkpt lat="49.40531" lon="1.488">
        <ele>91.38</ele>
        <time>2014-06-22T07:40:36Z</time>
      </trkpt>
      <trkpt lat="49.40555" lon="1.48731">
        <ele>90.09</ele>
        <time>2014-06-22T07:40:43Z</time>
      </trkpt>
      <trkpt lat="49.40572" lon="1.48667">
        <ele>90.05</ele>
        <time>2014-06-22T07:40:51Z</time>
      </trkpt>
      <trkpt lat="49.4058" lon="1.48623">
        <ele>90.11</ele>
        <time>2014-06-22T07:40:58Z</time>
      </trkpt>
      <trkpt lat="49.4059" lon="1.48585">
        <ele>91.54</ele>
        <time>2014-06-22T07:41:06Z</time>
      </trkpt>
      <trkpt lat="49.40599" lon="1.48555">
        <ele>93.05</ele>
        <time>2014-06-22T07:41:13Z</time>
      </trkpt>
      <trkpt lat="49.40593" lon="1.48533">
        <ele>93.61</ele>
        <time>2014-06-22T07:41:19Z</time>
      </trkpt>
      <trkpt lat="49.40578" lon="1.48504">
        <ele>93.45</ele>
        <time>2014-06-22T07:41:26Z</time>
      </trkpt>
      <trkpt lat="49.40555" lon="1.48467">
        <ele>93.81</ele>
        <time>2014-06-22T07:41:33Z</time>
      </trkpt>
      <trkpt lat="49.40516" lon="1.48394">
        <ele>93.28</ele>
        <time>2014-06-22T07:41:43Z</time>
      </trkpt>
      <trkpt lat="49.40492" lon="1.48344">
        <ele>94.19</ele>
        <time>2014-06-22T07:41:50Z</time>
      </trkpt>
      <trkpt lat="49.40495" lon="1.48321">
        <ele>95.33</ele>
        <time>2014-06-22T07:41:55Z</time>
      </trkpt>
      <trkpt lat="49.405" lon="1.48319">
        <ele>95.88</ele>
        <time>2014-06-22T07:41:57Z</time>
      </trkpt>
      <trkpt lat="49.40539" lon="1.48315">
        <ele>97.49</ele>
        <time>2014-06-22T07:42:06Z</time>
      </trkpt>
      <trkpt lat="49.40577" lon="1.48307">
        <ele>99.63</ele>
        <time>2014-06-22T07:42:15Z</time>
      </trkpt>
      <trkpt lat="49.40615" lon="1.48298">
        <ele>101.63</ele>
        <time>2014-06-22T07:42:24Z</time>
      </trkpt>
      <trkpt lat="49.40661" lon="1.48286">
        <ele>104.22</ele>
        <time>2014-06-22T07:42:34Z</time>
      </trkpt>
      <trkpt lat="49.40694" lon="1.48266">
        <ele>106.28</ele>
        <time>2014-06-22T07:42:42Z</time>
      </trkpt>
      <trkpt lat="49.40714" lon="1.48251">
        <ele>107.4</ele>
        <time>2014-06-22T07:42:48Z</time>
      </trkpt>
      <trkpt lat="49.40734" lon="1.48227">
        <ele>109.87</ele>
        <time>2014-06-22T07:42:57Z</time>
      </trkpt>
      <trkpt lat="49.40748" lon="1.48215">
        <ele>112.07</ele>
        <time>2014-06-22T07:43:04Z</time>
      </trkpt>
      <trkpt lat="49.40764" lon="1.482">
        <ele>114.26</ele>
        <time>2014-06-22T07:43:12Z</time>
      </trkpt>
      <trkpt lat="49.40771" lon="1.48194">
        <ele>115.27</ele>
        <time>2014-06-22T07:43:15Z</time>
      </trkpt>
      <trkpt lat="49.40784" lon="1.48176">
        <ele>116.61</ele>
        <time>2014-06-22T07:43:22Z</time>
      </trkpt>
      <trkpt lat="49.40796" lon="1.48154">
        <ele>117.93</ele>
        <time>2014-06-22T07:43:29Z</time>
      </trkpt>
      <trkpt lat="49.40807" lon="1.48136">
        <ele>119.26</ele>
        <time>2014-06-22T07:43:35Z</time>
      </trkpt>
      <trkpt lat="49.40818" lon="1.48122">
        <ele>120.43</ele>
        <time>2014-06-22T07:43:41Z</time>
      </trkpt>
      <trkpt lat="49.40829" lon="1.48102">
        <ele>122.33</ele>
        <time>2014-06-22T07:43:48Z</time>
      </trkpt>
      <trkpt lat="49.40842" lon="1.48079">
        <ele>124.67</ele>
        <time>2014-06-22T07:43:56Z</time>
      </trkpt>
      <trkpt lat="49.40851" lon="1.48062">
        <ele>126.51</ele>
        <time>2014-06-22T07:44:03Z</time>
      </trkpt>
      <trkpt lat="49.40855" lon="1.48053">
        <ele>127.85</ele>
        <time>2014-06-22T07:44:06Z</time>
      </trkpt>
      <trkpt lat="49.40869" lon="1.48026">
        <ele>130.36</ele>
        <time>2014-06-22T07:44:15Z</time>
      </trkpt>
      <trkpt lat="49.4088" lon="1.48006">
        <ele>132.31</ele>
        <time>2014-06-22T07:44:23Z</time>
      </trkpt>
      <trkpt lat="49.40896" lon="1.47983">
        <ele>134.01</ele>
        <time>2014-06-22T07:44:30Z</time>
      </trkpt>
      <trkpt lat="49.40908" lon="1.47965">
        <ele>135.5</ele>
        <time>2014-06-22T07:44:37Z</time>
      </trkpt>
      <trkpt lat="49.40924" lon="1.47948">
        <ele>136.99</ele>
        <time>2014-06-22T07:44:46Z</time>
      </trkpt>
      <trkpt lat="49.40941" lon="1.47934">
        <ele>137.95</ele>
        <time>2014-06-22T07:44:53Z</time>
      </trkpt>
      <trkpt lat="49.4096" lon="1.4793">
        <ele>138.97</ele>
        <time>2014-06-22T07:45:01Z</time>
      </trkpt>
      <trkpt lat="49.40991" lon="1.47929">
        <ele>140.73</ele>
        <time>2014-06-22T07:45:09Z</time>
      </trkpt>
      <trkpt lat="49.41015" lon="1.47931">
        <ele>141.89</ele>
        <time>2014-06-22T07:45:16Z</time>
      </trkpt>
      <trkpt lat="49.41032" lon="1.47916">
        <ele>142.13</ele>
        <time>2014-06-22T07:45:23Z</time>
      </trkpt>
      <trkpt lat="49.41052" lon="1.4789">
        <ele>141.43</ele>
        <time>2014-06-22T07:45:30Z</time>
      </trkpt>
      <trkpt lat="49.41055" lon="1.47887">
        <ele>141.26</ele>
        <time>2014-06-22T07:45:31Z</time>
      </trkpt>
      <trkpt lat="49.41078" lon="1.47859">
        <ele>138.08</ele>
        <time>2014-06-22T07:45:36Z</time>
      </trkpt>
      <trkpt lat="49.41094" lon="1.47846">
        <ele>136.78</ele>
        <time>2014-06-22T07:45:39Z</time>
      </trkpt>
      <trkpt lat="49.41107" lon="1.47845">
        <ele>136.86</ele>
        <time>2014-06-22T07:45:41Z</time>
      </trkpt>
      <trkpt lat="49.41158" lon="1.47848">
        <ele>139.42</ele>
        <time>2014-06-22T07:45:50Z</time>
      </trkpt>
      <trkpt lat="49.41195" lon="1.47846">
        <ele>141.42</ele>
        <time>2014-06-22T07:45:58Z</time>
      </trkpt>
      <trkpt lat="49.4122" lon="1.47843">
        <ele>142.81</ele>
        <time>2014-06-22T07:46:03Z</time>
      </trkpt>
      <trkpt lat="49.41248" lon="1.47828">
        <ele>143.98</ele>
        <time>2014-06-22T07:46:09Z</time>
      </trkpt>
      <trkpt lat="49.41275" lon="1.47805">
        <ele>144.1</ele>
        <time>2014-06-22T07:46:15Z</time>
      </trkpt>
      <trkpt lat="49.41285" lon="1.47795">
        <ele>143.25</ele>
        <time>2014-06-22T07:46:18Z</time>
      </trkpt>
      <trkpt lat="49.41299" lon="1.47775">
        <ele>142.67</ele>
        <time>2014-06-22T07:46:23Z</time>
      </trkpt>
      <trkpt lat="49.41311" lon="1.47762">
        <ele>143.09</ele>
        <time>2014-06-22T07:46:26Z</time>
      </trkpt>
      <trkpt lat="49.4134" lon="1.47746">
        <ele>144.13</ele>
        <time>2014-06-22T07:46:34Z</time>
      </trkpt>
      <trkpt lat="49.41366" lon="1.47733">
        <ele>145.75</ele>
        <time>2014-06-22T07:46:40Z</time>
      </trkpt>
      <trkpt lat="49.41391" lon="1.47705">
        <ele>146.16</ele>
        <time>2014-06-22T07:46:47Z</time>
      </trkpt>
      <trkpt lat="49.41414" lon="1.47678">
        <ele>146.59</ele>
        <time>2014-06-22T07:46:54Z</time>
      </trkpt>
      <trkpt lat="49.41438" lon="1.47652">
        <ele>145.97</ele>
        <time>2014-06-22T07:47:01Z</time>
      </trkpt>
      <trkpt lat="49.41469" lon="1.47626">
        <ele>145.65</ele>
        <time>2014-06-22T07:47:09Z</time>
      </trkpt>
      <trkpt lat="49.41502" lon="1.4761">
        <ele>145.8</ele>
        <time>2014-06-22T07:47:16Z</time>
      </trkpt>
      <trkpt lat="49.41528" lon="1.47594">
        <ele>145.74</ele>
        <time>2014-06-22T07:47:24Z</time>
      </trkpt>
      <trkpt lat="49.41549" lon="1.4758">
        <ele>144.49</ele>
        <time>2014-06-22T07:47:29Z</time>
      </trkpt>
      <trkpt lat="49.41564" lon="1.47564">
        <ele>143.95</ele>
        <time>2014-06-22T07:47:32Z</time>
      </trkpt>
      <trkpt lat="49.41586" lon="1.47548">
        <ele>143.11</ele>
        <time>2014-06-22T07:47:37Z</time>
      </trkpt>
      <trkpt lat="49.41626" lon="1.47527">
        <ele>142.06</ele>
        <time>2014-06-22T07:47:47Z</time>
      </trkpt>
      <trkpt lat="49.41634" lon="1.47522">
        <ele>141.5</ele>
        <time>2014-06-22T07:47:49Z</time>
      </trkpt>
      <trkpt lat="49.41652" lon="1.47504">
        <ele>140.59</ele>
        <time>2014-06-22T07:47:53Z</time>
      </trkpt>
      <trkpt lat="49.41664" lon="1.47498">
        <ele>138.92</ele>
        <time>2014-06-22T07:47:56Z</time>
      </trkpt>
      <trkpt lat="49.41686" lon="1.47491">
        <ele>138.66</ele>
        <time>2014-06-22T07:48:00Z</time>
      </trkpt>
      <trkpt lat="49.41702" lon="1.4748">
        <ele>140.86</ele>
        <time>2014-06-22T07:48:06Z</time>
      </trkpt>
      <trkpt lat="49.41738" lon="1.47475">
        <ele>142.72</ele>
        <time>2014-06-22T07:48:12Z</time>
      </trkpt>
      <trkpt lat="49.4176" lon="1.47476">
        <ele>145.76</ele>
        <time>2014-06-22T07:48:20Z</time>
      </trkpt>
      <trkpt lat="49.41777" lon="1.47476">
        <ele>147.33</ele>
        <time>2014-06-22T07:48:26Z</time>
      </trkpt>
      <trkpt lat="49.41797" lon="1.4747">
        <ele>149.21</ele>
        <time>2014-06-22T07:48:34Z</time>
      </trkpt>
      <trkpt lat="49.4182" lon="1.47462">
        <ele>150.83</ele>
        <time>2014-06-22T07:48:41Z</time>
      </trkpt>
      <trkpt lat="49.41849" lon="1.47459">
        <ele>151.73</ele>
        <time>2014-06-22T07:48:49Z</time>
      </trkpt>
      <trkpt lat="49.41873" lon="1.47445">
        <ele>151.82</ele>
        <time>2014-06-22T07:48:55Z</time>
      </trkpt>
      <trkpt lat="49.41909" lon="1.47429">
        <ele>151.79</ele>
        <time>2014-06-22T07:49:02Z</time>
      </trkpt>
      <trkpt lat="49.41918" lon="1.47424">
        <ele>151.41</ele>
        <time>2014-06-22T07:49:04Z</time>
      </trkpt>
      <trkpt lat="49.41952" lon="1.47403">
        <ele>149.69</ele>
        <time>2014-06-22T07:49:10Z</time>
      </trkpt>
      <trkpt lat="49.41979" lon="1.47382">
        <ele>150.17</ele>
        <time>2014-06-22T07:49:15Z</time>
      </trkpt>
      <trkpt lat="49.42" lon="1.47366">
        <ele>152.16</ele>
        <time>2014-06-22T07:49:21Z</time>
      </trkpt>
      <trkpt lat="49.4202" lon="1.47352">
        <ele>152.68</ele>
        <time>2014-06-22T07:49:26Z</time>
      </trkpt>
      <trkpt lat="49.42051" lon="1.47323">
        <ele>154.23</ele>
        <time>2014-06-22T07:49:34Z</time>
      </trkpt>
      <trkpt lat="49.42072" lon="1.47301">
        <ele>154.4</ele>
        <time>2014-06-22T07:49:40Z</time>
      </trkpt>
      <trkpt lat="49.42102" lon="1.47279">
        <ele>153.97</ele>
        <time>2014-06-22T07:49:46Z</time>
      </trkpt>
      <trkpt lat="49.42126" lon="1.47265">
        <ele>154.18</ele>
        <time>2014-06-22T07:49:52Z</time>
      </trkpt>
      <trkpt lat="49.42153" lon="1.47251">
        <ele>154.23</ele>
        <time>2014-06-22T07:49:59Z</time>
      </trkpt>
      <trkpt lat="49.42189" lon="1.4724">
        <ele>154.03</ele>
        <time>2014-06-22T07:50:07Z</time>
      </trkpt>
      <trkpt lat="49.42223" lon="1.47226">
        <ele>154.13</ele>
        <time>2014-06-22T07:50:15Z</time>
      </trkpt>
      <trkpt lat="49.42237" lon="1.47217">
        <ele>153.5</ele>
        <time>2014-06-22T07:50:18Z</time>
      </trkpt>
      <trkpt lat="49.42257" lon="1.4721">
        <ele>152.38</ele>
        <time>2014-06-22T07:50:23Z</time>
      </trkpt>
      <trkpt lat="49.42273" lon="1.47194">
        <ele>152.79</ele>
        <time>2014-06-22T07:50:29Z</time>
      </trkpt>
      <trkpt lat="49.42276" lon="1.47191">
        <ele>152.86</ele>
        <time>2014-06-22T07:50:30Z</time>
      </trkpt>
      <trkpt lat="49.42301" lon="1.47169">
        <ele>153.34</ele>
        <time>2014-06-22T07:50:36Z</time>
      </trkpt>
      <trkpt lat="49.42337" lon="1.47133">
        <ele>152.43</ele>
        <time>2014-06-22T07:50:44Z</time>
      </trkpt>
      <trkpt lat="49.42372" lon="1.47104">
        <ele>150.5</ele>
        <time>2014-06-22T07:50:51Z</time>
      </trkpt>
      <trkpt lat="49.4239" lon="1.47092">
        <ele>151.16</ele>
        <time>2014-06-22T07:50:55Z</time>
      </trkpt>
      <trkpt lat="49.42417" lon="1.47075">
        <ele>152.33</ele>
        <time>2014-06-22T07:51:02Z</time>
      </trkpt>
      <trkpt lat="49.42435" lon="1.47065">
        <ele>153.68</ele>
        <time>2014-06-22T07:51:05Z</time>
      </trkpt>
      <trkpt lat="49.42464" lon="1.47027">
        <ele>154.89</ele>
        <time>2014-06-22T07:51:12Z</time>
      </trkpt>
      <trkpt lat="49.42477" lon="1.47015">
        <ele>155.44</ele>
        <time>2014-06-22T07:51:15Z</time>
      </trkpt>
      <trkpt lat="49.42503" lon="1.46977">
        <ele>156.25</ele>
        <time>2014-06-22T07:51:22Z</time>
      </trkpt>
      <trkpt lat="49.42525" lon="1.46941">
        <ele>156.47</ele>
        <time>2014-06-22T07:51:29Z</time>
      </trkpt>
      <trkpt lat="49.42533" lon="1.46924">
        <ele>157.34</ele>
        <time>2014-06-22T07:51:32Z</time>
      </trkpt>
      <trkpt lat="49.42558" lon="1.46877">
        <ele>158.07</ele>
        <time>2014-06-22T07:51:40Z</time>
      </trkpt>
      <trkpt lat="49.42576" lon="1.46844">
        <ele>157</ele>
        <time>2014-06-22T07:51:46Z</time>
      </trkpt>
      <trkpt lat="49.42589" lon="1.46826">
        <ele>157.74</ele>
        <time>2014-06-22T07:51:51Z</time>
      </trkpt>
      <trkpt lat="49.42592" lon="1.46825">
        <ele>157.78</ele>
        <time>2014-06-22T07:51:58Z</time>
      </trkpt>
      <trkpt lat="49.42593" lon="1.4682">
        <ele>157.8</ele>
        <time>2014-06-22T07:52:06Z</time>
      </trkpt>
      <trkpt lat="49.42602" lon="1.46807">
        <ele>157.68</ele>
        <time>2014-06-22T07:52:13Z</time>
      </trkpt>
      <trkpt lat="49.42621" lon="1.46776">
        <ele>158.29</ele>
        <time>2014-06-22T07:52:21Z</time>
      </trkpt>
      <trkpt lat="49.4263" lon="1.46742">
        <ele>158.72</ele>
        <time>2014-06-22T07:52:28Z</time>
      </trkpt>
      <trkpt lat="49.42629" lon="1.46715">
        <ele>158.67</ele>
        <time>2014-06-22T07:52:34Z</time>
      </trkpt>
      <trkpt lat="49.42621" lon="1.46678">
        <ele>158.58</ele>
        <time>2014-06-22T07:52:42Z</time>
      </trkpt>
      <trkpt lat="49.42608" lon="1.46639">
        <ele>158.57</ele>
        <time>2014-06-22T07:52:49Z</time>
      </trkpt>
      <trkpt lat="49.42597" lon="1.46604">
        <ele>158.5</ele>
        <time>2014-06-22T07:52:55Z</time>
      </trkpt>
      <trkpt lat="49.4259" lon="1.46579">
        <ele>158.05</ele>
        <time>2014-06-22T07:53:01Z</time>
      </trkpt>
      <trkpt lat="49.42577" lon="1.4655">
        <ele>157.32</ele>
        <time>2014-06-22T07:53:07Z</time>
      </trkpt>
      <trkpt lat="49.42571" lon="1.46508">
        <ele>156.98</ele>
        <time>2014-06-22T07:53:13Z</time>
      </trkpt>
      <trkpt lat="49.42559" lon="1.46456">
        <ele>156.18</ele>
        <time>2014-06-22T07:53:21Z</time>
      </trkpt>
      <trkpt lat="49.42557" lon="1.46451">
        <ele>156.3</ele>
        <time>2014-06-22T07:53:22Z</time>
      </trkpt>
      <trkpt lat="49.42549" lon="1.4641">
        <ele>154.84</ele>
        <time>2014-06-22T07:53:28Z</time>
      </trkpt>
      <trkpt lat="49.42545" lon="1.46391">
        <ele>153.85</ele>
        <time>2014-06-22T07:53:30Z</time>
      </trkpt>
      <trkpt lat="49.42538" lon="1.46371">
        <ele>153.17</ele>
        <time>2014-06-22T07:53:32Z</time>
      </trkpt>
      <trkpt lat="49.4253" lon="1.46353">
        <ele>152.23</ele>
        <time>2014-06-22T07:53:34Z</time>
      </trkpt>
      <trkpt lat="49.42513" lon="1.46318">
        <ele>150.39</ele>
        <time>2014-06-22T07:53:38Z</time>
      </trkpt>
      <trkpt lat="49.42477" lon="1.46263">
        <ele>147.09</ele>
        <time>2014-06-22T07:53:45Z</time>
      </trkpt>
      <trkpt lat="49.42468" lon="1.46249">
        <ele>146.47</ele>
        <time>2014-06-22T07:53:47Z</time>
      </trkpt>
      <trkpt lat="49.42463" lon="1.46243">
        <ele>146.38</ele>
        <time>2014-06-22T07:53:48Z</time>
      </trkpt>
      <trkpt lat="49.42456" lon="1.46236">
        <ele>145.55</ele>
        <time>2014-06-22T07:53:50Z</time>
      </trkpt>
      <trkpt lat="49.42408" lon="1.46205">
        <ele>144.22</ele>
        <time>2014-06-22T07:53:56Z</time>
      </trkpt>
      <trkpt lat="49.42394" lon="1.46176">
        <ele>143.68</ele>
        <time>2014-06-22T07:54:01Z</time>
      </trkpt>
      <trkpt lat="49.42398" lon="1.46146">
        <ele>144.87</ele>
        <time>2014-06-22T07:54:06Z</time>
      </trkpt>
      <trkpt lat="49.42396" lon="1.46128">
        <ele>145.21</ele>
        <time>2014-06-22T07:54:10Z</time>
      </trkpt>
      <trkpt lat="49.42379" lon="1.46109">
        <ele>146.43</ele>
        <time>2014-06-22T07:54:20Z</time>
      </trkpt>
      <trkpt lat="49.42375" lon="1.46105">
        <ele>147.75</ele>
        <time>2014-06-22T07:54:23Z</time>
      </trkpt>
      <trkpt lat="49.4237" lon="1.46095">
        <ele>148.01</ele>
        <time>2014-06-22T07:54:27Z</time>
      </trkpt>
      <trkpt lat="49.42361" lon="1.46082">
        <ele>150.24</ele>
        <time>2014-06-22T07:54:33Z</time>
      </trkpt>
      <trkpt lat="49.42345" lon="1.46059">
        <ele>152.75</ele>
        <time>2014-06-22T07:54:43Z</time>
      </trkpt>
      <trkpt lat="49.42333" lon="1.46041">
        <ele>154.6</ele>
        <time>2014-06-22T07:54:50Z</time>
      </trkpt>
      <trkpt lat="49.42313" lon="1.46012">
        <ele>155.92</ele>
        <time>2014-06-22T07:54:59Z</time>
      </trkpt>
      <trkpt lat="49.42299" lon="1.45994">
        <ele>156.62</ele>
        <time>2014-06-22T07:55:07Z</time>
      </trkpt>
      <trkpt lat="49.42282" lon="1.45981">
        <ele>157.7</ele>
        <time>2014-06-22T07:55:14Z</time>
      </trkpt>
      <trkpt lat="49.42265" lon="1.45965">
        <ele>159.06</ele>
        <time>2014-06-22T07:55:21Z</time>
      </trkpt>
      <trkpt lat="49.42248" lon="1.4595">
        <ele>159.62</ele>
        <time>2014-06-22T07:55:29Z</time>
      </trkpt>
      <trkpt lat="49.42216" lon="1.45916">
        <ele>160.11</ele>
        <time>2014-06-22T07:55:36Z</time>
      </trkpt>
      <trkpt lat="49.4219" lon="1.45891">
        <ele>160.96</ele>
        <time>2014-06-22T07:55:43Z</time>
      </trkpt>
      <trkpt lat="49.42168" lon="1.45862">
        <ele>161.2</ele>
        <time>2014-06-22T07:55:51Z</time>
      </trkpt>
      <trkpt lat="49.42149" lon="1.45824">
        <ele>161.4</ele>
        <time>2014-06-22T07:55:58Z</time>
      </trkpt>
      <trkpt lat="49.42138" lon="1.45795">
        <ele>161.78</ele>
        <time>2014-06-22T07:56:04Z</time>
      </trkpt>
      <trkpt lat="49.42121" lon="1.45764">
        <ele>161.7</ele>
        <time>2014-06-22T07:56:10Z</time>
      </trkpt>
      <trkpt lat="49.42098" lon="1.4573">
        <ele>161.92</ele>
        <time>2014-06-22T07:56:17Z</time>
      </trkpt>
      <trkpt lat="49.42077" lon="1.45679">
        <ele>161.87</ele>
        <time>2014-06-22T07:56:25Z</time>
      </trkpt>
      <trkpt lat="49.42069" lon="1.45631">
        <ele>162.26</ele>
        <time>2014-06-22T07:56:31Z</time>
      </trkpt>
      <trkpt lat="49.4206" lon="1.45592">
        <ele>162.37</ele>
        <time>2014-06-22T07:56:37Z</time>
      </trkpt>
      <trkpt lat="49.42046" lon="1.45552">
        <ele>163.12</ele>
        <time>2014-06-22T07:56:45Z</time>
      </trkpt>
      <trkpt lat="49.42025" lon="1.45526">
        <ele>163.07</ele>
        <time>2014-06-22T07:56:53Z</time>
      </trkpt>
      <trkpt lat="49.42007" lon="1.45486">
        <ele>163.6</ele>
        <time>2014-06-22T07:57:02Z</time>
      </trkpt>
      <trkpt lat="49.41992" lon="1.45445">
        <ele>164.11</ele>
        <time>2014-06-22T07:57:10Z</time>
      </trkpt>
      <trkpt lat="49.41973" lon="1.45413">
        <ele>164.07</ele>
        <time>2014-06-22T07:57:18Z</time>
      </trkpt>
      <trkpt lat="49.4196" lon="1.45381">
        <ele>165.3</ele>
        <time>2014-06-22T07:57:25Z</time>
      </trkpt>
      <trkpt lat="49.4194" lon="1.45335">
        <ele>164.96</ele>
        <time>2014-06-22T07:57:33Z</time>
      </trkpt>
      <trkpt lat="49.41935" lon="1.45325">
        <ele>165.3</ele>
        <time>2014-06-22T07:57:35Z</time>
      </trkpt>
      <trkpt lat="49.41922" lon="1.45319">
        <ele>164.9</ele>
        <time>2014-06-22T07:57:39Z</time>
      </trkpt>
      <trkpt lat="49.41898" lon="1.45321">
        <ele>165.21</ele>
        <time>2014-06-22T07:57:46Z</time>
      </trkpt>
      <trkpt lat="49.41874" lon="1.45329">
        <ele>165.41</ele>
        <time>2014-06-22T07:57:54Z</time>
      </trkpt>
      <trkpt lat="49.41846" lon="1.45342">
        <ele>165.27</ele>
        <time>2014-06-22T07:58:03Z</time>
      </trkpt>
      <trkpt lat="49.41838" lon="1.45345">
        <ele>164.71</ele>
        <time>2014-06-22T07:58:05Z</time>
      </trkpt>
      <trkpt lat="49.41801" lon="1.45373">
        <ele>164.02</ele>
        <time>2014-06-22T07:58:13Z</time>
      </trkpt>
      <trkpt lat="49.41786" lon="1.45383">
        <ele>163.3</ele>
        <time>2014-06-22T07:58:16Z</time>
      </trkpt>
      <trkpt lat="49.41776" lon="1.45391">
        <ele>162.77</ele>
        <time>2014-06-22T07:58:18Z</time>
      </trkpt>
      <trkpt lat="49.41729" lon="1.45427">
        <ele>161.52</ele>
        <time>2014-06-22T07:58:26Z</time>
      </trkpt>
      <trkpt lat="49.41703" lon="1.45449">
        <ele>160.72</ele>
        <time>2014-06-22T07:58:31Z</time>
      </trkpt>
      <trkpt lat="49.41678" lon="1.4545">
        <ele>160.74</ele>
        <time>2014-06-22T07:58:35Z</time>
      </trkpt>
      <trkpt lat="49.41666" lon="1.45436">
        <ele>161.07</ele>
        <time>2014-06-22T07:58:39Z</time>
      </trkpt>
      <trkpt lat="49.41651" lon="1.45407">
        <ele>162.35</ele>
        <time>2014-06-22T07:58:47Z</time>
      </trkpt>
      <trkpt lat="49.41631" lon="1.45382">
        <ele>163.59</ele>
        <time>2014-06-22T07:58:54Z</time>
      </trkpt>
      <trkpt lat="49.41622" lon="1.4537">
        <ele>163.69</ele>
        <time>2014-06-22T07:58:58Z</time>
      </trkpt>
      <trkpt lat="49.41617" lon="1.45356">
        <ele>163.79</ele>
        <time>2014-06-22T07:59:02Z</time>
      </trkpt>
      <trkpt lat="49.41595" lon="1.45321">
        <ele>165.82</ele>
        <time>2014-06-22T07:59:11Z</time>
      </trkpt>
      <trkpt lat="49.41578" lon="1.45291">
        <ele>166.82</ele>
        <time>2014-06-22T07:59:18Z</time>
      </trkpt>
      <trkpt lat="49.41558" lon="1.45259">
        <ele>168.2</ele>
        <time>2014-06-22T07:59:26Z</time>
      </trkpt>
      <trkpt lat="49.41538" lon="1.45234">
        <ele>169.27</ele>
        <time>2014-06-22T07:59:34Z</time>
      </trkpt>
      <trkpt lat="49.41523" lon="1.45215">
        <ele>169.69</ele>
        <time>2014-06-22T07:59:38Z</time>
      </trkpt>
      <trkpt lat="49.41505" lon="1.45197">
        <ele>170.55</ele>
        <time>2014-06-22T07:59:43Z</time>
      </trkpt>
      <trkpt lat="49.41484" lon="1.45168">
        <ele>171.52</ele>
        <time>2014-06-22T07:59:50Z</time>
      </trkpt>
      <trkpt lat="49.41457" lon="1.45137">
        <ele>172.17</ele>
        <time>2014-06-22T07:59:57Z</time>
      </trkpt>
      <trkpt lat="49.41423" lon="1.4509">
        <ele>172.56</ele>
        <time>2014-06-22T08:00:07Z</time>
      </trkpt>
      <trkpt lat="49.41403" lon="1.45052">
        <ele>172.35</ele>
        <time>2014-06-22T08:00:13Z</time>
      </trkpt>
      <trkpt lat="49.41378" lon="1.45018">
        <ele>172.58</ele>
        <time>2014-06-22T08:00:19Z</time>
      </trkpt>
      <trkpt lat="49.41356" lon="1.44989">
        <ele>173.32</ele>
        <time>2014-06-22T08:00:25Z</time>
      </trkpt>
      <trkpt lat="49.41334" lon="1.44962">
        <ele>173.61</ele>
        <time>2014-06-22T08:00:31Z</time>
      </trkpt>
      <trkpt lat="49.4132" lon="1.44941">
        <ele>173.55</ele>
        <time>2014-06-22T08:00:35Z</time>
      </trkpt>
      <trkpt lat="49.41296" lon="1.4491">
        <ele>173.78</ele>
        <time>2014-06-22T08:00:40Z</time>
      </trkpt>
      <trkpt lat="49.41273" lon="1.44877">
        <ele>174.14</ele>
        <time>2014-06-22T08:00:47Z</time>
      </trkpt>
      <trkpt lat="49.41244" lon="1.4483">
        <ele>174</ele>
        <time>2014-06-22T08:00:56Z</time>
      </trkpt>
      <trkpt lat="49.41203" lon="1.4478">
        <ele>174.74</ele>
        <time>2014-06-22T08:01:05Z</time>
      </trkpt>
      <trkpt lat="49.41173" lon="1.44744">
        <ele>175.22</ele>
        <time>2014-06-22T08:01:12Z</time>
      </trkpt>
      <trkpt lat="49.41137" lon="1.44699">
        <ele>173.56</ele>
        <time>2014-06-22T08:01:20Z</time>
      </trkpt>
      <trkpt lat="49.41108" lon="1.44663">
        <ele>173.64</ele>
        <time>2014-06-22T08:01:25Z</time>
      </trkpt>
      <trkpt lat="49.41078" lon="1.4462">
        <ele>173.9</ele>
        <time>2014-06-22T08:01:31Z</time>
      </trkpt>
      <trkpt lat="49.41066" lon="1.44604">
        <ele>173.83</ele>
        <time>2014-06-22T08:01:34Z</time>
      </trkpt>
      <trkpt lat="49.41039" lon="1.44572">
        <ele>173.82</ele>
        <time>2014-06-22T08:01:39Z</time>
      </trkpt>
      <trkpt lat="49.41007" lon="1.44526">
        <ele>174.16</ele>
        <time>2014-06-22T08:01:46Z</time>
      </trkpt>
      <trkpt lat="49.40967" lon="1.4447">
        <ele>174.13</ele>
        <time>2014-06-22T08:01:54Z</time>
      </trkpt>
      <trkpt lat="49.40948" lon="1.44441">
        <ele>173.38</ele>
        <time>2014-06-22T08:01:59Z</time>
      </trkpt>
      <trkpt lat="49.40916" lon="1.444">
        <ele>174.41</ele>
        <time>2014-06-22T08:02:06Z</time>
      </trkpt>
      <trkpt lat="49.40877" lon="1.44337">
        <ele>174.26</ele>
        <time>2014-06-22T08:02:14Z</time>
      </trkpt>
      <trkpt lat="49.40869" lon="1.44323">
        <ele>174.2</ele>
        <time>2014-06-22T08:02:16Z</time>
      </trkpt>
      <trkpt lat="49.40838" lon="1.4426">
        <ele>173.7</ele>
        <time>2014-06-22T08:02:24Z</time>
      </trkpt>
      <trkpt lat="49.40812" lon="1.44189">
        <ele>173.19</ele>
        <time>2014-06-22T08:02:32Z</time>
      </trkpt>
      <trkpt lat="49.40785" lon="1.44134">
        <ele>172.13</ele>
        <time>2014-06-22T08:02:39Z</time>
      </trkpt>
      <trkpt lat="49.40781" lon="1.44116">
        <ele>172.21</ele>
        <time>2014-06-22T08:02:41Z</time>
      </trkpt>
      <trkpt lat="49.40753" lon="1.44048">
        <ele>172.16</ele>
        <time>2014-06-22T08:02:49Z</time>
      </trkpt>
      <trkpt lat="49.40725" lon="1.43984">
        <ele>171.5</ele>
        <time>2014-06-22T08:02:57Z</time>
      </trkpt>
      <trkpt lat="49.40705" lon="1.43936">
        <ele>171.38</ele>
        <time>2014-06-22T08:03:04Z</time>
      </trkpt>
      <trkpt lat="49.40688" lon="1.43908">
        <ele>170.24</ele>
        <time>2014-06-22T08:03:10Z</time>
      </trkpt>
      <trkpt lat="49.40658" lon="1.43868">
        <ele>170.25</ele>
        <time>2014-06-22T08:03:16Z</time>
      </trkpt>
      <trkpt lat="49.40642" lon="1.43831">
        <ele>169.47</ele>
        <time>2014-06-22T08:03:21Z</time>
      </trkpt>
      <trkpt lat="49.40624" lon="1.43806">
        <ele>168.78</ele>
        <time>2014-06-22T08:03:26Z</time>
      </trkpt>
      <trkpt lat="49.40598" lon="1.43772">
        <ele>167.36</ele>
        <time>2014-06-22T08:03:34Z</time>
      </trkpt>
      <trkpt lat="49.40564" lon="1.43738">
        <ele>166.53</ele>
        <time>2014-06-22T08:03:39Z</time>
      </trkpt>
      <trkpt lat="49.40539" lon="1.43724">
        <ele>165.82</ele>
        <time>2014-06-22T08:03:43Z</time>
      </trkpt>
      <trkpt lat="49.40514" lon="1.43689">
        <ele>165.14</ele>
        <time>2014-06-22T08:03:50Z</time>
      </trkpt>
      <trkpt lat="49.40479" lon="1.43651">
        <ele>164.01</ele>
        <time>2014-06-22T08:03:57Z</time>
      </trkpt>
      <trkpt lat="49.4043" lon="1.4362">
        <ele>162.54</ele>
        <time>2014-06-22T08:04:04Z</time>
      </trkpt>
      <trkpt lat="49.404" lon="1.43593">
        <ele>161.36</ele>
        <time>2014-06-22T08:04:09Z</time>
      </trkpt>
      <trkpt lat="49.40395" lon="1.43587">
        <ele>161.16</ele>
        <time>2014-06-22T08:04:10Z</time>
      </trkpt>
      <trkpt lat="49.40352" lon="1.43532">
        <ele>158.95</ele>
        <time>2014-06-22T08:04:17Z</time>
      </trkpt>
      <trkpt lat="49.40301" lon="1.43485">
        <ele>157.05</ele>
        <time>2014-06-22T08:04:23Z</time>
      </trkpt>
      <trkpt lat="49.40261" lon="1.43449">
        <ele>156.38</ele>
        <time>2014-06-22T08:04:29Z</time>
      </trkpt>
      <trkpt lat="49.40225" lon="1.43406">
        <ele>155.3</ele>
        <time>2014-06-22T08:04:36Z</time>
      </trkpt>
      <trkpt lat="49.4022" lon="1.434">
        <ele>154.28</ele>
        <time>2014-06-22T08:04:39Z</time>
      </trkpt>
      <trkpt lat="49.40221" lon="1.43401">
        <ele>154.16</ele>
        <time>2014-06-22T08:04:43Z</time>
      </trkpt>
      <trkpt lat="49.40224" lon="1.4341">
        <ele>154.05</ele>
        <time>2014-06-22T08:04:47Z</time>
      </trkpt>
      <trkpt lat="49.40215" lon="1.43431">
        <ele>155.09</ele>
        <time>2014-06-22T08:04:53Z</time>
      </trkpt>
      <trkpt lat="49.40201" lon="1.43449">
        <ele>154.52</ele>
        <time>2014-06-22T08:05:00Z</time>
      </trkpt>
      <trkpt lat="49.40194" lon="1.43462">
        <ele>153.6</ele>
        <time>2014-06-22T08:05:04Z</time>
      </trkpt>
      <trkpt lat="49.40181" lon="1.43478">
        <ele>153.92</ele>
        <time>2014-06-22T08:05:08Z</time>
      </trkpt>
      <trkpt lat="49.4016" lon="1.43504">
        <ele>153.11</ele>
        <time>2014-06-22T08:05:14Z</time>
      </trkpt>
      <trkpt lat="49.40148" lon="1.43524">
        <ele>150.35</ele>
        <time>2014-06-22T08:05:17Z</time>
      </trkpt>
      <trkpt lat="49.4013" lon="1.4355">
        <ele>149.9</ele>
        <time>2014-06-22T08:05:22Z</time>
      </trkpt>
      <trkpt lat="49.40125" lon="1.43563">
        <ele>149.98</ele>
        <time>2014-06-22T08:05:24Z</time>
      </trkpt>
      <trkpt lat="49.4011" lon="1.43585">
        <ele>150.32</ele>
        <time>2014-06-22T08:05:29Z</time>
      </trkpt>
      <trkpt lat="49.40105" lon="1.4359">
        <ele>150.62</ele>
        <time>2014-06-22T08:05:31Z</time>
      </trkpt>
      <trkpt lat="49.40096" lon="1.43596">
        <ele>150.86</ele>
        <time>2014-06-22T08:05:33Z</time>
      </trkpt>
      <trkpt lat="49.40055" lon="1.43617">
        <ele>152.07</ele>
        <time>2014-06-22T08:05:41Z</time>
      </trkpt>
      <trkpt lat="49.40019" lon="1.43635">
        <ele>152.55</ele>
        <time>2014-06-22T08:05:48Z</time>
      </trkpt>
      <trkpt lat="49.39986" lon="1.43657">
        <ele>152.94</ele>
        <time>2014-06-22T08:05:55Z</time>
      </trkpt>
      <trkpt lat="49.39958" lon="1.43676">
        <ele>153.08</ele>
        <time>2014-06-22T08:06:01Z</time>
      </trkpt>
      <trkpt lat="49.39936" lon="1.43691">
        <ele>152.88</ele>
        <time>2014-06-22T08:06:08Z</time>
      </trkpt>
      <trkpt lat="49.39915" lon="1.43702">
        <ele>152.6</ele>
        <time>2014-06-22T08:06:16Z</time>
      </trkpt>
      <trkpt lat="49.39889" lon="1.43717">
        <ele>152.41</ele>
        <time>2014-06-22T08:06:23Z</time>
      </trkpt>
      <trkpt lat="49.39864" lon="1.43733">
        <ele>152</ele>
        <time>2014-06-22T08:06:29Z</time>
      </trkpt>
      <trkpt lat="49.39839" lon="1.43753">
        <ele>152.52</ele>
        <time>2014-06-22T08:06:36Z</time>
      </trkpt>
      <trkpt lat="49.39798" lon="1.43766">
        <ele>152.66</ele>
        <time>2014-06-22T08:06:43Z</time>
      </trkpt>
      <trkpt lat="49.39762" lon="1.43783">
        <ele>152.66</ele>
        <time>2014-06-22T08:06:50Z</time>
      </trkpt>
      <trkpt lat="49.39721" lon="1.43801">
        <ele>153.66</ele>
        <time>2014-06-22T08:06:58Z</time>
      </trkpt>
      <trkpt lat="49.39681" lon="1.43823">
        <ele>153.93</ele>
        <time>2014-06-22T08:07:06Z</time>
      </trkpt>
      <trkpt lat="49.39645" lon="1.43844">
        <ele>153.44</ele>
        <time>2014-06-22T08:07:13Z</time>
      </trkpt>
      <trkpt lat="49.39603" lon="1.43866">
        <ele>152.66</ele>
        <time>2014-06-22T08:07:21Z</time>
      </trkpt>
      <trkpt lat="49.39567" lon="1.43886">
        <ele>151.54</ele>
        <time>2014-06-22T08:07:28Z</time>
      </trkpt>
      <trkpt lat="49.39555" lon="1.43911">
        <ele>151.18</ele>
        <time>2014-06-22T08:07:33Z</time>
      </trkpt>
      <trkpt lat="49.39555" lon="1.43917">
        <ele>151.19</ele>
        <time>2014-06-22T08:07:34Z</time>
      </trkpt>
      <trkpt lat="49.39554" lon="1.4393">
        <ele>151.45</ele>
        <time>2014-06-22T08:07:36Z</time>
      </trkpt>
      <trkpt lat="49.39555" lon="1.43943">
        <ele>151.77</ele>
        <time>2014-06-22T08:07:38Z</time>
      </trkpt>
      <trkpt lat="49.39554" lon="1.43988">
        <ele>152.02</ele>
        <time>2014-06-22T08:07:44Z</time>
      </trkpt>
      <trkpt lat="49.39557" lon="1.44064">
        <ele>152.99</ele>
        <time>2014-06-22T08:07:53Z</time>
      </trkpt>
      <trkpt lat="49.39556" lon="1.44124">
        <ele>153.53</ele>
        <time>2014-06-22T08:08:00Z</time>
      </trkpt>
      <trkpt lat="49.3955" lon="1.44182">
        <ele>153.06</ele>
        <time>2014-06-22T08:08:08Z</time>
      </trkpt>
      <trkpt lat="49.39547" lon="1.44232">
        <ele>153.72</ele>
        <time>2014-06-22T08:08:14Z</time>
      </trkpt>
      <trkpt lat="49.39539" lon="1.44265">
        <ele>154.51</ele>
        <time>2014-06-22T08:08:19Z</time>
      </trkpt>
      <trkpt lat="49.39523" lon="1.44295">
        <ele>155.61</ele>
        <time>2014-06-22T08:08:25Z</time>
      </trkpt>
      <trkpt lat="49.39522" lon="1.44303">
        <ele>155.62</ele>
        <time>2014-06-22T08:08:27Z</time>
      </trkpt>
      <trkpt lat="49.39531" lon="1.44316">
        <ele>155.98</ele>
        <time>2014-06-22T08:08:31Z</time>
      </trkpt>
      <trkpt lat="49.39548" lon="1.44359">
        <ele>157.34</ele>
        <time>2014-06-22T08:08:38Z</time>
      </trkpt>
      <trkpt lat="49.3956" lon="1.4441">
        <ele>159.16</ele>
        <time>2014-06-22T08:08:47Z</time>
      </trkpt>
      <trkpt lat="49.39567" lon="1.44455">
        <ele>160.17</ele>
        <time>2014-06-22T08:08:55Z</time>
      </trkpt>
      <trkpt lat="49.39577" lon="1.44506">
        <ele>161.56</ele>
        <time>2014-06-22T08:09:04Z</time>
      </trkpt>
      <trkpt lat="49.39584" lon="1.44542">
        <ele>162.34</ele>
        <time>2014-06-22T08:09:11Z</time>
      </trkpt>
      <trkpt lat="49.39584" lon="1.44546">
        <ele>162.37</ele>
        <time>2014-06-22T08:09:12Z</time>
      </trkpt>
      <trkpt lat="49.39569" lon="1.44567">
        <ele>162.36</ele>
        <time>2014-06-22T08:09:18Z</time>
      </trkpt>
      <trkpt lat="49.39543" lon="1.44591">
        <ele>162.48</ele>
        <time>2014-06-22T08:09:25Z</time>
      </trkpt>
      <trkpt lat="49.39532" lon="1.44597">
        <ele>162.52</ele>
        <time>2014-06-22T08:09:27Z</time>
      </trkpt>
      <trkpt lat="49.39513" lon="1.44616">
        <ele>161.72</ele>
        <time>2014-06-22T08:09:31Z</time>
      </trkpt>
      <trkpt lat="49.39488" lon="1.44622">
        <ele>160.93</ele>
        <time>2014-06-22T08:09:35Z</time>
      </trkpt>
      <trkpt lat="49.39443" lon="1.44627">
        <ele>160.41</ele>
        <time>2014-06-22T08:09:41Z</time>
      </trkpt>
      <trkpt lat="49.39427" lon="1.44629">
        <ele>159.83</ele>
        <time>2014-06-22T08:09:43Z</time>
      </trkpt>
      <trkpt lat="49.39397" lon="1.44626">
        <ele>159.16</ele>
        <time>2014-06-22T08:09:47Z</time>
      </trkpt>
      <trkpt lat="49.39372" lon="1.44616">
        <ele>156.61</ele>
        <time>2014-06-22T08:09:51Z</time>
      </trkpt>
      <trkpt lat="49.39349" lon="1.44603">
        <ele>155.78</ele>
        <time>2014-06-22T08:09:54Z</time>
      </trkpt>
      <trkpt lat="49.39312" lon="1.44573">
        <ele>152.56</ele>
        <time>2014-06-22T08:09:59Z</time>
      </trkpt>
      <trkpt lat="49.39283" lon="1.44543">
        <ele>151.72</ele>
        <time>2014-06-22T08:10:03Z</time>
      </trkpt>
      <trkpt lat="49.3926" lon="1.44528">
        <ele>151.06</ele>
        <time>2014-06-22T08:10:06Z</time>
      </trkpt>
      <trkpt lat="49.39245" lon="1.44521">
        <ele>149.43</ele>
        <time>2014-06-22T08:10:08Z</time>
      </trkpt>
      <trkpt lat="49.39199" lon="1.44485">
        <ele>146.12</ele>
        <time>2014-06-22T08:10:15Z</time>
      </trkpt>
      <trkpt lat="49.39144" lon="1.44425">
        <ele>144.13</ele>
        <time>2014-06-22T08:10:24Z</time>
      </trkpt>
      <trkpt lat="49.39133" lon="1.44411">
        <ele>143.68</ele>
        <time>2014-06-22T08:10:26Z</time>
      </trkpt>
      <trkpt lat="49.39095" lon="1.44367">
        <ele>142</ele>
        <time>2014-06-22T08:10:33Z</time>
      </trkpt>
      <trkpt lat="49.39089" lon="1.44361">
        <ele>142.12</ele>
        <time>2014-06-22T08:10:34Z</time>
      </trkpt>
      <trkpt lat="49.3908" lon="1.44349">
        <ele>142.43</ele>
        <time>2014-06-22T08:10:36Z</time>
      </trkpt>
      <trkpt lat="49.39068" lon="1.44346">
        <ele>140.98</ele>
        <time>2014-06-22T08:10:41Z</time>
      </trkpt>
      <trkpt lat="49.39072" lon="1.44366">
        <ele>139.43</ele>
        <time>2014-06-22T08:10:45Z</time>
      </trkpt>
      <trkpt lat="49.39074" lon="1.44372">
        <ele>138.93</ele>
        <time>2014-06-22T08:10:46Z</time>
      </trkpt>
      <trkpt lat="49.39083" lon="1.44415">
        <ele>134.75</ele>
        <time>2014-06-22T08:10:52Z</time>
      </trkpt>
      <trkpt lat="49.39091" lon="1.44447">
        <ele>131.48</ele>
        <time>2014-06-22T08:10:56Z</time>
      </trkpt>
      <trkpt lat="49.39093" lon="1.44455">
        <ele>130.51</ele>
        <time>2014-06-22T08:10:57Z</time>
      </trkpt>
      <trkpt lat="49.39109" lon="1.44488">
        <ele>127.44</ele>
        <time>2014-06-22T08:11:01Z</time>
      </trkpt>
      <trkpt lat="49.39132" lon="1.44527">
        <ele>122.74</ele>
        <time>2014-06-22T08:11:06Z</time>
      </trkpt>
      <trkpt lat="49.39141" lon="1.44543">
        <ele>120.52</ele>
        <time>2014-06-22T08:11:08Z</time>
      </trkpt>
      <trkpt lat="49.39159" lon="1.4458">
        <ele>116.52</ele>
        <time>2014-06-22T08:11:13Z</time>
      </trkpt>
      <trkpt lat="49.39171" lon="1.44605">
        <ele>112.16</ele>
        <time>2014-06-22T08:11:16Z</time>
      </trkpt>
      <trkpt lat="49.39175" lon="1.44623">
        <ele>111.44</ele>
        <time>2014-06-22T08:11:18Z</time>
      </trkpt>
      <trkpt lat="49.39179" lon="1.44643">
        <ele>109.3</ele>
        <time>2014-06-22T08:11:20Z</time>
      </trkpt>
      <trkpt lat="49.39187" lon="1.44685">
        <ele>104.35</ele>
        <time>2014-06-22T08:11:24Z</time>
      </trkpt>
      <trkpt lat="49.39189" lon="1.44698">
        <ele>103.51</ele>
        <time>2014-06-22T08:11:25Z</time>
      </trkpt>
      <trkpt lat="49.39198" lon="1.44756">
        <ele>99.56</ele>
        <time>2014-06-22T08:11:30Z</time>
      </trkpt>
      <trkpt lat="49.39204" lon="1.4478">
        <ele>97.48</ele>
        <time>2014-06-22T08:11:32Z</time>
      </trkpt>
      <trkpt lat="49.39216" lon="1.4482">
        <ele>93.73</ele>
        <time>2014-06-22T08:11:36Z</time>
      </trkpt>
      <trkpt lat="49.39222" lon="1.44881">
        <ele>89.29</ele>
        <time>2014-06-22T08:11:42Z</time>
      </trkpt>
      <trkpt lat="49.39226" lon="1.44896">
        <ele>87.35</ele>
        <time>2014-06-22T08:11:45Z</time>
      </trkpt>
      <trkpt lat="49.39226" lon="1.44898">
        <ele>87.13</ele>
        <time>2014-06-22T08:11:46Z</time>
      </trkpt>
      <trkpt lat="49.39223" lon="1.44897">
        <ele>85.18</ele>
        <time>2014-06-22T08:11:54Z</time>
      </trkpt>
      <trkpt lat="49.39221" lon="1.44897">
        <ele>84.88</ele>
        <time>2014-06-22T08:12:00Z</time>
      </trkpt>
      <trkpt lat="49.39201" lon="1.44882">
        <ele>80.83</ele>
        <time>2014-06-22T08:12:06Z</time>
      </trkpt>
      <trkpt lat="49.39164" lon="1.44873">
        <ele>77.92</ele>
        <time>2014-06-22T08:12:10Z</time>
      </trkpt>
      <trkpt lat="49.39144" lon="1.44897">
        <ele>75.21</ele>
        <time>2014-06-22T08:12:14Z</time>
      </trkpt>
      <trkpt lat="49.39128" lon="1.44919">
        <ele>73.78</ele>
        <time>2014-06-22T08:12:17Z</time>
      </trkpt>
      <trkpt lat="49.39092" lon="1.44972">
        <ele>72.02</ele>
        <time>2014-06-22T08:12:24Z</time>
      </trkpt>
      <trkpt lat="49.39065" lon="1.45023">
        <ele>72.1</ele>
        <time>2014-06-22T08:12:31Z</time>
      </trkpt>
      <trkpt lat="49.39046" lon="1.45056">
        <ele>73.58</ele>
        <time>2014-06-22T08:12:38Z</time>
      </trkpt>
      <trkpt lat="49.39027" lon="1.45078">
        <ele>74.94</ele>
        <time>2014-06-22T08:12:45Z</time>
      </trkpt>
      <trkpt lat="49.39011" lon="1.45069">
        <ele>76.91</ele>
        <time>2014-06-22T08:12:51Z</time>
      </trkpt>
      <trkpt lat="49.39009" lon="1.45066">
        <ele>77.21</ele>
        <time>2014-06-22T08:12:52Z</time>
      </trkpt>
      <trkpt lat="49.39004" lon="1.4506">
        <ele>77.72</ele>
        <time>2014-06-22T08:12:54Z</time>
      </trkpt>
      <trkpt lat="49.38995" lon="1.45064">
        <ele>78.67</ele>
        <time>2014-06-22T08:12:59Z</time>
      </trkpt>
      <trkpt lat="49.38995" lon="1.45068">
        <ele>78.6</ele>
        <time>2014-06-22T08:13:00Z</time>
      </trkpt>
      <trkpt lat="49.38992" lon="1.45092">
        <ele>79.51</ele>
        <time>2014-06-22T08:13:06Z</time>
      </trkpt>
      <trkpt lat="49.38994" lon="1.45119">
        <ele>78.14</ele>
        <time>2014-06-22T08:13:10Z</time>
      </trkpt>
      <trkpt lat="49.38989" lon="1.4513">
        <ele>79.44</ele>
        <time>2014-06-22T08:13:14Z</time>
      </trkpt>
      <trkpt lat="49.38983" lon="1.45136">
        <ele>80.44</ele>
        <time>2014-06-22T08:13:17Z</time>
      </trkpt>
      <trkpt lat="49.38969" lon="1.45152">
        <ele>83.02</ele>
        <time>2014-06-22T08:13:24Z</time>
      </trkpt>
      <trkpt lat="49.38956" lon="1.45173">
        <ele>84.43</ele>
        <time>2014-06-22T08:13:32Z</time>
      </trkpt>
      <trkpt lat="49.38945" lon="1.45199">
        <ele>86.42</ele>
        <time>2014-06-22T08:13:41Z</time>
      </trkpt>
      <trkpt lat="49.38938" lon="1.45219">
        <ele>88.18</ele>
        <time>2014-06-22T08:13:48Z</time>
      </trkpt>
      <trkpt lat="49.38929" lon="1.45243">
        <ele>89.97</ele>
        <time>2014-06-22T08:13:56Z</time>
      </trkpt>
      <trkpt lat="49.38922" lon="1.45265">
        <ele>91.37</ele>
        <time>2014-06-22T08:14:03Z</time>
      </trkpt>
      <trkpt lat="49.38911" lon="1.45295">
        <ele>93.28</ele>
        <time>2014-06-22T08:14:11Z</time>
      </trkpt>
      <trkpt lat="49.38895" lon="1.45322">
        <ele>95.01</ele>
        <time>2014-06-22T08:14:20Z</time>
      </trkpt>
      <trkpt lat="49.38884" lon="1.45341">
        <ele>96.76</ele>
        <time>2014-06-22T08:14:27Z</time>
      </trkpt>
      <trkpt lat="49.38874" lon="1.45361">
        <ele>97.82</ele>
        <time>2014-06-22T08:14:34Z</time>
      </trkpt>
      <trkpt lat="49.38872" lon="1.45374">
        <ele>99.2</ele>
        <time>2014-06-22T08:14:39Z</time>
      </trkpt>
      <trkpt lat="49.38872" lon="1.45391">
        <ele>100.1</ele>
        <time>2014-06-22T08:14:44Z</time>
      </trkpt>
      <trkpt lat="49.38863" lon="1.45423">
        <ele>102.25</ele>
        <time>2014-06-22T08:14:53Z</time>
      </trkpt>
      <trkpt lat="49.38856" lon="1.45446">
        <ele>103.61</ele>
        <time>2014-06-22T08:15:00Z</time>
      </trkpt>
      <trkpt lat="49.38847" lon="1.45464">
        <ele>105.04</ele>
        <time>2014-06-22T08:15:07Z</time>
      </trkpt>
      <trkpt lat="49.38833" lon="1.45482">
        <ele>107.01</ele>
        <time>2014-06-22T08:15:14Z</time>
      </trkpt>
      <trkpt lat="49.38823" lon="1.45479">
        <ele>108.72</ele>
        <time>2014-06-22T08:15:20Z</time>
      </trkpt>
      <trkpt lat="49.38819" lon="1.45471">
        <ele>109.49</ele>
        <time>2014-06-22T08:15:23Z</time>
      </trkpt>
      <trkpt lat="49.38818" lon="1.45455">
        <ele>109.92</ele>
        <time>2014-06-22T08:15:27Z</time>
      </trkpt>
      <trkpt lat="49.38825" lon="1.4542">
        <ele>110.9</ele>
        <time>2014-06-22T08:15:35Z</time>
      </trkpt>
      <trkpt lat="49.38824" lon="1.45384">
        <ele>112.01</ele>
        <time>2014-06-22T08:15:42Z</time>
      </trkpt>
      <trkpt lat="49.38814" lon="1.45349">
        <ele>111.9</ele>
        <time>2014-06-22T08:15:49Z</time>
      </trkpt>
      <trkpt lat="49.38806" lon="1.45317">
        <ele>112.21</ele>
        <time>2014-06-22T08:15:56Z</time>
      </trkpt>
      <trkpt lat="49.38796" lon="1.45286">
        <ele>113.16</ele>
        <time>2014-06-22T08:16:03Z</time>
      </trkpt>
      <trkpt lat="49.38783" lon="1.45258">
        <ele>114.83</ele>
        <time>2014-06-22T08:16:11Z</time>
      </trkpt>
      <trkpt lat="49.38765" lon="1.45256">
        <ele>115.95</ele>
        <time>2014-06-22T08:16:17Z</time>
      </trkpt>
      <trkpt lat="49.38747" lon="1.45261">
        <ele>117.82</ele>
        <time>2014-06-22T08:16:23Z</time>
      </trkpt>
      <trkpt lat="49.38745" lon="1.45279">
        <ele>119.01</ele>
        <time>2014-06-22T08:16:29Z</time>
      </trkpt>
      <trkpt lat="49.38745" lon="1.45304">
        <ele>120.66</ele>
        <time>2014-06-22T08:16:36Z</time>
      </trkpt>
      <trkpt lat="49.38751" lon="1.45328">
        <ele>122.01</ele>
        <time>2014-06-22T08:16:42Z</time>
      </trkpt>
      <trkpt lat="49.38756" lon="1.45363">
        <ele>123.68</ele>
        <time>2014-06-22T08:16:49Z</time>
      </trkpt>
      <trkpt lat="49.3875" lon="1.4539">
        <ele>124.54</ele>
        <time>2014-06-22T08:16:55Z</time>
      </trkpt>
      <trkpt lat="49.38748" lon="1.45421">
        <ele>126.9</ele>
        <time>2014-06-22T08:17:03Z</time>
      </trkpt>
      <trkpt lat="49.38742" lon="1.45444">
        <ele>128.55</ele>
        <time>2014-06-22T08:17:10Z</time>
      </trkpt>
      <trkpt lat="49.38734" lon="1.45466">
        <ele>129.65</ele>
        <time>2014-06-22T08:17:16Z</time>
      </trkpt>
      <trkpt lat="49.38729" lon="1.45496">
        <ele>131.42</ele>
        <time>2014-06-22T08:17:23Z</time>
      </trkpt>
      <trkpt lat="49.38725" lon="1.45521">
        <ele>133.03</ele>
        <time>2014-06-22T08:17:29Z</time>
      </trkpt>
      <trkpt lat="49.38725" lon="1.45525">
        <ele>133.15</ele>
        <time>2014-06-22T08:17:30Z</time>
      </trkpt>
      <trkpt lat="49.3872" lon="1.45541">
        <ele>134.23</ele>
        <time>2014-06-22T08:17:34Z</time>
      </trkpt>
      <trkpt lat="49.38708" lon="1.45565">
        <ele>136</ele>
        <time>2014-06-22T08:17:41Z</time>
      </trkpt>
      <trkpt lat="49.38698" lon="1.45587">
        <ele>137.49</ele>
        <time>2014-06-22T08:17:48Z</time>
      </trkpt>
      <trkpt lat="49.38688" lon="1.45609">
        <ele>139</ele>
        <time>2014-06-22T08:17:55Z</time>
      </trkpt>
      <trkpt lat="49.38683" lon="1.45624">
        <ele>140.17</ele>
        <time>2014-06-22T08:18:00Z</time>
      </trkpt>
      <trkpt lat="49.38669" lon="1.45653">
        <ele>141.71</ele>
        <time>2014-06-22T08:18:09Z</time>
      </trkpt>
      <trkpt lat="49.38657" lon="1.4568">
        <ele>143.69</ele>
        <time>2014-06-22T08:18:18Z</time>
      </trkpt>
      <trkpt lat="49.38651" lon="1.45697">
        <ele>145.16</ele>
        <time>2014-06-22T08:18:25Z</time>
      </trkpt>
      <trkpt lat="49.38639" lon="1.45716">
        <ele>146.43</ele>
        <time>2014-06-22T08:18:32Z</time>
      </trkpt>
      <trkpt lat="49.38633" lon="1.45752">
        <ele>148.07</ele>
        <time>2014-06-22T08:18:40Z</time>
      </trkpt>
      <trkpt lat="49.38628" lon="1.45791">
        <ele>149.91</ele>
        <time>2014-06-22T08:18:49Z</time>
      </trkpt>
      <trkpt lat="49.38625" lon="1.45807">
        <ele>151.26</ele>
        <time>2014-06-22T08:18:53Z</time>
      </trkpt>
      <trkpt lat="49.38627" lon="1.45845">
        <ele>152.43</ele>
        <time>2014-06-22T08:19:02Z</time>
      </trkpt>
      <trkpt lat="49.38629" lon="1.4588">
        <ele>154.64</ele>
        <time>2014-06-22T08:19:11Z</time>
      </trkpt>
      <trkpt lat="49.38634" lon="1.4591">
        <ele>156.11</ele>
        <time>2014-06-22T08:19:19Z</time>
      </trkpt>
      <trkpt lat="49.38638" lon="1.45934">
        <ele>157.38</ele>
        <time>2014-06-22T08:19:26Z</time>
      </trkpt>
      <trkpt lat="49.38645" lon="1.45971">
        <ele>159.56</ele>
        <time>2014-06-22T08:19:35Z</time>
      </trkpt>
      <trkpt lat="49.38651" lon="1.45994">
        <ele>161.1</ele>
        <time>2014-06-22T08:19:41Z</time>
      </trkpt>
      <trkpt lat="49.3866" lon="1.46029">
        <ele>163.06</ele>
        <time>2014-06-22T08:19:50Z</time>
      </trkpt>
      <trkpt lat="49.38673" lon="1.46073">
        <ele>164.24</ele>
        <time>2014-06-22T08:19:58Z</time>
      </trkpt>
      <trkpt lat="49.38681" lon="1.46107">
        <ele>165.22</ele>
        <time>2014-06-22T08:20:05Z</time>
      </trkpt>
      <trkpt lat="49.3869" lon="1.46152">
        <ele>166.36</ele>
        <time>2014-06-22T08:20:12Z</time>
      </trkpt>
      <trkpt lat="49.38691" lon="1.46198">
        <ele>167.87</ele>
        <time>2014-06-22T08:20:20Z</time>
      </trkpt>
      <trkpt lat="49.38679" lon="1.46242">
        <ele>168.62</ele>
        <time>2014-06-22T08:20:29Z</time>
      </trkpt>
      <trkpt lat="49.38663" lon="1.46277">
        <ele>170.41</ele>
        <time>2014-06-22T08:20:37Z</time>
      </trkpt>
      <trkpt lat="49.3865" lon="1.46316">
        <ele>171.51</ele>
        <time>2014-06-22T08:20:45Z</time>
      </trkpt>
      <trkpt lat="49.38639" lon="1.46353">
        <ele>172.89</ele>
        <time>2014-06-22T08:20:53Z</time>
      </trkpt>
      <trkpt lat="49.38626" lon="1.4639">
        <ele>173.94</ele>
        <time>2014-06-22T08:21:01Z</time>
      </trkpt>
      <trkpt lat="49.38607" lon="1.4644">
        <ele>174.83</ele>
        <time>2014-06-22T08:21:09Z</time>
      </trkpt>
      <trkpt lat="49.38589" lon="1.46487">
        <ele>175.84</ele>
        <time>2014-06-22T08:21:16Z</time>
      </trkpt>
      <trkpt lat="49.38568" lon="1.4654">
        <ele>176.46</ele>
        <time>2014-06-22T08:21:24Z</time>
      </trkpt>
      <trkpt lat="49.38545" lon="1.46602">
        <ele>177.1</ele>
        <time>2014-06-22T08:21:33Z</time>
      </trkpt>
      <trkpt lat="49.38536" lon="1.46633">
        <ele>176.89</ele>
        <time>2014-06-22T08:21:37Z</time>
      </trkpt>
      <trkpt lat="49.38524" lon="1.46701">
        <ele>176.17</ele>
        <time>2014-06-22T08:21:45Z</time>
      </trkpt>
      <trkpt lat="49.38522" lon="1.46709">
        <ele>176.18</ele>
        <time>2014-06-22T08:21:46Z</time>
      </trkpt>
      <trkpt lat="49.38516" lon="1.46786">
        <ele>175.43</ele>
        <time>2014-06-22T08:21:55Z</time>
      </trkpt>
      <trkpt lat="49.38509" lon="1.46857">
        <ele>174.01</ele>
        <time>2014-06-22T08:22:03Z</time>
      </trkpt>
      <trkpt lat="49.38504" lon="1.46878">
        <ele>174.22</ele>
        <time>2014-06-22T08:22:07Z</time>
      </trkpt>
      <trkpt lat="49.38507" lon="1.46884">
        <ele>173.95</ele>
        <time>2014-06-22T08:22:14Z</time>
      </trkpt>
      <trkpt lat="49.38505" lon="1.46902">
        <ele>174.6</ele>
        <time>2014-06-22T08:22:21Z</time>
      </trkpt>
      <trkpt lat="49.38507" lon="1.46937">
        <ele>173.6</ele>
        <time>2014-06-22T08:22:28Z</time>
      </trkpt>
      <trkpt lat="49.38505" lon="1.46957">
        <ele>173.38</ele>
        <time>2014-06-22T08:22:32Z</time>
      </trkpt>
      <trkpt lat="49.38494" lon="1.46972">
        <ele>173.49</ele>
        <time>2014-06-22T08:22:36Z</time>
      </trkpt>
      <trkpt lat="49.38479" lon="1.46998">
        <ele>172.88</ele>
        <time>2014-06-22T08:22:40Z</time>
      </trkpt>
      <trkpt lat="49.38452" lon="1.47035">
        <ele>171.98</ele>
        <time>2014-06-22T08:22:47Z</time>
      </trkpt>
      <trkpt lat="49.38448" lon="1.47041">
        <ele>171.76</ele>
        <time>2014-06-22T08:22:48Z</time>
      </trkpt>
      <trkpt lat="49.38418" lon="1.47078">
        <ele>170.17</ele>
        <time>2014-06-22T08:22:55Z</time>
      </trkpt>
      <trkpt lat="49.38399" lon="1.47106">
        <ele>168.78</ele>
        <time>2014-06-22T08:23:01Z</time>
      </trkpt>
      <trkpt lat="49.38397" lon="1.4713">
        <ele>168.29</ele>
        <time>2014-06-22T08:23:06Z</time>
      </trkpt>
      <trkpt lat="49.38398" lon="1.47179">
        <ele>168.65</ele>
        <time>2014-06-22T08:23:14Z</time>
      </trkpt>
      <trkpt lat="49.38396" lon="1.47213">
        <ele>168.19</ele>
        <time>2014-06-22T08:23:19Z</time>
      </trkpt>
      <trkpt lat="49.38394" lon="1.47271">
        <ele>168.37</ele>
        <time>2014-06-22T08:23:26Z</time>
      </trkpt>
      <trkpt lat="49.38394" lon="1.47301">
        <ele>168.54</ele>
        <time>2014-06-22T08:23:31Z</time>
      </trkpt>
      <trkpt lat="49.38393" lon="1.47336">
        <ele>168.35</ele>
        <time>2014-06-22T08:23:36Z</time>
      </trkpt>
      <trkpt lat="49.38396" lon="1.47383">
        <ele>167.88</ele>
        <time>2014-06-22T08:23:43Z</time>
      </trkpt>
      <trkpt lat="49.38395" lon="1.47391">
        <ele>168.17</ele>
        <time>2014-06-22T08:23:44Z</time>
      </trkpt>
      <trkpt lat="49.38398" lon="1.47428">
        <ele>168.33</ele>
        <time>2014-06-22T08:23:49Z</time>
      </trkpt>
      <trkpt lat="49.38397" lon="1.47467">
        <ele>167.95</ele>
        <time>2014-06-22T08:23:55Z</time>
      </trkpt>
      <trkpt lat="49.38407" lon="1.47516">
        <ele>167.91</ele>
        <time>2014-06-22T08:24:02Z</time>
      </trkpt>
      <trkpt lat="49.38408" lon="1.47523">
        <ele>167.75</ele>
        <time>2014-06-22T08:24:03Z</time>
      </trkpt>
      <trkpt lat="49.38405" lon="1.47551">
        <ele>167.24</ele>
        <time>2014-06-22T08:24:07Z</time>
      </trkpt>
      <trkpt lat="49.38408" lon="1.47581">
        <ele>165.99</ele>
        <time>2014-06-22T08:24:13Z</time>
      </trkpt>
      <trkpt lat="49.38411" lon="1.47598">
        <ele>166.28</ele>
        <time>2014-06-22T08:24:20Z</time>
      </trkpt>
      <trkpt lat="49.38421" lon="1.47619">
        <ele>166.41</ele>
        <time>2014-06-22T08:24:27Z</time>
      </trkpt>
      <trkpt lat="49.38428" lon="1.47654">
        <ele>167.14</ele>
        <time>2014-06-22T08:24:35Z</time>
      </trkpt>
      <trkpt lat="49.38428" lon="1.47709">
        <ele>168.16</ele>
        <time>2014-06-22T08:24:44Z</time>
      </trkpt>
      <trkpt lat="49.38427" lon="1.47737">
        <ele>168.93</ele>
        <time>2014-06-22T08:24:50Z</time>
      </trkpt>
      <trkpt lat="49.38428" lon="1.47772">
        <ele>169.69</ele>
        <time>2014-06-22T08:24:57Z</time>
      </trkpt>
      <trkpt lat="49.38429" lon="1.47791">
        <ele>170.11</ele>
        <time>2014-06-22T08:25:00Z</time>
      </trkpt>
      <trkpt lat="49.38411" lon="1.47814">
        <ele>171.09</ele>
        <time>2014-06-22T08:25:05Z</time>
      </trkpt>
      <trkpt lat="49.38406" lon="1.47816">
        <ele>171.21</ele>
        <time>2014-06-22T08:25:06Z</time>
      </trkpt>
      <trkpt lat="49.38397" lon="1.47818">
        <ele>171.07</ele>
        <time>2014-06-22T08:25:08Z</time>
      </trkpt>
      <trkpt lat="49.38388" lon="1.47817">
        <ele>170.93</ele>
        <time>2014-06-22T08:25:10Z</time>
      </trkpt>
      <trkpt lat="49.38379" lon="1.47816">
        <ele>170.78</ele>
        <time>2014-06-22T08:25:12Z</time>
      </trkpt>
      <trkpt lat="49.38347" lon="1.4781">
        <ele>171.48</ele>
        <time>2014-06-22T08:25:19Z</time>
      </trkpt>
      <trkpt lat="49.38338" lon="1.4781">
        <ele>171.94</ele>
        <time>2014-06-22T08:25:21Z</time>
      </trkpt>
      <trkpt lat="49.38307" lon="1.4781">
        <ele>172.49</ele>
        <time>2014-06-22T08:25:28Z</time>
      </trkpt>
      <trkpt lat="49.3827" lon="1.47808">
        <ele>172.91</ele>
        <time>2014-06-22T08:25:36Z</time>
      </trkpt>
      <trkpt lat="49.38251" lon="1.47806">
        <ele>173.17</ele>
        <time>2014-06-22T08:25:40Z</time>
      </trkpt>
      <trkpt lat="49.38237" lon="1.47807">
        <ele>173.85</ele>
        <time>2014-06-22T08:25:43Z</time>
      </trkpt>
      <trkpt lat="49.38202" lon="1.47806">
        <ele>174.49</ele>
        <time>2014-06-22T08:25:51Z</time>
      </trkpt>
      <trkpt lat="49.38171" lon="1.47806">
        <ele>175.23</ele>
        <time>2014-06-22T08:25:58Z</time>
      </trkpt>
      <trkpt lat="49.38148" lon="1.47801">
        <ele>176.06</ele>
        <time>2014-06-22T08:26:04Z</time>
      </trkpt>
      <trkpt lat="49.38119" lon="1.478">
        <ele>176.75</ele>
        <time>2014-06-22T08:26:11Z</time>
      </trkpt>
      <trkpt lat="49.38081" lon="1.47796">
        <ele>177.59</ele>
        <time>2014-06-22T08:26:18Z</time>
      </trkpt>
      <trkpt lat="49.38049" lon="1.47799">
        <ele>178.56</ele>
        <time>2014-06-22T08:26:25Z</time>
      </trkpt>
      <trkpt lat="49.38045" lon="1.47799">
        <ele>178.43</ele>
        <time>2014-06-22T08:26:26Z</time>
      </trkpt>
      <trkpt lat="49.3803" lon="1.47801">
        <ele>178.63</ele>
        <time>2014-06-22T08:26:29Z</time>
      </trkpt>
      <trkpt lat="49.38005" lon="1.47802">
        <ele>178.31</ele>
        <time>2014-06-22T08:26:34Z</time>
      </trkpt>
      <trkpt lat="49.37984" lon="1.47805">
        <ele>177.78</ele>
        <time>2014-06-22T08:26:39Z</time>
      </trkpt>
      <trkpt lat="49.37975" lon="1.47823">
        <ele>177.8</ele>
        <time>2014-06-22T08:26:45Z</time>
      </trkpt>
      <trkpt lat="49.37967" lon="1.47858">
        <ele>177.73</ele>
        <time>2014-06-22T08:26:52Z</time>
      </trkpt>
      <trkpt lat="49.37971" lon="1.47902">
        <ele>178.16</ele>
        <time>2014-06-22T08:27:00Z</time>
      </trkpt>
      <trkpt lat="49.3797" lon="1.47925">
        <ele>178.27</ele>
        <time>2014-06-22T08:27:05Z</time>
      </trkpt>
      <trkpt lat="49.37972" lon="1.47948">
        <ele>178.59</ele>
        <time>2014-06-22T08:27:11Z</time>
      </trkpt>
      <trkpt lat="49.3798" lon="1.47966">
        <ele>178.21</ele>
        <time>2014-06-22T08:27:17Z</time>
      </trkpt>
      <trkpt lat="49.37983" lon="1.47972">
        <ele>179.17</ele>
        <time>2014-06-22T08:27:19Z</time>
      </trkpt>
      <trkpt lat="49.37983" lon="1.47999">
        <ele>178.96</ele>
        <time>2014-06-22T08:27:27Z</time>
      </trkpt>
      <trkpt lat="49.37989" lon="1.48023">
        <ele>178.65</ele>
        <time>2014-06-22T08:27:33Z</time>
      </trkpt>
      <trkpt lat="49.37993" lon="1.48049">
        <ele>178.55</ele>
        <time>2014-06-22T08:27:39Z</time>
      </trkpt>
      <trkpt lat="49.37996" lon="1.48067">
        <ele>178.27</ele>
        <time>2014-06-22T08:27:44Z</time>
      </trkpt>
      <trkpt lat="49.38015" lon="1.48081">
        <ele>178.16</ele>
        <time>2014-06-22T08:27:51Z</time>
      </trkpt>
      <trkpt lat="49.38021" lon="1.48104">
        <ele>178.28</ele>
        <time>2014-06-22T08:27:54Z</time>
      </trkpt>
      <trkpt lat="49.38027" lon="1.4815">
        <ele>178.19</ele>
        <time>2014-06-22T08:28:01Z</time>
      </trkpt>
      <trkpt lat="49.38029" lon="1.48157">
        <ele>177.99</ele>
        <time>2014-06-22T08:28:02Z</time>
      </trkpt>
      <trkpt lat="49.38036" lon="1.48206">
        <ele>177.79</ele>
        <time>2014-06-22T08:28:09Z</time>
      </trkpt>
      <trkpt lat="49.3804" lon="1.48249">
        <ele>177.9</ele>
        <time>2014-06-22T08:28:15Z</time>
      </trkpt>
      <trkpt lat="49.38046" lon="1.48278">
        <ele>178.15</ele>
        <time>2014-06-22T08:28:19Z</time>
      </trkpt>
      <trkpt lat="49.3805" lon="1.48309">
        <ele>178.23</ele>
        <time>2014-06-22T08:28:23Z</time>
      </trkpt>
      <trkpt lat="49.38059" lon="1.48368">
        <ele>177.04</ele>
        <time>2014-06-22T08:28:31Z</time>
      </trkpt>
      <trkpt lat="49.38067" lon="1.48394">
        <ele>177.37</ele>
        <time>2014-06-22T08:28:35Z</time>
      </trkpt>
      <trkpt lat="49.38075" lon="1.48432">
        <ele>176.69</ele>
        <time>2014-06-22T08:28:40Z</time>
      </trkpt>
      <trkpt lat="49.38082" lon="1.48452">
        <ele>176.49</ele>
        <time>2014-06-22T08:28:43Z</time>
      </trkpt>
      <trkpt lat="49.38097" lon="1.48514">
        <ele>176.73</ele>
        <time>2014-06-22T08:28:51Z</time>
      </trkpt>
      <trkpt lat="49.38099" lon="1.48536">
        <ele>176.22</ele>
        <time>2014-06-22T08:28:55Z</time>
      </trkpt>
      <trkpt lat="49.38096" lon="1.4859">
        <ele>176.15</ele>
        <time>2014-06-22T08:29:02Z</time>
      </trkpt>
      <trkpt lat="49.38101" lon="1.48612">
        <ele>176.44</ele>
        <time>2014-06-22T08:29:05Z</time>
      </trkpt>
      <trkpt lat="49.38105" lon="1.48639">
        <ele>176.38</ele>
        <time>2014-06-22T08:29:09Z</time>
      </trkpt>
      <trkpt lat="49.3812" lon="1.48679">
        <ele>175.06</ele>
        <time>2014-06-22T08:29:15Z</time>
      </trkpt>
      <trkpt lat="49.38124" lon="1.4871">
        <ele>175.02</ele>
        <time>2014-06-22T08:29:21Z</time>
      </trkpt>
      <trkpt lat="49.38121" lon="1.48736">
        <ele>175.95</ele>
        <time>2014-06-22T08:29:27Z</time>
      </trkpt>
      <trkpt lat="49.38121" lon="1.4874">
        <ele>176</ele>
        <time>2014-06-22T08:29:28Z</time>
      </trkpt>
      <trkpt lat="49.38129" lon="1.48773">
        <ele>175.41</ele>
        <time>2014-06-22T08:29:34Z</time>
      </trkpt>
      <trkpt lat="49.38133" lon="1.48791">
        <ele>175.85</ele>
        <time>2014-06-22T08:29:37Z</time>
      </trkpt>
      <trkpt lat="49.38143" lon="1.48838">
        <ele>175.11</ele>
        <time>2014-06-22T08:29:45Z</time>
      </trkpt>
      <trkpt lat="49.38152" lon="1.48864">
        <ele>174.58</ele>
        <time>2014-06-22T08:29:51Z</time>
      </trkpt>
      <trkpt lat="49.38146" lon="1.48883">
        <ele>174.75</ele>
        <time>2014-06-22T08:29:56Z</time>
      </trkpt>
      <trkpt lat="49.38122" lon="1.48922">
        <ele>175.29</ele>
        <time>2014-06-22T08:30:06Z</time>
      </trkpt>
      <trkpt lat="49.38109" lon="1.48943">
        <ele>175.8</ele>
        <time>2014-06-22T08:30:14Z</time>
      </trkpt>
      <trkpt lat="49.38096" lon="1.48965">
        <ele>175.93</ele>
        <time>2014-06-22T08:30:22Z</time>
      </trkpt>
      <trkpt lat="49.38085" lon="1.48987">
        <ele>176.11</ele>
        <time>2014-06-22T08:30:29Z</time>
      </trkpt>
      <trkpt lat="49.38066" lon="1.49015">
        <ele>176.21</ele>
        <time>2014-06-22T08:30:36Z</time>
      </trkpt>
      <trkpt lat="49.38054" lon="1.49046">
        <ele>175.81</ele>
        <time>2014-06-22T08:30:42Z</time>
      </trkpt>
      <trkpt lat="49.38036" lon="1.49098">
        <ele>175.42</ele>
        <time>2014-06-22T08:30:49Z</time>
      </trkpt>
      <trkpt lat="49.38024" lon="1.49153">
        <ele>174.68</ele>
        <time>2014-06-22T08:30:55Z</time>
      </trkpt>
      <trkpt lat="49.38017" lon="1.4918">
        <ele>174.19</ele>
        <time>2014-06-22T08:30:58Z</time>
      </trkpt>
      <trkpt lat="49.38013" lon="1.49198">
        <ele>173.88</ele>
        <time>2014-06-22T08:31:00Z</time>
      </trkpt>
      <trkpt lat="49.38006" lon="1.49226">
        <ele>172.94</ele>
        <time>2014-06-22T08:31:03Z</time>
      </trkpt>
      <trkpt lat="49.37998" lon="1.49256">
        <ele>171.68</ele>
        <time>2014-06-22T08:31:06Z</time>
      </trkpt>
      <trkpt lat="49.3798" lon="1.49318">
        <ele>169</ele>
        <time>2014-06-22T08:31:12Z</time>
      </trkpt>
      <trkpt lat="49.37961" lon="1.49402">
        <ele>168.09</ele>
        <time>2014-06-22T08:31:20Z</time>
      </trkpt>
      <trkpt lat="49.37955" lon="1.49421">
        <ele>167.6</ele>
        <time>2014-06-22T08:31:22Z</time>
      </trkpt>
      <trkpt lat="49.37944" lon="1.49461">
        <ele>166.36</ele>
        <time>2014-06-22T08:31:26Z</time>
      </trkpt>
      <trkpt lat="49.37925" lon="1.49479">
        <ele>165.37</ele>
        <time>2014-06-22T08:31:31Z</time>
      </trkpt>
      <trkpt lat="49.37913" lon="1.49477">
        <ele>164.68</ele>
        <time>2014-06-22T08:31:33Z</time>
      </trkpt>
      <trkpt lat="49.37894" lon="1.49472">
        <ele>164.08</ele>
        <time>2014-06-22T08:31:36Z</time>
      </trkpt>
      <trkpt lat="49.37852" lon="1.49471">
        <ele>162.31</ele>
        <time>2014-06-22T08:31:41Z</time>
      </trkpt>
      <trkpt lat="49.37834" lon="1.49474">
        <ele>161.2</ele>
        <time>2014-06-22T08:31:43Z</time>
      </trkpt>
      <trkpt lat="49.37782" lon="1.4949">
        <ele>158.36</ele>
        <time>2014-06-22T08:31:49Z</time>
      </trkpt>
      <trkpt lat="49.37744" lon="1.49502">
        <ele>155.87</ele>
        <time>2014-06-22T08:31:53Z</time>
      </trkpt>
      <trkpt lat="49.37735" lon="1.49504">
        <ele>155.37</ele>
        <time>2014-06-22T08:31:54Z</time>
      </trkpt>
      <trkpt lat="49.37701" lon="1.49514">
        <ele>151.3</ele>
        <time>2014-06-22T08:31:59Z</time>
      </trkpt>
      <trkpt lat="49.3769" lon="1.49518">
        <ele>150.66</ele>
        <time>2014-06-22T08:32:01Z</time>
      </trkpt>
      <trkpt lat="49.37651" lon="1.49516">
        <ele>146.07</ele>
        <time>2014-06-22T08:32:07Z</time>
      </trkpt>
      <trkpt lat="49.37634" lon="1.49513">
        <ele>143.98</ele>
        <time>2014-06-22T08:32:10Z</time>
      </trkpt>
      <trkpt lat="49.3761" lon="1.4952">
        <ele>140.04</ele>
        <time>2014-06-22T08:32:14Z</time>
      </trkpt>
      <trkpt lat="49.37593" lon="1.49526">
        <ele>137.4</ele>
        <time>2014-06-22T08:32:17Z</time>
      </trkpt>
      <trkpt lat="49.37579" lon="1.4953">
        <ele>136.41</ele>
        <time>2014-06-22T08:32:19Z</time>
      </trkpt>
      <trkpt lat="49.37548" lon="1.49552">
        <ele>132.59</ele>
        <time>2014-06-22T08:32:24Z</time>
      </trkpt>
      <trkpt lat="49.37516" lon="1.49578">
        <ele>129.22</ele>
        <time>2014-06-22T08:32:29Z</time>
      </trkpt>
      <trkpt lat="49.37492" lon="1.49596">
        <ele>126.38</ele>
        <time>2014-06-22T08:32:33Z</time>
      </trkpt>
      <trkpt lat="49.37465" lon="1.49617">
        <ele>123.39</ele>
        <time>2014-06-22T08:32:37Z</time>
      </trkpt>
      <trkpt lat="49.3745" lon="1.49627">
        <ele>121.05</ele>
        <time>2014-06-22T08:32:39Z</time>
      </trkpt>
      <trkpt lat="49.3742" lon="1.49658">
        <ele>117.38</ele>
        <time>2014-06-22T08:32:44Z</time>
      </trkpt>
      <trkpt lat="49.37407" lon="1.49678">
        <ele>114.23</ele>
        <time>2014-06-22T08:32:47Z</time>
      </trkpt>
      <trkpt lat="49.37398" lon="1.49691">
        <ele>113.5</ele>
        <time>2014-06-22T08:32:49Z</time>
      </trkpt>
      <trkpt lat="49.37378" lon="1.4972">
        <ele>109.91</ele>
        <time>2014-06-22T08:32:53Z</time>
      </trkpt>
      <trkpt lat="49.37356" lon="1.49749">
        <ele>106.29</ele>
        <time>2014-06-22T08:32:57Z</time>
      </trkpt>
      <trkpt lat="49.37341" lon="1.49761">
        <ele>104.53</ele>
        <time>2014-06-22T08:33:00Z</time>
      </trkpt>
      <trkpt lat="49.37326" lon="1.4976">
        <ele>101.52</ele>
        <time>2014-06-22T08:33:05Z</time>
      </trkpt>
      <trkpt lat="49.3732" lon="1.4975">
        <ele>100.28</ele>
        <time>2014-06-22T08:33:07Z</time>
      </trkpt>
      <trkpt lat="49.37312" lon="1.49737">
        <ele>99.82</ele>
        <time>2014-06-22T08:33:09Z</time>
      </trkpt>
      <trkpt lat="49.37305" lon="1.49711">
        <ele>97.91</ele>
        <time>2014-06-22T08:33:14Z</time>
      </trkpt>
      <trkpt lat="49.37304" lon="1.497">
        <ele>97.18</ele>
        <time>2014-06-22T08:33:16Z</time>
      </trkpt>
      <trkpt lat="49.373" lon="1.49686">
        <ele>94.9</ele>
        <time>2014-06-22T08:33:20Z</time>
      </trkpt>
      <trkpt lat="49.37304" lon="1.49681">
        <ele>94.02</ele>
        <time>2014-06-22T08:33:24Z</time>
      </trkpt>
      <trkpt lat="49.37307" lon="1.49688">
        <ele>95.48</ele>
        <time>2014-06-22T08:33:38Z</time>
      </trkpt>
      <trkpt lat="49.37311" lon="1.49687">
        <ele>95.52</ele>
        <time>2014-06-22T08:33:52Z</time>
      </trkpt>
      <trkpt lat="49.3731" lon="1.49685">
        <ele>96.26</ele>
        <time>2014-06-22T08:34:10Z</time>
      </trkpt>
      <trkpt lat="49.37307" lon="1.4968">
        <ele>93.95</ele>
        <time>2014-06-22T08:34:24Z</time>
      </trkpt>
      <trkpt lat="49.37305" lon="1.49677">
        <ele>95.28</ele>
        <time>2014-06-22T08:34:36Z</time>
      </trkpt>
      <trkpt lat="49.37304" lon="1.49676">
        <ele>93.92</ele>
        <time>2014-06-22T08:34:56Z</time>
      </trkpt>
      <trkpt lat="49.37305" lon="1.49674">
        <ele>93.75</ele>
        <time>2014-06-22T08:35:06Z</time>
      </trkpt>
      <trkpt lat="49.37306" lon="1.49674">
        <ele>94.99</ele>
        <time>2014-06-22T08:35:24Z</time>
      </trkpt>
      <trkpt lat="49.37306" lon="1.49669">
        <ele>93.95</ele>
        <time>2014-06-22T08:35:38Z</time>
      </trkpt>
      <trkpt lat="49.37299" lon="1.49663">
        <ele>93.88</ele>
        <time>2014-06-22T08:35:51Z</time>
      </trkpt>
      <trkpt lat="49.37297" lon="1.49661">
        <ele>94.99</ele>
        <time>2014-06-22T08:36:02Z</time>
      </trkpt>
      <trkpt lat="49.37302" lon="1.49664">
        <ele>94.34</ele>
        <time>2014-06-22T08:36:13Z</time>
      </trkpt>
      <trkpt lat="49.37307" lon="1.49663">
        <ele>93.96</ele>
        <time>2014-06-22T08:36:29Z</time>
      </trkpt>
      <trkpt lat="49.3731" lon="1.49663">
        <ele>93.95</ele>
        <time>2014-06-22T08:36:47Z</time>
      </trkpt>
      <trkpt lat="49.37314" lon="1.49666">
        <ele>93.92</ele>
        <time>2014-06-22T08:37:07Z</time>
      </trkpt>
      <trkpt lat="49.37316" lon="1.49668">
        <ele>93.87</ele>
        <time>2014-06-22T08:37:24Z</time>
      </trkpt>
      <trkpt lat="49.37317" lon="1.49667">
        <ele>93.75</ele>
        <time>2014-06-22T08:37:44Z</time>
      </trkpt>
      <trkpt lat="49.37317" lon="1.49668">
        <ele>93.83</ele>
        <time>2014-06-22T08:38:02Z</time>
      </trkpt>
      <trkpt lat="49.37315" lon="1.49663">
        <ele>93.87</ele>
        <time>2014-06-22T08:38:21Z</time>
      </trkpt>
      <trkpt lat="49.37313" lon="1.49659">
        <ele>94.18</ele>
        <time>2014-06-22T08:38:37Z</time>
      </trkpt>
      <trkpt lat="49.37315" lon="1.49662">
        <ele>93.97</ele>
        <time>2014-06-22T08:38:56Z</time>
      </trkpt>
      <trkpt lat="49.37309" lon="1.49665">
        <ele>94.03</ele>
        <time>2014-06-22T08:39:12Z</time>
      </trkpt>
      <trkpt lat="49.3731" lon="1.49665">
        <ele>93.98</ele>
        <time>2014-06-22T08:39:26Z</time>
      </trkpt>
      <trkpt lat="49.37311" lon="1.49671">
        <ele>94.18</ele>
        <time>2014-06-22T08:39:38Z</time>
      </trkpt>
      <trkpt lat="49.37305" lon="1.49677">
        <ele>94.2</ele>
        <time>2014-06-22T08:39:50Z</time>
      </trkpt>
      <trkpt lat="49.37287" lon="1.49689">
        <ele>94.78</ele>
        <time>2014-06-22T08:39:58Z</time>
      </trkpt>
      <trkpt lat="49.3728" lon="1.497">
        <ele>96.45</ele>
        <time>2014-06-22T08:40:02Z</time>
      </trkpt>
      <trkpt lat="49.37265" lon="1.49727">
        <ele>96.5</ele>
        <time>2014-06-22T08:40:10Z</time>
      </trkpt>
      <trkpt lat="49.3725" lon="1.49757">
        <ele>96.29</ele>
        <time>2014-06-22T08:40:18Z</time>
      </trkpt>
      <trkpt lat="49.37243" lon="1.49788">
        <ele>96.64</ele>
        <time>2014-06-22T08:40:25Z</time>
      </trkpt>
      <trkpt lat="49.3725" lon="1.49814">
        <ele>96.6</ele>
        <time>2014-06-22T08:40:31Z</time>
      </trkpt>
      <trkpt lat="49.37248" lon="1.49855">
        <ele>96.38</ele>
        <time>2014-06-22T08:40:38Z</time>
      </trkpt>
      <trkpt lat="49.37247" lon="1.49884">
        <ele>96.41</ele>
        <time>2014-06-22T08:40:42Z</time>
      </trkpt>
      <trkpt lat="49.37245" lon="1.49943">
        <ele>96.74</ele>
        <time>2014-06-22T08:40:50Z</time>
      </trkpt>
      <trkpt lat="49.37245" lon="1.49951">
        <ele>96.68</ele>
        <time>2014-06-22T08:40:51Z</time>
      </trkpt>
      <trkpt lat="49.37251" lon="1.50001">
        <ele>96.72</ele>
        <time>2014-06-22T08:40:58Z</time>
      </trkpt>
      <trkpt lat="49.37258" lon="1.50022">
        <ele>96.74</ele>
        <time>2014-06-22T08:41:01Z</time>
      </trkpt>
      <trkpt lat="49.3727" lon="1.50076">
        <ele>96.86</ele>
        <time>2014-06-22T08:41:08Z</time>
      </trkpt>
      <trkpt lat="49.37274" lon="1.50091">
        <ele>96.96</ele>
        <time>2014-06-22T08:41:10Z</time>
      </trkpt>
      <trkpt lat="49.37285" lon="1.50119">
        <ele>97.31</ele>
        <time>2014-06-22T08:41:14Z</time>
      </trkpt>
      <trkpt lat="49.37299" lon="1.50163">
        <ele>97.8</ele>
        <time>2014-06-22T08:41:20Z</time>
      </trkpt>
      <trkpt lat="49.37326" lon="1.5022">
        <ele>98.21</ele>
        <time>2014-06-22T08:41:29Z</time>
      </trkpt>
      <trkpt lat="49.37337" lon="1.50238">
        <ele>98.33</ele>
        <time>2014-06-22T08:41:32Z</time>
      </trkpt>
      <trkpt lat="49.37346" lon="1.50257">
        <ele>98.32</ele>
        <time>2014-06-22T08:41:35Z</time>
      </trkpt>
      <trkpt lat="49.37355" lon="1.5029">
        <ele>98.01</ele>
        <time>2014-06-22T08:41:42Z</time>
      </trkpt>
      <trkpt lat="49.37356" lon="1.50299">
        <ele>98.04</ele>
        <time>2014-06-22T08:41:45Z</time>
      </trkpt>
      <trkpt lat="49.37361" lon="1.50322">
        <ele>98.27</ele>
        <time>2014-06-22T08:41:52Z</time>
      </trkpt>
      <trkpt lat="49.37363" lon="1.50366">
        <ele>98.47</ele>
        <time>2014-06-22T08:41:59Z</time>
      </trkpt>
      <trkpt lat="49.3737" lon="1.504">
        <ele>98.68</ele>
        <time>2014-06-22T08:42:04Z</time>
      </trkpt>
      <trkpt lat="49.37374" lon="1.50422">
        <ele>98.66</ele>
        <time>2014-06-22T08:42:07Z</time>
      </trkpt>
      <trkpt lat="49.37372" lon="1.50458">
        <ele>99.01</ele>
        <time>2014-06-22T08:42:11Z</time>
      </trkpt>
      <trkpt lat="49.37372" lon="1.50513">
        <ele>99.02</ele>
        <time>2014-06-22T08:42:17Z</time>
      </trkpt>
      <trkpt lat="49.37379" lon="1.50576">
        <ele>99.29</ele>
        <time>2014-06-22T08:42:25Z</time>
      </trkpt>
      <trkpt lat="49.37389" lon="1.50638">
        <ele>100.16</ele>
        <time>2014-06-22T08:42:33Z</time>
      </trkpt>
      <trkpt lat="49.37401" lon="1.50694">
        <ele>100.58</ele>
        <time>2014-06-22T08:42:41Z</time>
      </trkpt>
      <trkpt lat="49.37406" lon="1.50746">
        <ele>100.64</ele>
        <time>2014-06-22T08:42:48Z</time>
      </trkpt>
      <trkpt lat="49.37403" lon="1.50775">
        <ele>101.11</ele>
        <time>2014-06-22T08:42:52Z</time>
      </trkpt>
      <trkpt lat="49.37408" lon="1.50814">
        <ele>101.33</ele>
        <time>2014-06-22T08:42:57Z</time>
      </trkpt>
      <trkpt lat="49.3742" lon="1.50833">
        <ele>101.53</ele>
        <time>2014-06-22T08:43:01Z</time>
      </trkpt>
      <trkpt lat="49.37434" lon="1.50836">
        <ele>101.67</ele>
        <time>2014-06-22T08:43:04Z</time>
      </trkpt>
      <trkpt lat="49.37459" lon="1.50832">
        <ele>102.29</ele>
        <time>2014-06-22T08:43:11Z</time>
      </trkpt>
      <trkpt lat="49.3749" lon="1.5083">
        <ele>103.03</ele>
        <time>2014-06-22T08:43:18Z</time>
      </trkpt>
      <trkpt lat="49.37528" lon="1.50835">
        <ele>103.83</ele>
        <time>2014-06-22T08:43:27Z</time>
      </trkpt>
      <trkpt lat="49.37558" lon="1.50853">
        <ele>104.23</ele>
        <time>2014-06-22T08:43:34Z</time>
      </trkpt>
      <trkpt lat="49.3756" lon="1.50862">
        <ele>104.47</ele>
        <time>2014-06-22T08:43:36Z</time>
      </trkpt>
      <trkpt lat="49.37548" lon="1.50884">
        <ele>104.87</ele>
        <time>2014-06-22T08:43:42Z</time>
      </trkpt>
      <trkpt lat="49.37526" lon="1.50899">
        <ele>105.72</ele>
        <time>2014-06-22T08:43:48Z</time>
      </trkpt>
      <trkpt lat="49.37501" lon="1.50919">
        <ele>106.98</ele>
        <time>2014-06-22T08:43:55Z</time>
      </trkpt>
      <trkpt lat="49.37473" lon="1.50933">
        <ele>108.44</ele>
        <time>2014-06-22T08:44:03Z</time>
      </trkpt>
      <trkpt lat="49.37449" lon="1.50938">
        <ele>109.82</ele>
        <time>2014-06-22T08:44:11Z</time>
      </trkpt>
      <trkpt lat="49.37431" lon="1.50938">
        <ele>111.34</ele>
        <time>2014-06-22T08:44:17Z</time>
      </trkpt>
      <trkpt lat="49.37413" lon="1.5094">
        <ele>112.46</ele>
        <time>2014-06-22T08:44:23Z</time>
      </trkpt>
      <trkpt lat="49.3739" lon="1.50939">
        <ele>114.04</ele>
        <time>2014-06-22T08:44:31Z</time>
      </trkpt>
      <trkpt lat="49.37372" lon="1.5093">
        <ele>115.73</ele>
        <time>2014-06-22T08:44:38Z</time>
      </trkpt>
      <trkpt lat="49.37354" lon="1.50908">
        <ele>117.13</ele>
        <time>2014-06-22T08:44:45Z</time>
      </trkpt>
      <trkpt lat="49.37336" lon="1.50874">
        <ele>118.57</ele>
        <time>2014-06-22T08:44:53Z</time>
      </trkpt>
      <trkpt lat="49.37313" lon="1.50836">
        <ele>120.43</ele>
        <time>2014-06-22T08:45:02Z</time>
      </trkpt>
      <trkpt lat="49.37302" lon="1.50807">
        <ele>121.73</ele>
        <time>2014-06-22T08:45:09Z</time>
      </trkpt>
      <trkpt lat="49.37285" lon="1.50774">
        <ele>123.18</ele>
        <time>2014-06-22T08:45:17Z</time>
      </trkpt>
      <trkpt lat="49.37268" lon="1.50749">
        <ele>124.83</ele>
        <time>2014-06-22T08:45:24Z</time>
      </trkpt>
      <trkpt lat="49.37259" lon="1.50732">
        <ele>125.93</ele>
        <time>2014-06-22T08:45:29Z</time>
      </trkpt>
      <trkpt lat="49.37245" lon="1.50718">
        <ele>127.55</ele>
        <time>2014-06-22T08:45:36Z</time>
      </trkpt>
      <trkpt lat="49.37227" lon="1.50708">
        <ele>129.12</ele>
        <time>2014-06-22T08:45:44Z</time>
      </trkpt>
      <trkpt lat="49.37204" lon="1.50705">
        <ele>130.73</ele>
        <time>2014-06-22T08:45:51Z</time>
      </trkpt>
      <trkpt lat="49.37184" lon="1.50709">
        <ele>131.72</ele>
        <time>2014-06-22T08:45:57Z</time>
      </trkpt>
      <trkpt lat="49.3717" lon="1.50716">
        <ele>132.83</ele>
        <time>2014-06-22T08:46:03Z</time>
      </trkpt>
      <trkpt lat="49.37163" lon="1.50717">
        <ele>133.2</ele>
        <time>2014-06-22T08:46:05Z</time>
      </trkpt>
      <trkpt lat="49.37141" lon="1.50693">
        <ele>134.53</ele>
        <time>2014-06-22T08:46:12Z</time>
      </trkpt>
      <trkpt lat="49.37127" lon="1.5066">
        <ele>135.43</ele>
        <time>2014-06-22T08:46:19Z</time>
      </trkpt>
      <trkpt lat="49.37119" lon="1.50633">
        <ele>136.7</ele>
        <time>2014-06-22T08:46:25Z</time>
      </trkpt>
      <trkpt lat="49.3711" lon="1.50599">
        <ele>138.13</ele>
        <time>2014-06-22T08:46:32Z</time>
      </trkpt>
      <trkpt lat="49.37106" lon="1.50558">
        <ele>139.87</ele>
        <time>2014-06-22T08:46:40Z</time>
      </trkpt>
      <trkpt lat="49.37096" lon="1.50519">
        <ele>141.45</ele>
        <time>2014-06-22T08:46:48Z</time>
      </trkpt>
      <trkpt lat="49.37087" lon="1.5048">
        <ele>143.13</ele>
        <time>2014-06-22T08:46:56Z</time>
      </trkpt>
      <trkpt lat="49.37073" lon="1.50444">
        <ele>144.9</ele>
        <time>2014-06-22T08:47:04Z</time>
      </trkpt>
      <trkpt lat="49.37064" lon="1.504">
        <ele>146.76</ele>
        <time>2014-06-22T08:47:13Z</time>
      </trkpt>
      <trkpt lat="49.37057" lon="1.5037">
        <ele>148.13</ele>
        <time>2014-06-22T08:47:19Z</time>
      </trkpt>
      <trkpt lat="49.37046" lon="1.50338">
        <ele>149.75</ele>
        <time>2014-06-22T08:47:26Z</time>
      </trkpt>
      <trkpt lat="49.37037" lon="1.50312">
        <ele>151.02</ele>
        <time>2014-06-22T08:47:32Z</time>
      </trkpt>
      <trkpt lat="49.37026" lon="1.50275">
        <ele>152.52</ele>
        <time>2014-06-22T08:47:39Z</time>
      </trkpt>
      <trkpt lat="49.37018" lon="1.50244">
        <ele>154.09</ele>
        <time>2014-06-22T08:47:46Z</time>
      </trkpt>
      <trkpt lat="49.37014" lon="1.50216">
        <ele>155.56</ele>
        <time>2014-06-22T08:47:52Z</time>
      </trkpt>
      <trkpt lat="49.37006" lon="1.50191">
        <ele>156.81</ele>
        <time>2014-06-22T08:47:57Z</time>
      </trkpt>
      <trkpt lat="49.36997" lon="1.50161">
        <ele>158.08</ele>
        <time>2014-06-22T08:48:04Z</time>
      </trkpt>
      <trkpt lat="49.36994" lon="1.50128">
        <ele>159.55</ele>
        <time>2014-06-22T08:48:12Z</time>
      </trkpt>
      <trkpt lat="49.36978" lon="1.5009">
        <ele>161.01</ele>
        <time>2014-06-22T08:48:18Z</time>
      </trkpt>
      <trkpt lat="49.36962" lon="1.50049">
        <ele>162.48</ele>
        <time>2014-06-22T08:48:25Z</time>
      </trkpt>
      <trkpt lat="49.36952" lon="1.50015">
        <ele>163.85</ele>
        <time>2014-06-22T08:48:32Z</time>
      </trkpt>
      <trkpt lat="49.36943" lon="1.49989">
        <ele>165.5</ele>
        <time>2014-06-22T08:48:38Z</time>
      </trkpt>
      <trkpt lat="49.36929" lon="1.49965">
        <ele>166.78</ele>
        <time>2014-06-22T08:48:44Z</time>
      </trkpt>
      <trkpt lat="49.36908" lon="1.49954">
        <ele>168.77</ele>
        <time>2014-06-22T08:48:52Z</time>
      </trkpt>
      <trkpt lat="49.36885" lon="1.49955">
        <ele>171.02</ele>
        <time>2014-06-22T08:48:59Z</time>
      </trkpt>
      <trkpt lat="49.36863" lon="1.49958">
        <ele>172.43</ele>
        <time>2014-06-22T08:49:06Z</time>
      </trkpt>
      <trkpt lat="49.36843" lon="1.49962">
        <ele>173.5</ele>
        <time>2014-06-22T08:49:12Z</time>
      </trkpt>
      <trkpt lat="49.36825" lon="1.49957">
        <ele>174.56</ele>
        <time>2014-06-22T08:49:18Z</time>
      </trkpt>
      <trkpt lat="49.36808" lon="1.49925">
        <ele>174.87</ele>
        <time>2014-06-22T08:49:27Z</time>
      </trkpt>
      <trkpt lat="49.36795" lon="1.49909">
        <ele>174.16</ele>
        <time>2014-06-22T08:49:33Z</time>
      </trkpt>
      <trkpt lat="49.36784" lon="1.49896">
        <ele>174.89</ele>
        <time>2014-06-22T08:49:40Z</time>
      </trkpt>
      <trkpt lat="49.36783" lon="1.49893">
        <ele>174.79</ele>
        <time>2014-06-22T08:49:45Z</time>
      </trkpt>
      <trkpt lat="49.36774" lon="1.49879">
        <ele>175.41</ele>
        <time>2014-06-22T08:49:52Z</time>
      </trkpt>
      <trkpt lat="49.36763" lon="1.49862">
        <ele>175.31</ele>
        <time>2014-06-22T08:49:58Z</time>
      </trkpt>
      <trkpt lat="49.36757" lon="1.49852">
        <ele>175.05</ele>
        <time>2014-06-22T08:50:03Z</time>
      </trkpt>
      <trkpt lat="49.36756" lon="1.49846">
        <ele>174.91</ele>
        <time>2014-06-22T08:50:08Z</time>
      </trkpt>
      <trkpt lat="49.36757" lon="1.49849">
        <ele>175.07</ele>
        <time>2014-06-22T08:50:21Z</time>
      </trkpt>
      <trkpt lat="49.36758" lon="1.49852">
        <ele>175.24</ele>
        <time>2014-06-22T08:50:24Z</time>
      </trkpt>
      <trkpt lat="49.36766" lon="1.49865">
        <ele>175.62</ele>
        <time>2014-06-22T08:50:29Z</time>
      </trkpt>
      <trkpt lat="49.36782" lon="1.49892">
        <ele>175</ele>
        <time>2014-06-22T08:50:37Z</time>
      </trkpt>
      <trkpt lat="49.36794" lon="1.49906">
        <ele>174.69</ele>
        <time>2014-06-22T08:50:43Z</time>
      </trkpt>
      <trkpt lat="49.36805" lon="1.49922">
        <ele>175.16</ele>
        <time>2014-06-22T08:50:49Z</time>
      </trkpt>
      <trkpt lat="49.36816" lon="1.49951">
        <ele>174.76</ele>
        <time>2014-06-22T08:50:56Z</time>
      </trkpt>
      <trkpt lat="49.3682" lon="1.49966">
        <ele>174.53</ele>
        <time>2014-06-22T08:50:59Z</time>
      </trkpt>
      <trkpt lat="49.36809" lon="1.49977">
        <ele>174.89</ele>
        <time>2014-06-22T08:51:03Z</time>
      </trkpt>
      <trkpt lat="49.3677" lon="1.49995">
        <ele>176.2</ele>
        <time>2014-06-22T08:51:12Z</time>
      </trkpt>
      <trkpt lat="49.36736" lon="1.50007">
        <ele>176.76</ele>
        <time>2014-06-22T08:51:19Z</time>
      </trkpt>
      <trkpt lat="49.36725" lon="1.50011">
        <ele>176.68</ele>
        <time>2014-06-22T08:51:21Z</time>
      </trkpt>
      <trkpt lat="49.36681" lon="1.50027">
        <ele>176.73</ele>
        <time>2014-06-22T08:51:29Z</time>
      </trkpt>
      <trkpt lat="49.36628" lon="1.50044">
        <ele>175.78</ele>
        <time>2014-06-22T08:51:37Z</time>
      </trkpt>
      <trkpt lat="49.3657" lon="1.50063">
        <ele>174.52</ele>
        <time>2014-06-22T08:51:45Z</time>
      </trkpt>
      <trkpt lat="49.36516" lon="1.50081">
        <ele>172.83</ele>
        <time>2014-06-22T08:51:53Z</time>
      </trkpt>
      <trkpt lat="49.36503" lon="1.50085">
        <ele>171.81</ele>
        <time>2014-06-22T08:51:55Z</time>
      </trkpt>
      <trkpt lat="49.3649" lon="1.50087">
        <ele>170.86</ele>
        <time>2014-06-22T08:51:57Z</time>
      </trkpt>
      <trkpt lat="49.36463" lon="1.50071">
        <ele>169.54</ele>
        <time>2014-06-22T08:52:02Z</time>
      </trkpt>
      <trkpt lat="49.36453" lon="1.50054">
        <ele>169.09</ele>
        <time>2014-06-22T08:52:04Z</time>
      </trkpt>
      <trkpt lat="49.36414" lon="1.49984">
        <ele>167.62</ele>
        <time>2014-06-22T08:52:11Z</time>
      </trkpt>
      <trkpt lat="49.36377" lon="1.49922">
        <ele>164.75</ele>
        <time>2014-06-22T08:52:17Z</time>
      </trkpt>
      <trkpt lat="49.36366" lon="1.49864">
        <ele>162.96</ele>
        <time>2014-06-22T08:52:22Z</time>
      </trkpt>
      <trkpt lat="49.36377" lon="1.49799">
        <ele>163.69</ele>
        <time>2014-06-22T08:52:28Z</time>
      </trkpt>
      <trkpt lat="49.3639" lon="1.49718">
        <ele>163.78</ele>
        <time>2014-06-22T08:52:36Z</time>
      </trkpt>
      <trkpt lat="49.364" lon="1.49651">
        <ele>164.53</ele>
        <time>2014-06-22T08:52:43Z</time>
      </trkpt>
      <trkpt lat="49.36409" lon="1.49587">
        <ele>163.99</ele>
        <time>2014-06-22T08:52:50Z</time>
      </trkpt>
      <trkpt lat="49.36421" lon="1.495">
        <ele>164.58</ele>
        <time>2014-06-22T08:52:59Z</time>
      </trkpt>
      <trkpt lat="49.36426" lon="1.49483">
        <ele>163.99</ele>
        <time>2014-06-22T08:53:01Z</time>
      </trkpt>
      <trkpt lat="49.36437" lon="1.49428">
        <ele>164.23</ele>
        <time>2014-06-22T08:53:07Z</time>
      </trkpt>
      <trkpt lat="49.36439" lon="1.4942">
        <ele>164.2</ele>
        <time>2014-06-22T08:53:08Z</time>
      </trkpt>
      <trkpt lat="49.36448" lon="1.4934">
        <ele>163.7</ele>
        <time>2014-06-22T08:53:16Z</time>
      </trkpt>
      <trkpt lat="49.36454" lon="1.49298">
        <ele>162.58</ele>
        <time>2014-06-22T08:53:20Z</time>
      </trkpt>
      <trkpt lat="49.36471" lon="1.49207">
        <ele>160.54</ele>
        <time>2014-06-22T08:53:28Z</time>
      </trkpt>
      <trkpt lat="49.36481" lon="1.49126">
        <ele>160.52</ele>
        <time>2014-06-22T08:53:36Z</time>
      </trkpt>
      <trkpt lat="49.36485" lon="1.49077">
        <ele>160.6</ele>
        <time>2014-06-22T08:53:41Z</time>
      </trkpt>
      <trkpt lat="49.36486" lon="1.49058">
        <ele>160.44</ele>
        <time>2014-06-22T08:53:43Z</time>
      </trkpt>
      <trkpt lat="49.36496" lon="1.48994">
        <ele>159.66</ele>
        <time>2014-06-22T08:53:50Z</time>
      </trkpt>
      <trkpt lat="49.3651" lon="1.48916">
        <ele>158.29</ele>
        <time>2014-06-22T08:53:58Z</time>
      </trkpt>
      <trkpt lat="49.36522" lon="1.48828">
        <ele>158.31</ele>
        <time>2014-06-22T08:54:07Z</time>
      </trkpt>
      <trkpt lat="49.36535" lon="1.48757">
        <ele>158.37</ele>
        <time>2014-06-22T08:54:15Z</time>
      </trkpt>
      <trkpt lat="49.36546" lon="1.48692">
        <ele>157.93</ele>
        <time>2014-06-22T08:54:23Z</time>
      </trkpt>
      <trkpt lat="49.36547" lon="1.48676">
        <ele>157.77</ele>
        <time>2014-06-22T08:54:25Z</time>
      </trkpt>
      <trkpt lat="49.36544" lon="1.48653">
        <ele>157.76</ele>
        <time>2014-06-22T08:54:28Z</time>
      </trkpt>
      <trkpt lat="49.36541" lon="1.48571">
        <ele>157.06</ele>
        <time>2014-06-22T08:54:37Z</time>
      </trkpt>
      <trkpt lat="49.36542" lon="1.48519">
        <ele>156.69</ele>
        <time>2014-06-22T08:54:42Z</time>
      </trkpt>
      <trkpt lat="49.36536" lon="1.48424">
        <ele>155.21</ele>
        <time>2014-06-22T08:54:51Z</time>
      </trkpt>
      <trkpt lat="49.36531" lon="1.48328">
        <ele>153.14</ele>
        <time>2014-06-22T08:54:59Z</time>
      </trkpt>
      <trkpt lat="49.36531" lon="1.48273">
        <ele>151.51</ele>
        <time>2014-06-22T08:55:04Z</time>
      </trkpt>
      <trkpt lat="49.3653" lon="1.48169">
        <ele>148.42</ele>
        <time>2014-06-22T08:55:13Z</time>
      </trkpt>
      <trkpt lat="49.36532" lon="1.48095">
        <ele>144.82</ele>
        <time>2014-06-22T08:55:19Z</time>
      </trkpt>
      <trkpt lat="49.36533" lon="1.48028">
        <ele>141.29</ele>
        <time>2014-06-22T08:55:24Z</time>
      </trkpt>
      <trkpt lat="49.36535" lon="1.47989">
        <ele>137.97</ele>
        <time>2014-06-22T08:55:27Z</time>
      </trkpt>
      <trkpt lat="49.36534" lon="1.47976">
        <ele>137.07</ele>
        <time>2014-06-22T08:55:28Z</time>
      </trkpt>
      <trkpt lat="49.36529" lon="1.47922">
        <ele>132.59</ele>
        <time>2014-06-22T08:55:33Z</time>
      </trkpt>
      <trkpt lat="49.36538" lon="1.47911">
        <ele>130.7</ele>
        <time>2014-06-22T08:55:37Z</time>
      </trkpt>
      <trkpt lat="49.36551" lon="1.47897">
        <ele>129.69</ele>
        <time>2014-06-22T08:55:42Z</time>
      </trkpt>
      <trkpt lat="49.36563" lon="1.47888">
        <ele>128.76</ele>
        <time>2014-06-22T08:55:45Z</time>
      </trkpt>
      <trkpt lat="49.3659" lon="1.47876">
        <ele>125.87</ele>
        <time>2014-06-22T08:55:50Z</time>
      </trkpt>
      <trkpt lat="49.36614" lon="1.47877">
        <ele>122.42</ele>
        <time>2014-06-22T08:55:54Z</time>
      </trkpt>
      <trkpt lat="49.36632" lon="1.47885">
        <ele>119.92</ele>
        <time>2014-06-22T08:55:58Z</time>
      </trkpt>
      <trkpt lat="49.36658" lon="1.47888">
        <ele>116.26</ele>
        <time>2014-06-22T08:56:03Z</time>
      </trkpt>
      <trkpt lat="49.36687" lon="1.47902">
        <ele>111.94</ele>
        <time>2014-06-22T08:56:08Z</time>
      </trkpt>
      <trkpt lat="49.36693" lon="1.47906">
        <ele>111.47</ele>
        <time>2014-06-22T08:56:09Z</time>
      </trkpt>
      <trkpt lat="49.3672" lon="1.4793">
        <ele>107.07</ele>
        <time>2014-06-22T08:56:14Z</time>
      </trkpt>
      <trkpt lat="49.36725" lon="1.47934">
        <ele>106.86</ele>
        <time>2014-06-22T08:56:15Z</time>
      </trkpt>
      <trkpt lat="49.36746" lon="1.4795">
        <ele>102.94</ele>
        <time>2014-06-22T08:56:19Z</time>
      </trkpt>
      <trkpt lat="49.3676" lon="1.47962">
        <ele>99.2</ele>
        <time>2014-06-22T08:56:22Z</time>
      </trkpt>
      <trkpt lat="49.36777" lon="1.47979">
        <ele>95.84</ele>
        <time>2014-06-22T08:56:26Z</time>
      </trkpt>
      <trkpt lat="49.36778" lon="1.47996">
        <ele>96.82</ele>
        <time>2014-06-22T08:56:31Z</time>
      </trkpt>
      <trkpt lat="49.36778" lon="1.48009">
        <ele>98.77</ele>
        <time>2014-06-22T08:56:35Z</time>
      </trkpt>
      <trkpt lat="49.36782" lon="1.48046">
        <ele>101.68</ele>
        <time>2014-06-22T08:56:44Z</time>
      </trkpt>
      <trkpt lat="49.36782" lon="1.48084">
        <ele>103.53</ele>
        <time>2014-06-22T08:56:52Z</time>
      </trkpt>
      <trkpt lat="49.36782" lon="1.48125">
        <ele>104.68</ele>
        <time>2014-06-22T08:57:00Z</time>
      </trkpt>
      <trkpt lat="49.36803" lon="1.48159">
        <ele>103.64</ele>
        <time>2014-06-22T08:57:05Z</time>
      </trkpt>
      <trkpt lat="49.36812" lon="1.4818">
        <ele>102.64</ele>
        <time>2014-06-22T08:57:08Z</time>
      </trkpt>
      <trkpt lat="49.36825" lon="1.48233">
        <ele>101.4</ele>
        <time>2014-06-22T08:57:15Z</time>
      </trkpt>
      <trkpt lat="49.36836" lon="1.48276">
        <ele>101.79</ele>
        <time>2014-06-22T08:57:22Z</time>
      </trkpt>
      <trkpt lat="49.36838" lon="1.48288">
        <ele>102.16</ele>
        <time>2014-06-22T08:57:24Z</time>
      </trkpt>
      <trkpt lat="49.36844" lon="1.48318">
        <ele>102.71</ele>
        <time>2014-06-22T08:57:28Z</time>
      </trkpt>
      <trkpt lat="49.36855" lon="1.48353">
        <ele>103.97</ele>
        <time>2014-06-22T08:57:33Z</time>
      </trkpt>
      <trkpt lat="49.36873" lon="1.48397">
        <ele>105.32</ele>
        <time>2014-06-22T08:57:38Z</time>
      </trkpt>
      <trkpt lat="49.36884" lon="1.4843">
        <ele>106.78</ele>
        <time>2014-06-22T08:57:42Z</time>
      </trkpt>
      <trkpt lat="49.36907" lon="1.48476">
        <ele>108.17</ele>
        <time>2014-06-22T08:57:49Z</time>
      </trkpt>
      <trkpt lat="49.36915" lon="1.48509">
        <ele>108.38</ele>
        <time>2014-06-22T08:57:55Z</time>
      </trkpt>
      <trkpt lat="49.36924" lon="1.48547">
        <ele>109.97</ele>
        <time>2014-06-22T08:58:01Z</time>
      </trkpt>
      <trkpt lat="49.36927" lon="1.48559">
        <ele>110.15</ele>
        <time>2014-06-22T08:58:03Z</time>
      </trkpt>
      <trkpt lat="49.36934" lon="1.48586">
        <ele>109.97</ele>
        <time>2014-06-22T08:58:07Z</time>
      </trkpt>
      <trkpt lat="49.36945" lon="1.4863">
        <ele>109.81</ele>
        <time>2014-06-22T08:58:14Z</time>
      </trkpt>
      <trkpt lat="49.36965" lon="1.4867">
        <ele>108.74</ele>
        <time>2014-06-22T08:58:20Z</time>
      </trkpt>
      <trkpt lat="49.36995" lon="1.48725">
        <ele>105.7</ele>
        <time>2014-06-22T08:58:26Z</time>
      </trkpt>
      <trkpt lat="49.37033" lon="1.48781">
        <ele>103.08</ele>
        <time>2014-06-22T08:58:32Z</time>
      </trkpt>
      <trkpt lat="49.37068" lon="1.48822">
        <ele>102.15</ele>
        <time>2014-06-22T08:58:37Z</time>
      </trkpt>
      <trkpt lat="49.37083" lon="1.4885">
        <ele>100.46</ele>
        <time>2014-06-22T08:58:40Z</time>
      </trkpt>
      <trkpt lat="49.37102" lon="1.48886">
        <ele>99.49</ele>
        <time>2014-06-22T08:58:44Z</time>
      </trkpt>
      <trkpt lat="49.37113" lon="1.48918">
        <ele>97.97</ele>
        <time>2014-06-22T08:58:47Z</time>
      </trkpt>
      <trkpt lat="49.37115" lon="1.48937">
        <ele>97.93</ele>
        <time>2014-06-22T08:58:49Z</time>
      </trkpt>
      <trkpt lat="49.37115" lon="1.48972">
        <ele>96.69</ele>
        <time>2014-06-22T08:58:52Z</time>
      </trkpt>
      <trkpt lat="49.37115" lon="1.49011">
        <ele>95.84</ele>
        <time>2014-06-22T08:58:56Z</time>
      </trkpt>
      <trkpt lat="49.37119" lon="1.49028">
        <ele>95.51</ele>
        <time>2014-06-22T08:58:58Z</time>
      </trkpt>
      <trkpt lat="49.37138" lon="1.49078">
        <ele>95.86</ele>
        <time>2014-06-22T08:59:05Z</time>
      </trkpt>
      <trkpt lat="49.37148" lon="1.49102">
        <ele>95.4</ele>
        <time>2014-06-22T08:59:08Z</time>
      </trkpt>
      <trkpt lat="49.37152" lon="1.49115">
        <ele>95.2</ele>
        <time>2014-06-22T08:59:10Z</time>
      </trkpt>
      <trkpt lat="49.37165" lon="1.4914">
        <ele>95.82</ele>
        <time>2014-06-22T08:59:14Z</time>
      </trkpt>
      <trkpt lat="49.37181" lon="1.49163">
        <ele>96.28</ele>
        <time>2014-06-22T08:59:17Z</time>
      </trkpt>
      <trkpt lat="49.37208" lon="1.49192">
        <ele>94.68</ele>
        <time>2014-06-22T08:59:23Z</time>
      </trkpt>
      <trkpt lat="49.37229" lon="1.4919">
        <ele>93.9</ele>
        <time>2014-06-22T08:59:27Z</time>
      </trkpt>
      <trkpt lat="49.37231" lon="1.49184">
        <ele>93.6</ele>
        <time>2014-06-22T08:59:28Z</time>
      </trkpt>
      <trkpt lat="49.37236" lon="1.49165">
        <ele>93.07</ele>
        <time>2014-06-22T08:59:31Z</time>
      </trkpt>
      <trkpt lat="49.37236" lon="1.49133">
        <ele>93.1</ele>
        <time>2014-06-22T08:59:35Z</time>
      </trkpt>
      <trkpt lat="49.37234" lon="1.49118">
        <ele>93.26</ele>
        <time>2014-06-22T08:59:37Z</time>
      </trkpt>
      <trkpt lat="49.37216" lon="1.49054">
        <ele>93.64</ele>
        <time>2014-06-22T08:59:46Z</time>
      </trkpt>
      <trkpt lat="49.37205" lon="1.49005">
        <ele>94.45</ele>
        <time>2014-06-22T08:59:53Z</time>
      </trkpt>
      <trkpt lat="49.37203" lon="1.48964">
        <ele>94.58</ele>
        <time>2014-06-22T08:59:58Z</time>
      </trkpt>
      <trkpt lat="49.3721" lon="1.48885">
        <ele>93.53</ele>
        <time>2014-06-22T09:00:06Z</time>
      </trkpt>
      <trkpt lat="49.37214" lon="1.48846">
        <ele>93.94</ele>
        <time>2014-06-22T09:00:10Z</time>
      </trkpt>
      <trkpt lat="49.37209" lon="1.48788">
        <ele>94.03</ele>
        <time>2014-06-22T09:00:16Z</time>
      </trkpt>
      <trkpt lat="49.37204" lon="1.48768">
        <ele>94.04</ele>
        <time>2014-06-22T09:00:18Z</time>
      </trkpt>
      <trkpt lat="49.37182" lon="1.48703">
        <ele>94.68</ele>
        <time>2014-06-22T09:00:26Z</time>
      </trkpt>
      <trkpt lat="49.37165" lon="1.4865">
        <ele>95.3</ele>
        <time>2014-06-22T09:00:33Z</time>
      </trkpt>
      <trkpt lat="49.37147" lon="1.48593">
        <ele>96.9</ele>
        <time>2014-06-22T09:00:41Z</time>
      </trkpt>
      <trkpt lat="49.37139" lon="1.48574">
        <ele>97.32</ele>
        <time>2014-06-22T09:00:44Z</time>
      </trkpt>
      <trkpt lat="49.37129" lon="1.48543">
        <ele>97.24</ele>
        <time>2014-06-22T09:00:49Z</time>
      </trkpt>
      <trkpt lat="49.37122" lon="1.48482">
        <ele>98.86</ele>
        <time>2014-06-22T09:00:58Z</time>
      </trkpt>
      <trkpt lat="49.37123" lon="1.48428">
        <ele>100.16</ele>
        <time>2014-06-22T09:01:06Z</time>
      </trkpt>
      <trkpt lat="49.37124" lon="1.48387">
        <ele>101.43</ele>
        <time>2014-06-22T09:01:13Z</time>
      </trkpt>
      <trkpt lat="49.37118" lon="1.4835">
        <ele>102.91</ele>
        <time>2014-06-22T09:01:19Z</time>
      </trkpt>
      <trkpt lat="49.37115" lon="1.48344">
        <ele>103.12</ele>
        <time>2014-06-22T09:01:20Z</time>
      </trkpt>
      <trkpt lat="49.37095" lon="1.48306">
        <ele>103.9</ele>
        <time>2014-06-22T09:01:26Z</time>
      </trkpt>
      <trkpt lat="49.37082" lon="1.48284">
        <ele>104.67</ele>
        <time>2014-06-22T09:01:30Z</time>
      </trkpt>
      <trkpt lat="49.37066" lon="1.48239">
        <ele>105.66</ele>
        <time>2014-06-22T09:01:36Z</time>
      </trkpt>
      <trkpt lat="49.37046" lon="1.48168">
        <ele>106.43</ele>
        <time>2014-06-22T09:01:46Z</time>
      </trkpt>
      <trkpt lat="49.37036" lon="1.48109">
        <ele>105.22</ele>
        <time>2014-06-22T09:01:52Z</time>
      </trkpt>
      <trkpt lat="49.37022" lon="1.48016">
        <ele>102.9</ele>
        <time>2014-06-22T09:02:00Z</time>
      </trkpt>
      <trkpt lat="49.37015" lon="1.47979">
        <ele>102.06</ele>
        <time>2014-06-22T09:02:03Z</time>
      </trkpt>
      <trkpt lat="49.36998" lon="1.47944">
        <ele>100.58</ele>
        <time>2014-06-22T09:02:07Z</time>
      </trkpt>
      <trkpt lat="49.36959" lon="1.47905">
        <ele>99.61</ele>
        <time>2014-06-22T09:02:14Z</time>
      </trkpt>
      <trkpt lat="49.36931" lon="1.47912">
        <ele>96.76</ele>
        <time>2014-06-22T09:02:18Z</time>
      </trkpt>
      <trkpt lat="49.36916" lon="1.47927">
        <ele>95.5</ele>
        <time>2014-06-22T09:02:20Z</time>
      </trkpt>
      <trkpt lat="49.36865" lon="1.47961">
        <ele>91.54</ele>
        <time>2014-06-22T09:02:26Z</time>
      </trkpt>
      <trkpt lat="49.36857" lon="1.47967">
        <ele>91.39</ele>
        <time>2014-06-22T09:02:27Z</time>
      </trkpt>
      <trkpt lat="49.36812" lon="1.47993">
        <ele>91.59</ele>
        <time>2014-06-22T09:02:33Z</time>
      </trkpt>
      <trkpt lat="49.36798" lon="1.47999">
        <ele>93.35</ele>
        <time>2014-06-22T09:02:37Z</time>
      </trkpt>
      <trkpt lat="49.36797" lon="1.47998">
        <ele>93.74</ele>
        <time>2014-06-22T09:02:38Z</time>
      </trkpt>
      <trkpt lat="49.36782" lon="1.47965">
        <ele>94.1</ele>
        <time>2014-06-22T09:02:45Z</time>
      </trkpt>
      <trkpt lat="49.36766" lon="1.4792">
        <ele>94.28</ele>
        <time>2014-06-22T09:02:54Z</time>
      </trkpt>
      <trkpt lat="49.36751" lon="1.47895">
        <ele>95.02</ele>
        <time>2014-06-22T09:03:00Z</time>
      </trkpt>
      <trkpt lat="49.36731" lon="1.47868">
        <ele>94.14</ele>
        <time>2014-06-22T09:03:06Z</time>
      </trkpt>
      <trkpt lat="49.36716" lon="1.47847">
        <ele>94.37</ele>
        <time>2014-06-22T09:03:10Z</time>
      </trkpt>
      <trkpt lat="49.36695" lon="1.47816">
        <ele>93.33</ele>
        <time>2014-06-22T09:03:17Z</time>
      </trkpt>
      <trkpt lat="49.36675" lon="1.47784">
        <ele>91.44</ele>
        <time>2014-06-22T09:03:24Z</time>
      </trkpt>
      <trkpt lat="49.36658" lon="1.47752">
        <ele>91.52</ele>
        <time>2014-06-22T09:03:31Z</time>
      </trkpt>
      <trkpt lat="49.36635" lon="1.47716">
        <ele>90.96</ele>
        <time>2014-06-22T09:03:38Z</time>
      </trkpt>
      <trkpt lat="49.36609" lon="1.4768">
        <ele>90.14</ele>
        <time>2014-06-22T09:03:46Z</time>
      </trkpt>
      <trkpt lat="49.36582" lon="1.47637">
        <ele>89.14</ele>
        <time>2014-06-22T09:03:53Z</time>
      </trkpt>
      <trkpt lat="49.36554" lon="1.47596">
        <ele>88.45</ele>
        <time>2014-06-22T09:04:00Z</time>
      </trkpt>
      <trkpt lat="49.36543" lon="1.47582">
        <ele>88</ele>
        <time>2014-06-22T09:04:03Z</time>
      </trkpt>
      <trkpt lat="49.36517" lon="1.47574">
        <ele>89.87</ele>
        <time>2014-06-22T09:04:10Z</time>
      </trkpt>
      <trkpt lat="49.36471" lon="1.4758">
        <ele>90.8</ele>
        <time>2014-06-22T09:04:19Z</time>
      </trkpt>
      <trkpt lat="49.36428" lon="1.4761">
        <ele>88.07</ele>
        <time>2014-06-22T09:04:27Z</time>
      </trkpt>
      <trkpt lat="49.36417" lon="1.4762">
        <ele>87.28</ele>
        <time>2014-06-22T09:04:29Z</time>
      </trkpt>
      <trkpt lat="49.36377" lon="1.47653">
        <ele>86.5</ele>
        <time>2014-06-22T09:04:36Z</time>
      </trkpt>
      <trkpt lat="49.36351" lon="1.4767">
        <ele>86.06</ele>
        <time>2014-06-22T09:04:42Z</time>
      </trkpt>
      <trkpt lat="49.36332" lon="1.47677">
        <ele>85.66</ele>
        <time>2014-06-22T09:04:46Z</time>
      </trkpt>
      <trkpt lat="49.36304" lon="1.47679">
        <ele>85.33</ele>
        <time>2014-06-22T09:04:52Z</time>
      </trkpt>
      <trkpt lat="49.36276" lon="1.47678">
        <ele>85.5</ele>
        <time>2014-06-22T09:04:58Z</time>
      </trkpt>
      <trkpt lat="49.36247" lon="1.47657">
        <ele>85.8</ele>
        <time>2014-06-22T09:05:05Z</time>
      </trkpt>
      <trkpt lat="49.36234" lon="1.47644">
        <ele>85.97</ele>
        <time>2014-06-22T09:05:07Z</time>
      </trkpt>
      <trkpt lat="49.36208" lon="1.47603">
        <ele>85.7</ele>
        <time>2014-06-22T09:05:15Z</time>
      </trkpt>
      <trkpt lat="49.36187" lon="1.47574">
        <ele>86.41</ele>
        <time>2014-06-22T09:05:22Z</time>
      </trkpt>
      <trkpt lat="49.36151" lon="1.47536">
        <ele>85.53</ele>
        <time>2014-06-22T09:05:30Z</time>
      </trkpt>
      <trkpt lat="49.36124" lon="1.47507">
        <ele>85.18</ele>
        <time>2014-06-22T09:05:37Z</time>
      </trkpt>
      <trkpt lat="49.36089" lon="1.47473">
        <ele>86.54</ele>
        <time>2014-06-22T09:05:45Z</time>
      </trkpt>
      <trkpt lat="49.3608" lon="1.47462">
        <ele>86.09</ele>
        <time>2014-06-22T09:05:50Z</time>
      </trkpt>
      <trkpt lat="49.36077" lon="1.47457">
        <ele>86.5</ele>
        <time>2014-06-22T09:05:58Z</time>
      </trkpt>
      <trkpt lat="49.36076" lon="1.47457">
        <ele>87.07</ele>
        <time>2014-06-22T09:06:10Z</time>
      </trkpt>
      <trkpt lat="49.3607" lon="1.47458">
        <ele>87.88</ele>
        <time>2014-06-22T09:06:24Z</time>
      </trkpt>
      <trkpt lat="49.3607" lon="1.4745">
        <ele>86.61</ele>
        <time>2014-06-22T09:06:36Z</time>
      </trkpt>
      <trkpt lat="49.36042" lon="1.47418">
        <ele>86.63</ele>
        <time>2014-06-22T09:06:43Z</time>
      </trkpt>
      <trkpt lat="49.36024" lon="1.47385">
        <ele>85.34</ele>
        <time>2014-06-22T09:06:49Z</time>
      </trkpt>
      <trkpt lat="49.36019" lon="1.47371">
        <ele>84.68</ele>
        <time>2014-06-22T09:06:51Z</time>
      </trkpt>
      <trkpt lat="49.36015" lon="1.47357">
        <ele>84.65</ele>
        <time>2014-06-22T09:06:53Z</time>
      </trkpt>
      <trkpt lat="49.35995" lon="1.47335">
        <ele>81.84</ele>
        <time>2014-06-22T09:06:58Z</time>
      </trkpt>
      <trkpt lat="49.35978" lon="1.47323">
        <ele>81.3</ele>
        <time>2014-06-22T09:07:03Z</time>
      </trkpt>
      <trkpt lat="49.35968" lon="1.47324">
        <ele>81.16</ele>
        <time>2014-06-22T09:07:05Z</time>
      </trkpt>
      <trkpt lat="49.3593" lon="1.47341">
        <ele>81.57</ele>
        <time>2014-06-22T09:07:13Z</time>
      </trkpt>
      <trkpt lat="49.35903" lon="1.47353">
        <ele>82.57</ele>
        <time>2014-06-22T09:07:18Z</time>
      </trkpt>
      <trkpt lat="49.35882" lon="1.47358">
        <ele>83.06</ele>
        <time>2014-06-22T09:07:22Z</time>
      </trkpt>
      <trkpt lat="49.35835" lon="1.47351">
        <ele>83.52</ele>
        <time>2014-06-22T09:07:31Z</time>
      </trkpt>
      <trkpt lat="49.35787" lon="1.4733">
        <ele>84.28</ele>
        <time>2014-06-22T09:07:40Z</time>
      </trkpt>
      <trkpt lat="49.35767" lon="1.47316">
        <ele>84.67</ele>
        <time>2014-06-22T09:07:44Z</time>
      </trkpt>
      <trkpt lat="49.35732" lon="1.47277">
        <ele>84.02</ele>
        <time>2014-06-22T09:07:51Z</time>
      </trkpt>
      <trkpt lat="49.3569" lon="1.4723">
        <ele>83.3</ele>
        <time>2014-06-22T09:07:59Z</time>
      </trkpt>
      <trkpt lat="49.35653" lon="1.47211">
        <ele>82.18</ele>
        <time>2014-06-22T09:08:05Z</time>
      </trkpt>
      <trkpt lat="49.3564" lon="1.4721">
        <ele>82.15</ele>
        <time>2014-06-22T09:08:07Z</time>
      </trkpt>
      <trkpt lat="49.35574" lon="1.47208">
        <ele>80.51</ele>
        <time>2014-06-22T09:08:17Z</time>
      </trkpt>
      <trkpt lat="49.35509" lon="1.47179">
        <ele>79.4</ele>
        <time>2014-06-22T09:08:26Z</time>
      </trkpt>
      <trkpt lat="49.35445" lon="1.47141">
        <ele>79.12</ele>
        <time>2014-06-22T09:08:36Z</time>
      </trkpt>
      <trkpt lat="49.35434" lon="1.47135">
        <ele>78.42</ele>
        <time>2014-06-22T09:08:38Z</time>
      </trkpt>
      <trkpt lat="49.35401" lon="1.47125">
        <ele>77.1</ele>
        <time>2014-06-22T09:08:45Z</time>
      </trkpt>
      <trkpt lat="49.35383" lon="1.47123">
        <ele>77.13</ele>
        <time>2014-06-22T09:08:49Z</time>
      </trkpt>
      <trkpt lat="49.35374" lon="1.47122">
        <ele>77.72</ele>
        <time>2014-06-22T09:08:51Z</time>
      </trkpt>
      <trkpt lat="49.35357" lon="1.47114">
        <ele>76.84</ele>
        <time>2014-06-22T09:08:55Z</time>
      </trkpt>
      <trkpt lat="49.35341" lon="1.47087">
        <ele>76.05</ele>
        <time>2014-06-22T09:09:00Z</time>
      </trkpt>
      <trkpt lat="49.35335" lon="1.47072">
        <ele>75.78</ele>
        <time>2014-06-22T09:09:02Z</time>
      </trkpt>
      <trkpt lat="49.35323" lon="1.47038">
        <ele>74.48</ele>
        <time>2014-06-22T09:09:07Z</time>
      </trkpt>
      <trkpt lat="49.35316" lon="1.47018">
        <ele>74.17</ele>
        <time>2014-06-22T09:09:10Z</time>
      </trkpt>
      <trkpt lat="49.35291" lon="1.47001">
        <ele>73.96</ele>
        <time>2014-06-22T09:09:16Z</time>
      </trkpt>
      <trkpt lat="49.35286" lon="1.47002">
        <ele>74.06</ele>
        <time>2014-06-22T09:09:17Z</time>
      </trkpt>
      <trkpt lat="49.35241" lon="1.47017">
        <ele>74.52</ele>
        <time>2014-06-22T09:09:26Z</time>
      </trkpt>
      <trkpt lat="49.35221" lon="1.47026">
        <ele>74.31</ele>
        <time>2014-06-22T09:09:30Z</time>
      </trkpt>
      <trkpt lat="49.352" lon="1.47019">
        <ele>74.37</ele>
        <time>2014-06-22T09:09:35Z</time>
      </trkpt>
      <trkpt lat="49.35198" lon="1.47014">
        <ele>74.66</ele>
        <time>2014-06-22T09:09:36Z</time>
      </trkpt>
      <trkpt lat="49.35187" lon="1.46984">
        <ele>75.65</ele>
        <time>2014-06-22T09:09:41Z</time>
      </trkpt>
      <trkpt lat="49.35169" lon="1.46944">
        <ele>77.08</ele>
        <time>2014-06-22T09:09:48Z</time>
      </trkpt>
      <trkpt lat="49.35165" lon="1.46908">
        <ele>77.46</ele>
        <time>2014-06-22T09:09:53Z</time>
      </trkpt>
      <trkpt lat="49.35164" lon="1.4685">
        <ele>79.38</ele>
        <time>2014-06-22T09:10:01Z</time>
      </trkpt>
      <trkpt lat="49.35161" lon="1.4683">
        <ele>80.27</ele>
        <time>2014-06-22T09:10:04Z</time>
      </trkpt>
      <trkpt lat="49.35145" lon="1.46784">
        <ele>82.35</ele>
        <time>2014-06-22T09:10:12Z</time>
      </trkpt>
      <trkpt lat="49.35123" lon="1.46738">
        <ele>84.55</ele>
        <time>2014-06-22T09:10:20Z</time>
      </trkpt>
      <trkpt lat="49.35111" lon="1.46714">
        <ele>85.47</ele>
        <time>2014-06-22T09:10:24Z</time>
      </trkpt>
      <trkpt lat="49.35098" lon="1.46674">
        <ele>86.81</ele>
        <time>2014-06-22T09:10:30Z</time>
      </trkpt>
      <trkpt lat="49.35083" lon="1.46615">
        <ele>89.14</ele>
        <time>2014-06-22T09:10:39Z</time>
      </trkpt>
      <trkpt lat="49.35081" lon="1.46602">
        <ele>89.46</ele>
        <time>2014-06-22T09:10:41Z</time>
      </trkpt>
      <trkpt lat="49.35078" lon="1.46568">
        <ele>90.66</ele>
        <time>2014-06-22T09:10:46Z</time>
      </trkpt>
      <trkpt lat="49.3508" lon="1.46518">
        <ele>92.53</ele>
        <time>2014-06-22T09:10:54Z</time>
      </trkpt>
      <trkpt lat="49.35085" lon="1.46461">
        <ele>94.52</ele>
        <time>2014-06-22T09:11:03Z</time>
      </trkpt>
      <trkpt lat="49.35092" lon="1.464">
        <ele>96.92</ele>
        <time>2014-06-22T09:11:13Z</time>
      </trkpt>
      <trkpt lat="49.35097" lon="1.46347">
        <ele>98.66</ele>
        <time>2014-06-22T09:11:22Z</time>
      </trkpt>
      <trkpt lat="49.35091" lon="1.46322">
        <ele>99.02</ele>
        <time>2014-06-22T09:11:27Z</time>
      </trkpt>
      <trkpt lat="49.35096" lon="1.46293">
        <ele>97.9</ele>
        <time>2014-06-22T09:11:31Z</time>
      </trkpt>
      <trkpt lat="49.351" lon="1.46285">
        <ele>97.53</ele>
        <time>2014-06-22T09:11:32Z</time>
      </trkpt>
      <trkpt lat="49.35148" lon="1.462">
        <ele>94.73</ele>
        <time>2014-06-22T09:11:41Z</time>
      </trkpt>
      <trkpt lat="49.35179" lon="1.46144">
        <ele>91.86</ele>
        <time>2014-06-22T09:11:46Z</time>
      </trkpt>
      <trkpt lat="49.3523" lon="1.46048">
        <ele>90.11</ele>
        <time>2014-06-22T09:11:54Z</time>
      </trkpt>
      <trkpt lat="49.35263" lon="1.45985">
        <ele>86.08</ele>
        <time>2014-06-22T09:11:59Z</time>
      </trkpt>
      <trkpt lat="49.35276" lon="1.45925">
        <ele>83.53</ele>
        <time>2014-06-22T09:12:03Z</time>
      </trkpt>
      <trkpt lat="49.35276" lon="1.45909">
        <ele>82.89</ele>
        <time>2014-06-22T09:12:04Z</time>
      </trkpt>
      <trkpt lat="49.35275" lon="1.45809">
        <ele>78.33</ele>
        <time>2014-06-22T09:12:10Z</time>
      </trkpt>
      <trkpt lat="49.35274" lon="1.45792">
        <ele>78.5</ele>
        <time>2014-06-22T09:12:11Z</time>
      </trkpt>
      <trkpt lat="49.35254" lon="1.45741">
        <ele>75.69</ele>
        <time>2014-06-22T09:12:15Z</time>
      </trkpt>
      <trkpt lat="49.35229" lon="1.45733">
        <ele>74.49</ele>
        <time>2014-06-22T09:12:18Z</time>
      </trkpt>
      <trkpt lat="49.35212" lon="1.45719">
        <ele>71.43</ele>
        <time>2014-06-22T09:12:23Z</time>
      </trkpt>
      <trkpt lat="49.35211" lon="1.45654">
        <ele>69.55</ele>
        <time>2014-06-22T09:12:30Z</time>
      </trkpt>
      <trkpt lat="49.35207" lon="1.45579">
        <ele>69.55</ele>
        <time>2014-06-22T09:12:38Z</time>
      </trkpt>
      <trkpt lat="49.35201" lon="1.45493">
        <ele>68.26</ele>
        <time>2014-06-22T09:12:47Z</time>
      </trkpt>
      <trkpt lat="49.35199" lon="1.45455">
        <ele>67.68</ele>
        <time>2014-06-22T09:12:51Z</time>
      </trkpt>
      <trkpt lat="49.35193" lon="1.45393">
        <ele>67.7</ele>
        <time>2014-06-22T09:12:58Z</time>
      </trkpt>
      <trkpt lat="49.35185" lon="1.45328">
        <ele>67.59</ele>
        <time>2014-06-22T09:13:05Z</time>
      </trkpt>
      <trkpt lat="49.35177" lon="1.45244">
        <ele>67.57</ele>
        <time>2014-06-22T09:13:14Z</time>
      </trkpt>
      <trkpt lat="49.35172" lon="1.45162">
        <ele>67.61</ele>
        <time>2014-06-22T09:13:23Z</time>
      </trkpt>
      <trkpt lat="49.35165" lon="1.45096">
        <ele>68.01</ele>
        <time>2014-06-22T09:13:31Z</time>
      </trkpt>
      <trkpt lat="49.35158" lon="1.45011">
        <ele>69</ele>
        <time>2014-06-22T09:13:42Z</time>
      </trkpt>
      <trkpt lat="49.35152" lon="1.44943">
        <ele>70.27</ele>
        <time>2014-06-22T09:13:51Z</time>
      </trkpt>
      <trkpt lat="49.35147" lon="1.44884">
        <ele>71.78</ele>
        <time>2014-06-22T09:13:59Z</time>
      </trkpt>
      <trkpt lat="49.35144" lon="1.44856">
        <ele>70.75</ele>
        <time>2014-06-22T09:14:03Z</time>
      </trkpt>
      <trkpt lat="49.35142" lon="1.44837">
        <ele>71.28</ele>
        <time>2014-06-22T09:14:06Z</time>
      </trkpt>
      <trkpt lat="49.35133" lon="1.44811">
        <ele>70.82</ele>
        <time>2014-06-22T09:14:11Z</time>
      </trkpt>
      <trkpt lat="49.35123" lon="1.44794">
        <ele>69.28</ele>
        <time>2014-06-22T09:14:14Z</time>
      </trkpt>
      <trkpt lat="49.35099" lon="1.44752">
        <ele>68.38</ele>
        <time>2014-06-22T09:14:22Z</time>
      </trkpt>
      <trkpt lat="49.35088" lon="1.44732">
        <ele>68.24</ele>
        <time>2014-06-22T09:14:26Z</time>
      </trkpt>
      <trkpt lat="49.35058" lon="1.44682">
        <ele>68.06</ele>
        <time>2014-06-22T09:14:36Z</time>
      </trkpt>
      <trkpt lat="49.35051" lon="1.44669">
        <ele>67.33</ele>
        <time>2014-06-22T09:14:39Z</time>
      </trkpt>
      <trkpt lat="49.35041" lon="1.44647">
        <ele>66.25</ele>
        <time>2014-06-22T09:14:43Z</time>
      </trkpt>
      <trkpt lat="49.35019" lon="1.44603">
        <ele>64.15</ele>
        <time>2014-06-22T09:14:50Z</time>
      </trkpt>
      <trkpt lat="49.35017" lon="1.44597">
        <ele>64</ele>
        <time>2014-06-22T09:14:51Z</time>
      </trkpt>
      <trkpt lat="49.35014" lon="1.44563">
        <ele>63.87</ele>
        <time>2014-06-22T09:14:57Z</time>
      </trkpt>
      <trkpt lat="49.3502" lon="1.44545">
        <ele>64.55</ele>
        <time>2014-06-22T09:15:00Z</time>
      </trkpt>
      <trkpt lat="49.35038" lon="1.44508">
        <ele>63.48</ele>
        <time>2014-06-22T09:15:06Z</time>
      </trkpt>
      <trkpt lat="49.3506" lon="1.44463">
        <ele>63.62</ele>
        <time>2014-06-22T09:15:13Z</time>
      </trkpt>
      <trkpt lat="49.35074" lon="1.44458">
        <ele>63.71</ele>
        <time>2014-06-22T09:15:17Z</time>
      </trkpt>
      <trkpt lat="49.35077" lon="1.44462">
        <ele>64.02</ele>
        <time>2014-06-22T09:15:18Z</time>
      </trkpt>
      <trkpt lat="49.35098" lon="1.44474">
        <ele>65.91</ele>
        <time>2014-06-22T09:15:25Z</time>
      </trkpt>
      <trkpt lat="49.3512" lon="1.44476">
        <ele>68.8</ele>
        <time>2014-06-22T09:15:34Z</time>
      </trkpt>
      <trkpt lat="49.35138" lon="1.44477">
        <ele>71.96</ele>
        <time>2014-06-22T09:15:42Z</time>
      </trkpt>
      <trkpt lat="49.35149" lon="1.44476">
        <ele>74.34</ele>
        <time>2014-06-22T09:15:48Z</time>
      </trkpt>
      <trkpt lat="49.3516" lon="1.44477">
        <ele>76.73</ele>
        <time>2014-06-22T09:15:55Z</time>
      </trkpt>
      <trkpt lat="49.35174" lon="1.44479">
        <ele>80.06</ele>
        <time>2014-06-22T09:16:04Z</time>
      </trkpt>
      <trkpt lat="49.35176" lon="1.44479">
        <ele>80.3</ele>
        <time>2014-06-22T09:16:05Z</time>
      </trkpt>
      <trkpt lat="49.3519" lon="1.4448">
        <ele>82.69</ele>
        <time>2014-06-22T09:16:12Z</time>
      </trkpt>
      <trkpt lat="49.35208" lon="1.44484">
        <ele>85.4</ele>
        <time>2014-06-22T09:16:19Z</time>
      </trkpt>
      <trkpt lat="49.3523" lon="1.44489">
        <ele>87.84</ele>
        <time>2014-06-22T09:16:28Z</time>
      </trkpt>
      <trkpt lat="49.35252" lon="1.44497">
        <ele>90.17</ele>
        <time>2014-06-22T09:16:37Z</time>
      </trkpt>
      <trkpt lat="49.35253" lon="1.44498">
        <ele>90.19</ele>
        <time>2014-06-22T09:16:42Z</time>
      </trkpt>
      <trkpt lat="49.35254" lon="1.44499">
        <ele>90.44</ele>
        <time>2014-06-22T09:16:54Z</time>
      </trkpt>
      <trkpt lat="49.35256" lon="1.44503">
        <ele>90.27</ele>
        <time>2014-06-22T09:17:03Z</time>
      </trkpt>
      <trkpt lat="49.35257" lon="1.44504">
        <ele>89.99</ele>
        <time>2014-06-22T09:17:19Z</time>
      </trkpt>
      <trkpt lat="49.35257" lon="1.44505">
        <ele>90.08</ele>
        <time>2014-06-22T09:17:36Z</time>
      </trkpt>
      <trkpt lat="49.35258" lon="1.44507">
        <ele>89.83</ele>
        <time>2014-06-22T09:17:54Z</time>
      </trkpt>
      <trkpt lat="49.35259" lon="1.44508">
        <ele>90.21</ele>
        <time>2014-06-22T09:18:07Z</time>
      </trkpt>
      <trkpt lat="49.3526" lon="1.44511">
        <ele>90.47</ele>
        <time>2014-06-22T09:18:23Z</time>
      </trkpt>
      <trkpt lat="49.35259" lon="1.44511">
        <ele>90.64</ele>
        <time>2014-06-22T09:18:31Z</time>
      </trkpt>
      <trkpt lat="49.3526" lon="1.44511">
        <ele>91.2</ele>
        <time>2014-06-22T09:18:40Z</time>
      </trkpt>
      <trkpt lat="49.35269" lon="1.4451">
        <ele>92.1</ele>
        <time>2014-06-22T09:18:45Z</time>
      </trkpt>
      <trkpt lat="49.3529" lon="1.44505">
        <ele>93.71</ele>
        <time>2014-06-22T09:18:53Z</time>
      </trkpt>
      <trkpt lat="49.35305" lon="1.44501">
        <ele>95.66</ele>
        <time>2014-06-22T09:19:00Z</time>
      </trkpt>
      <trkpt lat="49.35328" lon="1.44501">
        <ele>98.5</ele>
        <time>2014-06-22T09:19:08Z</time>
      </trkpt>
      <trkpt lat="49.35341" lon="1.44503">
        <ele>99.55</ele>
        <time>2014-06-22T09:19:13Z</time>
      </trkpt>
      <trkpt lat="49.35349" lon="1.44491">
        <ele>100.3</ele>
        <time>2014-06-22T09:19:17Z</time>
      </trkpt>
      <trkpt lat="49.35365" lon="1.44447">
        <ele>101.01</ele>
        <time>2014-06-22T09:19:26Z</time>
      </trkpt>
      <trkpt lat="49.35382" lon="1.44412">
        <ele>101.48</ele>
        <time>2014-06-22T09:19:33Z</time>
      </trkpt>
      <trkpt lat="49.354" lon="1.44384">
        <ele>101.78</ele>
        <time>2014-06-22T09:19:39Z</time>
      </trkpt>
      <trkpt lat="49.35405" lon="1.44374">
        <ele>101.75</ele>
        <time>2014-06-22T09:19:41Z</time>
      </trkpt>
      <trkpt lat="49.35419" lon="1.44347">
        <ele>101.42</ele>
        <time>2014-06-22T09:19:46Z</time>
      </trkpt>
      <trkpt lat="49.35443" lon="1.44295">
        <ele>100.26</ele>
        <time>2014-06-22T09:19:54Z</time>
      </trkpt>
      <trkpt lat="49.35448" lon="1.4428">
        <ele>99.89</ele>
        <time>2014-06-22T09:19:56Z</time>
      </trkpt>
      <trkpt lat="49.3546" lon="1.44244">
        <ele>99.66</ele>
        <time>2014-06-22T09:20:03Z</time>
      </trkpt>
      <trkpt lat="49.35473" lon="1.44206">
        <ele>98.4</ele>
        <time>2014-06-22T09:20:09Z</time>
      </trkpt>
      <trkpt lat="49.35483" lon="1.4417">
        <ele>96.96</ele>
        <time>2014-06-22T09:20:13Z</time>
      </trkpt>
      <trkpt lat="49.35501" lon="1.44105">
        <ele>95.49</ele>
        <time>2014-06-22T09:20:20Z</time>
      </trkpt>
      <trkpt lat="49.35515" lon="1.44049">
        <ele>95.7</ele>
        <time>2014-06-22T09:20:27Z</time>
      </trkpt>
      <trkpt lat="49.35521" lon="1.44028">
        <ele>95.77</ele>
        <time>2014-06-22T09:20:30Z</time>
      </trkpt>
      <trkpt lat="49.35534" lon="1.43981">
        <ele>96.75</ele>
        <time>2014-06-22T09:20:38Z</time>
      </trkpt>
      <trkpt lat="49.35536" lon="1.43957">
        <ele>97.71</ele>
        <time>2014-06-22T09:20:44Z</time>
      </trkpt>
      <trkpt lat="49.35537" lon="1.43954">
        <ele>98.63</ele>
        <time>2014-06-22T09:20:46Z</time>
      </trkpt>
      <trkpt lat="49.35542" lon="1.43934">
        <ele>99.93</ele>
        <time>2014-06-22T09:20:52Z</time>
      </trkpt>
      <trkpt lat="49.35553" lon="1.43916">
        <ele>101.39</ele>
        <time>2014-06-22T09:20:58Z</time>
      </trkpt>
      <trkpt lat="49.35561" lon="1.43895">
        <ele>102.05</ele>
        <time>2014-06-22T09:21:04Z</time>
      </trkpt>
      <trkpt lat="49.35563" lon="1.43881">
        <ele>101.94</ele>
        <time>2014-06-22T09:21:07Z</time>
      </trkpt>
      <trkpt lat="49.35581" lon="1.43861">
        <ele>102.25</ele>
        <time>2014-06-22T09:21:13Z</time>
      </trkpt>
      <trkpt lat="49.35586" lon="1.43848">
        <ele>102.06</ele>
        <time>2014-06-22T09:21:16Z</time>
      </trkpt>
      <trkpt lat="49.35591" lon="1.4382">
        <ele>100.58</ele>
        <time>2014-06-22T09:21:20Z</time>
      </trkpt>
      <trkpt lat="49.35597" lon="1.43793">
        <ele>96.84</ele>
        <time>2014-06-22T09:21:24Z</time>
      </trkpt>
      <trkpt lat="49.35603" lon="1.43774">
        <ele>92.3</ele>
        <time>2014-06-22T09:21:28Z</time>
      </trkpt>
      <trkpt lat="49.35604" lon="1.4377">
        <ele>92.01</ele>
        <time>2014-06-22T09:21:29Z</time>
      </trkpt>
      <trkpt lat="49.35605" lon="1.43762">
        <ele>91.73</ele>
        <time>2014-06-22T09:21:31Z</time>
      </trkpt>
      <trkpt lat="49.35598" lon="1.43749">
        <ele>87.79</ele>
        <time>2014-06-22T09:21:38Z</time>
      </trkpt>
      <trkpt lat="49.35596" lon="1.43743">
        <ele>87.16</ele>
        <time>2014-06-22T09:21:45Z</time>
      </trkpt>
      <trkpt lat="49.35593" lon="1.43738">
        <ele>86.68</ele>
        <time>2014-06-22T09:21:54Z</time>
      </trkpt>
      <trkpt lat="49.35592" lon="1.43738">
        <ele>86.46</ele>
        <time>2014-06-22T09:21:56Z</time>
      </trkpt>
      <trkpt lat="49.35572" lon="1.43713">
        <ele>84.41</ele>
        <time>2014-06-22T09:22:05Z</time>
      </trkpt>
      <trkpt lat="49.35552" lon="1.43696">
        <ele>82.67</ele>
        <time>2014-06-22T09:22:09Z</time>
      </trkpt>
      <trkpt lat="49.35527" lon="1.43679">
        <ele>80.41</ele>
        <time>2014-06-22T09:22:15Z</time>
      </trkpt>
      <trkpt lat="49.35502" lon="1.4366">
        <ele>77.86</ele>
        <time>2014-06-22T09:22:22Z</time>
      </trkpt>
      <trkpt lat="49.35493" lon="1.4365">
        <ele>77.4</ele>
        <time>2014-06-22T09:22:24Z</time>
      </trkpt>
      <trkpt lat="49.35472" lon="1.4364">
        <ele>75.49</ele>
        <time>2014-06-22T09:22:29Z</time>
      </trkpt>
      <trkpt lat="49.35469" lon="1.43637">
        <ele>75.28</ele>
        <time>2014-06-22T09:22:33Z</time>
      </trkpt>
      <trkpt lat="49.35468" lon="1.43636">
        <ele>75.47</ele>
        <time>2014-06-22T09:22:40Z</time>
      </trkpt>
      <trkpt lat="49.35468" lon="1.43635">
        <ele>76.01</ele>
        <time>2014-06-22T09:22:48Z</time>
      </trkpt>
      <trkpt lat="49.35469" lon="1.43635">
        <ele>76.27</ele>
        <time>2014-06-22T09:22:49Z</time>
      </trkpt>
      <trkpt lat="49.35477" lon="1.43625">
        <ele>78.7</ele>
        <time>2014-06-22T09:22:57Z</time>
      </trkpt>
      <trkpt lat="49.35484" lon="1.43621">
        <ele>80.76</ele>
        <time>2014-06-22T09:23:03Z</time>
      </trkpt>
      <trkpt lat="49.35495" lon="1.43617">
        <ele>84.02</ele>
        <time>2014-06-22T09:23:15Z</time>
      </trkpt>
      <trkpt lat="49.35511" lon="1.43613">
        <ele>87.04</ele>
        <time>2014-06-22T09:23:25Z</time>
      </trkpt>
      <trkpt lat="49.35517" lon="1.43609">
        <ele>88.98</ele>
        <time>2014-06-22T09:23:30Z</time>
      </trkpt>
      <trkpt lat="49.35531" lon="1.43603">
        <ele>92</ele>
        <time>2014-06-22T09:23:44Z</time>
      </trkpt>
      <trkpt lat="49.35544" lon="1.43602">
        <ele>95.07</ele>
        <time>2014-06-22T09:23:55Z</time>
      </trkpt>
      <trkpt lat="49.35562" lon="1.43598">
        <ele>98.21</ele>
        <time>2014-06-22T09:24:06Z</time>
      </trkpt>
      <trkpt lat="49.35581" lon="1.43593">
        <ele>100.82</ele>
        <time>2014-06-22T09:24:21Z</time>
      </trkpt>
      <trkpt lat="49.35599" lon="1.43591">
        <ele>103.82</ele>
        <time>2014-06-22T09:24:36Z</time>
      </trkpt>
      <trkpt lat="49.35618" lon="1.43586">
        <ele>106.45</ele>
        <time>2014-06-22T09:24:52Z</time>
      </trkpt>
      <trkpt lat="49.35639" lon="1.43584">
        <ele>109.07</ele>
        <time>2014-06-22T09:25:05Z</time>
      </trkpt>
      <trkpt lat="49.35653" lon="1.43581">
        <ele>111.38</ele>
        <time>2014-06-22T09:25:17Z</time>
      </trkpt>
      <trkpt lat="49.35673" lon="1.43575">
        <ele>114.1</ele>
        <time>2014-06-22T09:25:30Z</time>
      </trkpt>
      <trkpt lat="49.35689" lon="1.43573">
        <ele>115.77</ele>
        <time>2014-06-22T09:25:40Z</time>
      </trkpt>
      <trkpt lat="49.35701" lon="1.43575">
        <ele>117.21</ele>
        <time>2014-06-22T09:25:47Z</time>
      </trkpt>
      <trkpt lat="49.35715" lon="1.43575">
        <ele>119</ele>
        <time>2014-06-22T09:25:55Z</time>
      </trkpt>
      <trkpt lat="49.3572" lon="1.43571">
        <ele>119.33</ele>
        <time>2014-06-22T09:26:02Z</time>
      </trkpt>
      <trkpt lat="49.35728" lon="1.43571">
        <ele>120.04</ele>
        <time>2014-06-22T09:26:09Z</time>
      </trkpt>
      <trkpt lat="49.35741" lon="1.4357">
        <ele>120.61</ele>
        <time>2014-06-22T09:26:18Z</time>
      </trkpt>
      <trkpt lat="49.35747" lon="1.4357">
        <ele>121.31</ele>
        <time>2014-06-22T09:26:30Z</time>
      </trkpt>
      <trkpt lat="49.3576" lon="1.43566">
        <ele>123</ele>
        <time>2014-06-22T09:26:42Z</time>
      </trkpt>
      <trkpt lat="49.35785" lon="1.43563">
        <ele>124.46</ele>
        <time>2014-06-22T09:26:57Z</time>
      </trkpt>
      <trkpt lat="49.3581" lon="1.43555">
        <ele>126.24</ele>
        <time>2014-06-22T09:27:13Z</time>
      </trkpt>
      <trkpt lat="49.35823" lon="1.43553">
        <ele>126.89</ele>
        <time>2014-06-22T09:27:20Z</time>
      </trkpt>
      <trkpt lat="49.35839" lon="1.43554">
        <ele>127.9</ele>
        <time>2014-06-22T09:27:27Z</time>
      </trkpt>
      <trkpt lat="49.35858" lon="1.43547">
        <ele>128.2</ele>
        <time>2014-06-22T09:27:35Z</time>
      </trkpt>
      <trkpt lat="49.35875" lon="1.43541">
        <ele>128.49</ele>
        <time>2014-06-22T09:27:44Z</time>
      </trkpt>
      <trkpt lat="49.359" lon="1.43535">
        <ele>128.43</ele>
        <time>2014-06-22T09:27:52Z</time>
      </trkpt>
      <trkpt lat="49.3592" lon="1.43532">
        <ele>127.82</ele>
        <time>2014-06-22T09:27:58Z</time>
      </trkpt>
      <trkpt lat="49.35944" lon="1.43527">
        <ele>127.5</ele>
        <time>2014-06-22T09:28:05Z</time>
      </trkpt>
      <trkpt lat="49.35958" lon="1.43525">
        <ele>126.81</ele>
        <time>2014-06-22T09:28:11Z</time>
      </trkpt>
      <trkpt lat="49.35973" lon="1.43524">
        <ele>125.6</ele>
        <time>2014-06-22T09:28:18Z</time>
      </trkpt>
      <trkpt lat="49.36" lon="1.43518">
        <ele>124.52</ele>
        <time>2014-06-22T09:28:27Z</time>
      </trkpt>
      <trkpt lat="49.36003" lon="1.4352">
        <ele>124.14</ele>
        <time>2014-06-22T09:28:31Z</time>
      </trkpt>
      <trkpt lat="49.36002" lon="1.43517">
        <ele>124.08</ele>
        <time>2014-06-22T09:28:40Z</time>
      </trkpt>
      <trkpt lat="49.36002" lon="1.43516">
        <ele>123.93</ele>
        <time>2014-06-22T09:28:51Z</time>
      </trkpt>
      <trkpt lat="49.36004" lon="1.43517">
        <ele>124.12</ele>
        <time>2014-06-22T09:29:09Z</time>
      </trkpt>
      <trkpt lat="49.36006" lon="1.43517">
        <ele>123.61</ele>
        <time>2014-06-22T09:29:26Z</time>
      </trkpt>
      <trkpt lat="49.36007" lon="1.43517">
        <ele>123.72</ele>
        <time>2014-06-22T09:29:43Z</time>
      </trkpt>
      <trkpt lat="49.36009" lon="1.43521">
        <ele>123.76</ele>
        <time>2014-06-22T09:30:02Z</time>
      </trkpt>
      <trkpt lat="49.36009" lon="1.4352">
        <ele>124.06</ele>
        <time>2014-06-22T09:30:19Z</time>
      </trkpt>
      <trkpt lat="49.3601" lon="1.4352">
        <ele>124.11</ele>
        <time>2014-06-22T09:30:38Z</time>
      </trkpt>
      <trkpt lat="49.3601" lon="1.43519">
        <ele>123.84</ele>
        <time>2014-06-22T09:30:57Z</time>
      </trkpt>
      <trkpt lat="49.3601" lon="1.43518">
        <ele>123.58</ele>
        <time>2014-06-22T09:31:13Z</time>
      </trkpt>
      <trkpt lat="49.36012" lon="1.43519">
        <ele>123.99</ele>
        <time>2014-06-22T09:31:31Z</time>
      </trkpt>
      <trkpt lat="49.36012" lon="1.43521">
        <ele>124.15</ele>
        <time>2014-06-22T09:31:49Z</time>
      </trkpt>
      <trkpt lat="49.36016" lon="1.43521">
        <ele>124.18</ele>
        <time>2014-06-22T09:32:05Z</time>
      </trkpt>
      <trkpt lat="49.36018" lon="1.43522">
        <ele>125.43</ele>
        <time>2014-06-22T09:32:26Z</time>
      </trkpt>
      <trkpt lat="49.36018" lon="1.43521">
        <ele>124.42</ele>
        <time>2014-06-22T09:32:43Z</time>
      </trkpt>
      <trkpt lat="49.36021" lon="1.43521">
        <ele>123.95</ele>
        <time>2014-06-22T09:32:56Z</time>
      </trkpt>
      <trkpt lat="49.36025" lon="1.43515">
        <ele>123.86</ele>
        <time>2014-06-22T09:33:00Z</time>
      </trkpt>
      <trkpt lat="49.36039" lon="1.43504">
        <ele>122.24</ele>
        <time>2014-06-22T09:33:09Z</time>
      </trkpt>
      <trkpt lat="49.36056" lon="1.43483">
        <ele>120.61</ele>
        <time>2014-06-22T09:33:14Z</time>
      </trkpt>
      <trkpt lat="49.36079" lon="1.43452">
        <ele>117.66</ele>
        <time>2014-06-22T09:33:20Z</time>
      </trkpt>
      <trkpt lat="49.36088" lon="1.43443">
        <ele>116.61</ele>
        <time>2014-06-22T09:33:22Z</time>
      </trkpt>
      <trkpt lat="49.36109" lon="1.4342">
        <ele>112.5</ele>
        <time>2014-06-22T09:33:27Z</time>
      </trkpt>
      <trkpt lat="49.36112" lon="1.43418">
        <ele>112.41</ele>
        <time>2014-06-22T09:33:28Z</time>
      </trkpt>
      <trkpt lat="49.36129" lon="1.43422">
        <ele>110.33</ele>
        <time>2014-06-22T09:33:34Z</time>
      </trkpt>
      <trkpt lat="49.36147" lon="1.43438">
        <ele>108.81</ele>
        <time>2014-06-22T09:33:40Z</time>
      </trkpt>
      <trkpt lat="49.36174" lon="1.43464">
        <ele>107.85</ele>
        <time>2014-06-22T09:33:48Z</time>
      </trkpt>
      <trkpt lat="49.36192" lon="1.43489">
        <ele>107.46</ele>
        <time>2014-06-22T09:33:56Z</time>
      </trkpt>
      <trkpt lat="49.36212" lon="1.43513">
        <ele>107.41</ele>
        <time>2014-06-22T09:34:04Z</time>
      </trkpt>
      <trkpt lat="49.36232" lon="1.43538">
        <ele>106.31</ele>
        <time>2014-06-22T09:34:10Z</time>
      </trkpt>
      <trkpt lat="49.36266" lon="1.43578">
        <ele>106.2</ele>
        <time>2014-06-22T09:34:17Z</time>
      </trkpt>
      <trkpt lat="49.36272" lon="1.43588">
        <ele>105.43</ele>
        <time>2014-06-22T09:34:19Z</time>
      </trkpt>
      <trkpt lat="49.3629" lon="1.43609">
        <ele>105.06</ele>
        <time>2014-06-22T09:34:25Z</time>
      </trkpt>
      <trkpt lat="49.36317" lon="1.43643">
        <ele>106.05</ele>
        <time>2014-06-22T09:34:32Z</time>
      </trkpt>
      <trkpt lat="49.3634" lon="1.43672">
        <ele>107.21</ele>
        <time>2014-06-22T09:34:39Z</time>
      </trkpt>
      <trkpt lat="49.36363" lon="1.43696">
        <ele>107.14</ele>
        <time>2014-06-22T09:34:47Z</time>
      </trkpt>
      <trkpt lat="49.36383" lon="1.43693">
        <ele>106.07</ele>
        <time>2014-06-22T09:34:52Z</time>
      </trkpt>
      <trkpt lat="49.36401" lon="1.4369">
        <ele>105.02</ele>
        <time>2014-06-22T09:34:56Z</time>
      </trkpt>
      <trkpt lat="49.36437" lon="1.4372">
        <ele>103.63</ele>
        <time>2014-06-22T09:35:02Z</time>
      </trkpt>
      <trkpt lat="49.36458" lon="1.43736">
        <ele>102.6</ele>
        <time>2014-06-22T09:35:05Z</time>
      </trkpt>
      <trkpt lat="49.36505" lon="1.43756">
        <ele>100.81</ele>
        <time>2014-06-22T09:35:12Z</time>
      </trkpt>
      <trkpt lat="49.36554" lon="1.4378">
        <ele>97.66</ele>
        <time>2014-06-22T09:35:18Z</time>
      </trkpt>
      <trkpt lat="49.36578" lon="1.43791">
        <ele>96.28</ele>
        <time>2014-06-22T09:35:21Z</time>
      </trkpt>
      <trkpt lat="49.36624" lon="1.43809">
        <ele>93.67</ele>
        <time>2014-06-22T09:35:26Z</time>
      </trkpt>
      <trkpt lat="49.36658" lon="1.43809">
        <ele>92.91</ele>
        <time>2014-06-22T09:35:30Z</time>
      </trkpt>
      <trkpt lat="49.36688" lon="1.43804">
        <ele>90.6</ele>
        <time>2014-06-22T09:35:33Z</time>
      </trkpt>
      <trkpt lat="49.36723" lon="1.43812">
        <ele>86.78</ele>
        <time>2014-06-22T09:35:37Z</time>
      </trkpt>
      <trkpt lat="49.36738" lon="1.43818">
        <ele>85.33</ele>
        <time>2014-06-22T09:35:39Z</time>
      </trkpt>
      <trkpt lat="49.3677" lon="1.43814">
        <ele>81.37</ele>
        <time>2014-06-22T09:35:43Z</time>
      </trkpt>
      <trkpt lat="49.36787" lon="1.43809">
        <ele>78.47</ele>
        <time>2014-06-22T09:35:45Z</time>
      </trkpt>
      <trkpt lat="49.36812" lon="1.4378">
        <ele>74.44</ele>
        <time>2014-06-22T09:35:49Z</time>
      </trkpt>
      <trkpt lat="49.36841" lon="1.43722">
        <ele>68.74</ele>
        <time>2014-06-22T09:35:54Z</time>
      </trkpt>
      <trkpt lat="49.36858" lon="1.4368">
        <ele>65.19</ele>
        <time>2014-06-22T09:35:58Z</time>
      </trkpt>
      <trkpt lat="49.36861" lon="1.43674">
        <ele>64.46</ele>
        <time>2014-06-22T09:35:59Z</time>
      </trkpt>
      <trkpt lat="49.36863" lon="1.43672">
        <ele>63.3</ele>
        <time>2014-06-22T09:36:05Z</time>
      </trkpt>
      <trkpt lat="49.36867" lon="1.4366">
        <ele>63.37</ele>
        <time>2014-06-22T09:36:09Z</time>
      </trkpt>
      <trkpt lat="49.36869" lon="1.43607">
        <ele>61.79</ele>
        <time>2014-06-22T09:36:16Z</time>
      </trkpt>
      <trkpt lat="49.3687" lon="1.43536">
        <ele>60.56</ele>
        <time>2014-06-22T09:36:23Z</time>
      </trkpt>
      <trkpt lat="49.36871" lon="1.4347">
        <ele>59.19</ele>
        <time>2014-06-22T09:36:30Z</time>
      </trkpt>
      <trkpt lat="49.36871" lon="1.43419">
        <ele>59.94</ele>
        <time>2014-06-22T09:36:37Z</time>
      </trkpt>
      <trkpt lat="49.36871" lon="1.43387">
        <ele>61.89</ele>
        <time>2014-06-22T09:36:44Z</time>
      </trkpt>
      <trkpt lat="49.36874" lon="1.43356">
        <ele>63.8</ele>
        <time>2014-06-22T09:36:52Z</time>
      </trkpt>
      <trkpt lat="49.36878" lon="1.43322">
        <ele>65.64</ele>
        <time>2014-06-22T09:37:01Z</time>
      </trkpt>
      <trkpt lat="49.36878" lon="1.43291">
        <ele>67.83</ele>
        <time>2014-06-22T09:37:09Z</time>
      </trkpt>
      <trkpt lat="49.36877" lon="1.43289">
        <ele>68.36</ele>
        <time>2014-06-22T09:37:13Z</time>
      </trkpt>
      <trkpt lat="49.36876" lon="1.43289">
        <ele>67.77</ele>
        <time>2014-06-22T09:37:30Z</time>
      </trkpt>
      <trkpt lat="49.36879" lon="1.43289">
        <ele>68.64</ele>
        <time>2014-06-22T09:37:46Z</time>
      </trkpt>
      <trkpt lat="49.36881" lon="1.43291">
        <ele>67.96</ele>
        <time>2014-06-22T09:37:59Z</time>
      </trkpt>
      <trkpt lat="49.36881" lon="1.43291">
        <ele>68</ele>
        <time>2014-06-22T09:38:17Z</time>
      </trkpt>
      <trkpt lat="49.36881" lon="1.4329">
        <ele>67.87</ele>
        <time>2014-06-22T09:38:36Z</time>
      </trkpt>
      <trkpt lat="49.3688" lon="1.43291">
        <ele>67.95</ele>
        <time>2014-06-22T09:38:53Z</time>
      </trkpt>
      <trkpt lat="49.36879" lon="1.4329">
        <ele>68.24</ele>
        <time>2014-06-22T09:39:09Z</time>
      </trkpt>
      <trkpt lat="49.36879" lon="1.43291">
        <ele>68.34</ele>
        <time>2014-06-22T09:39:25Z</time>
      </trkpt>
      <trkpt lat="49.36879" lon="1.43289">
        <ele>68.27</ele>
        <time>2014-06-22T09:39:41Z</time>
      </trkpt>
      <trkpt lat="49.36877" lon="1.43289">
        <ele>68.3</ele>
        <time>2014-06-22T09:39:55Z</time>
      </trkpt>
      <trkpt lat="49.36878" lon="1.4329">
        <ele>68.4</ele>
        <time>2014-06-22T09:40:13Z</time>
      </trkpt>
      <trkpt lat="49.36881" lon="1.4329">
        <ele>68.2</ele>
        <time>2014-06-22T09:40:28Z</time>
      </trkpt>
      <trkpt lat="49.36882" lon="1.43289">
        <ele>68.15</ele>
        <time>2014-06-22T09:40:43Z</time>
      </trkpt>
      <trkpt lat="49.36885" lon="1.43288">
        <ele>68.1</ele>
        <time>2014-06-22T09:41:00Z</time>
      </trkpt>
      <trkpt lat="49.36886" lon="1.43287">
        <ele>68.05</ele>
        <time>2014-06-22T09:41:18Z</time>
      </trkpt>
      <trkpt lat="49.36889" lon="1.43288">
        <ele>68.12</ele>
        <time>2014-06-22T09:41:34Z</time>
      </trkpt>
      <trkpt lat="49.36887" lon="1.43287">
        <ele>68.34</ele>
        <time>2014-06-22T09:41:50Z</time>
      </trkpt>
      <trkpt lat="49.36885" lon="1.43287">
        <ele>68.52</ele>
        <time>2014-06-22T09:42:06Z</time>
      </trkpt>
      <trkpt lat="49.36883" lon="1.43284">
        <ele>68.42</ele>
        <time>2014-06-22T09:42:21Z</time>
      </trkpt>
      <trkpt lat="49.36882" lon="1.43283">
        <ele>68.23</ele>
        <time>2014-06-22T09:42:35Z</time>
      </trkpt>
      <trkpt lat="49.36883" lon="1.43284">
        <ele>68.24</ele>
        <time>2014-06-22T09:42:50Z</time>
      </trkpt>
      <trkpt lat="49.36884" lon="1.43284">
        <ele>67.94</ele>
        <time>2014-06-22T09:43:03Z</time>
      </trkpt>
      <trkpt lat="49.36883" lon="1.43284">
        <ele>67.79</ele>
        <time>2014-06-22T09:43:21Z</time>
      </trkpt>
      <trkpt lat="49.36883" lon="1.43283">
        <ele>68.2</ele>
        <time>2014-06-22T09:43:37Z</time>
      </trkpt>
      <trkpt lat="49.36883" lon="1.43284">
        <ele>68.17</ele>
        <time>2014-06-22T09:43:52Z</time>
      </trkpt>
      <trkpt lat="49.36882" lon="1.43284">
        <ele>67.92</ele>
        <time>2014-06-22T09:44:08Z</time>
      </trkpt>
      <trkpt lat="49.36882" lon="1.43283">
        <ele>68.44</ele>
        <time>2014-06-22T09:44:23Z</time>
      </trkpt>
      <trkpt lat="49.36881" lon="1.43283">
        <ele>68.71</ele>
        <time>2014-06-22T09:44:39Z</time>
      </trkpt>
      <trkpt lat="49.3688" lon="1.4328">
        <ele>68.98</ele>
        <time>2014-06-22T09:44:56Z</time>
      </trkpt>
      <trkpt lat="49.36878" lon="1.43286">
        <ele>68.61</ele>
        <time>2014-06-22T09:45:08Z</time>
      </trkpt>
      <trkpt lat="49.36879" lon="1.43285">
        <ele>68.06</ele>
        <time>2014-06-22T09:45:22Z</time>
      </trkpt>
      <trkpt lat="49.36878" lon="1.43286">
        <ele>67.95</ele>
        <time>2014-06-22T09:45:38Z</time>
      </trkpt>
      <trkpt lat="49.36878" lon="1.43286">
        <ele>68.4</ele>
        <time>2014-06-22T09:45:52Z</time>
      </trkpt>
      <trkpt lat="49.36878" lon="1.43287">
        <ele>67.98</ele>
        <time>2014-06-22T09:46:08Z</time>
      </trkpt>
      <trkpt lat="49.36879" lon="1.43287">
        <ele>68.1</ele>
        <time>2014-06-22T09:46:22Z</time>
      </trkpt>
      <trkpt lat="49.36878" lon="1.43287">
        <ele>68.13</ele>
        <time>2014-06-22T09:46:37Z</time>
      </trkpt>
      <trkpt lat="49.36876" lon="1.43286">
        <ele>68.15</ele>
        <time>2014-06-22T09:46:58Z</time>
      </trkpt>
      <trkpt lat="49.36877" lon="1.43284">
        <ele>69.03</ele>
        <time>2014-06-22T09:47:15Z</time>
      </trkpt>
      <trkpt lat="49.36876" lon="1.43285">
        <ele>68.68</ele>
        <time>2014-06-22T09:47:26Z</time>
      </trkpt>
      <trkpt lat="49.36878" lon="1.43284">
        <ele>68.89</ele>
        <time>2014-06-22T09:47:37Z</time>
      </trkpt>
      <trkpt lat="49.36881" lon="1.43276">
        <ele>69.37</ele>
        <time>2014-06-22T09:47:49Z</time>
      </trkpt>
      <trkpt lat="49.36886" lon="1.43253">
        <ele>70.86</ele>
        <time>2014-06-22T09:47:57Z</time>
      </trkpt>
      <trkpt lat="49.36891" lon="1.43234">
        <ele>72.43</ele>
        <time>2014-06-22T09:48:06Z</time>
      </trkpt>
      <trkpt lat="49.36899" lon="1.43219">
        <ele>74.28</ele>
        <time>2014-06-22T09:48:14Z</time>
      </trkpt>
      <trkpt lat="49.36911" lon="1.43204">
        <ele>75.74</ele>
        <time>2014-06-22T09:48:21Z</time>
      </trkpt>
      <trkpt lat="49.3692" lon="1.43194">
        <ele>77</ele>
        <time>2014-06-22T09:48:28Z</time>
      </trkpt>
      <trkpt lat="49.36929" lon="1.43186">
        <ele>78.89</ele>
        <time>2014-06-22T09:48:35Z</time>
      </trkpt>
      <trkpt lat="49.36931" lon="1.43183">
        <ele>79.53</ele>
        <time>2014-06-22T09:48:37Z</time>
      </trkpt>
      <trkpt lat="49.36942" lon="1.43178">
        <ele>81.36</ele>
        <time>2014-06-22T09:48:45Z</time>
      </trkpt>
      <trkpt lat="49.36954" lon="1.43168">
        <ele>83.65</ele>
        <time>2014-06-22T09:48:54Z</time>
      </trkpt>
      <trkpt lat="49.36963" lon="1.43165">
        <ele>85.53</ele>
        <time>2014-06-22T09:49:02Z</time>
      </trkpt>
      <trkpt lat="49.36974" lon="1.43157">
        <ele>87.67</ele>
        <time>2014-06-22T09:49:11Z</time>
      </trkpt>
      <trkpt lat="49.36983" lon="1.43151">
        <ele>89</ele>
        <time>2014-06-22T09:49:18Z</time>
      </trkpt>
      <trkpt lat="49.36992" lon="1.43143">
        <ele>91.24</ele>
        <time>2014-06-22T09:49:26Z</time>
      </trkpt>
      <trkpt lat="49.37003" lon="1.43141">
        <ele>93.75</ele>
        <time>2014-06-22T09:49:35Z</time>
      </trkpt>
      <trkpt lat="49.3702" lon="1.43136">
        <ele>96.28</ele>
        <time>2014-06-22T09:49:43Z</time>
      </trkpt>
      <trkpt lat="49.37029" lon="1.43126">
        <ele>97.7</ele>
        <time>2014-06-22T09:49:49Z</time>
      </trkpt>
      <trkpt lat="49.37042" lon="1.43118">
        <ele>99.66</ele>
        <time>2014-06-22T09:49:57Z</time>
      </trkpt>
      <trkpt lat="49.37057" lon="1.43111">
        <ele>101.56</ele>
        <time>2014-06-22T09:50:05Z</time>
      </trkpt>
      <trkpt lat="49.37072" lon="1.43104">
        <ele>103.81</ele>
        <time>2014-06-22T09:50:14Z</time>
      </trkpt>
      <trkpt lat="49.37085" lon="1.43102">
        <ele>105.44</ele>
        <time>2014-06-22T09:50:21Z</time>
      </trkpt>
      <trkpt lat="49.37104" lon="1.43099">
        <ele>107.11</ele>
        <time>2014-06-22T09:50:29Z</time>
      </trkpt>
      <trkpt lat="49.37124" lon="1.43095">
        <ele>108.81</ele>
        <time>2014-06-22T09:50:37Z</time>
      </trkpt>
      <trkpt lat="49.37143" lon="1.43089">
        <ele>110.86</ele>
        <time>2014-06-22T09:50:46Z</time>
      </trkpt>
      <trkpt lat="49.37163" lon="1.43084">
        <ele>112.62</ele>
        <time>2014-06-22T09:50:54Z</time>
      </trkpt>
      <trkpt lat="49.3718" lon="1.43081">
        <ele>114.09</ele>
        <time>2014-06-22T09:51:01Z</time>
      </trkpt>
      <trkpt lat="49.37197" lon="1.43077">
        <ele>115.73</ele>
        <time>2014-06-22T09:51:08Z</time>
      </trkpt>
      <trkpt lat="49.37222" lon="1.43074">
        <ele>117.36</ele>
        <time>2014-06-22T09:51:15Z</time>
      </trkpt>
      <trkpt lat="49.37245" lon="1.43065">
        <ele>117.91</ele>
        <time>2014-06-22T09:51:23Z</time>
      </trkpt>
      <trkpt lat="49.37262" lon="1.43058">
        <ele>118.64</ele>
        <time>2014-06-22T09:51:29Z</time>
      </trkpt>
      <trkpt lat="49.37283" lon="1.4305">
        <ele>119.92</ele>
        <time>2014-06-22T09:51:37Z</time>
      </trkpt>
      <trkpt lat="49.37303" lon="1.43039">
        <ele>120.86</ele>
        <time>2014-06-22T09:51:44Z</time>
      </trkpt>
      <trkpt lat="49.37319" lon="1.43021">
        <ele>121.73</ele>
        <time>2014-06-22T09:51:51Z</time>
      </trkpt>
      <trkpt lat="49.37337" lon="1.42999">
        <ele>122.75</ele>
        <time>2014-06-22T09:51:59Z</time>
      </trkpt>
      <trkpt lat="49.37358" lon="1.42987">
        <ele>123.87</ele>
        <time>2014-06-22T09:52:07Z</time>
      </trkpt>
      <trkpt lat="49.37382" lon="1.42995">
        <ele>124.78</ele>
        <time>2014-06-22T09:52:15Z</time>
      </trkpt>
      <trkpt lat="49.37408" lon="1.43">
        <ele>125.16</ele>
        <time>2014-06-22T09:52:22Z</time>
      </trkpt>
      <trkpt lat="49.37442" lon="1.42993">
        <ele>125.47</ele>
        <time>2014-06-22T09:52:30Z</time>
      </trkpt>
      <trkpt lat="49.37491" lon="1.42988">
        <ele>125.72</ele>
        <time>2014-06-22T09:52:39Z</time>
      </trkpt>
      <trkpt lat="49.37549" lon="1.4299">
        <ele>124.08</ele>
        <time>2014-06-22T09:52:48Z</time>
      </trkpt>
      <trkpt lat="49.37568" lon="1.42992">
        <ele>124.27</ele>
        <time>2014-06-22T09:52:51Z</time>
      </trkpt>
      <trkpt lat="49.37616" lon="1.42981">
        <ele>124.3</ele>
        <time>2014-06-22T09:52:59Z</time>
      </trkpt>
      <trkpt lat="49.37662" lon="1.42971">
        <ele>125.47</ele>
        <time>2014-06-22T09:53:08Z</time>
      </trkpt>
      <trkpt lat="49.37671" lon="1.4297">
        <ele>125.61</ele>
        <time>2014-06-22T09:53:10Z</time>
      </trkpt>
      <trkpt lat="49.37691" lon="1.42974">
        <ele>126.94</ele>
        <time>2014-06-22T09:53:14Z</time>
      </trkpt>
      <trkpt lat="49.377" lon="1.42979">
        <ele>127.64</ele>
        <time>2014-06-22T09:53:16Z</time>
      </trkpt>
      <trkpt lat="49.37747" lon="1.43008">
        <ele>128.65</ele>
        <time>2014-06-22T09:53:26Z</time>
      </trkpt>
      <trkpt lat="49.3779" lon="1.43024">
        <ele>129.59</ele>
        <time>2014-06-22T09:53:35Z</time>
      </trkpt>
      <trkpt lat="49.37829" lon="1.43035">
        <ele>129.77</ele>
        <time>2014-06-22T09:53:43Z</time>
      </trkpt>
      <trkpt lat="49.37874" lon="1.43048">
        <ele>129.56</ele>
        <time>2014-06-22T09:53:52Z</time>
      </trkpt>
      <trkpt lat="49.37917" lon="1.43059">
        <ele>129.18</ele>
        <time>2014-06-22T09:54:00Z</time>
      </trkpt>
      <trkpt lat="49.3796" lon="1.43052">
        <ele>128.68</ele>
        <time>2014-06-22T09:54:08Z</time>
      </trkpt>
      <trkpt lat="49.37972" lon="1.4305">
        <ele>128.79</ele>
        <time>2014-06-22T09:54:10Z</time>
      </trkpt>
      <trkpt lat="49.38015" lon="1.43036">
        <ele>129.05</ele>
        <time>2014-06-22T09:54:18Z</time>
      </trkpt>
      <trkpt lat="49.38057" lon="1.43024">
        <ele>129.16</ele>
        <time>2014-06-22T09:54:26Z</time>
      </trkpt>
      <trkpt lat="49.38066" lon="1.43021">
        <ele>129.02</ele>
        <time>2014-06-22T09:54:28Z</time>
      </trkpt>
      <trkpt lat="49.38072" lon="1.43034">
        <ele>128.44</ele>
        <time>2014-06-22T09:54:33Z</time>
      </trkpt>
      <trkpt lat="49.38068" lon="1.4304">
        <ele>128.22</ele>
        <time>2014-06-22T09:54:36Z</time>
      </trkpt>
      <trkpt lat="49.38051" lon="1.43055">
        <ele>128.2</ele>
        <time>2014-06-22T09:54:45Z</time>
      </trkpt>
      <trkpt lat="49.38041" lon="1.43062">
        <ele>128.61</ele>
        <time>2014-06-22T09:54:48Z</time>
      </trkpt>
      <trkpt lat="49.38006" lon="1.43088">
        <ele>128.27</ele>
        <time>2014-06-22T09:54:56Z</time>
      </trkpt>
      <trkpt lat="49.38001" lon="1.43091">
        <ele>128.19</ele>
        <time>2014-06-22T09:54:57Z</time>
      </trkpt>
      <trkpt lat="49.37992" lon="1.43099">
        <ele>128.03</ele>
        <time>2014-06-22T09:54:59Z</time>
      </trkpt>
      <trkpt lat="49.37978" lon="1.43111">
        <ele>127.91</ele>
        <time>2014-06-22T09:55:02Z</time>
      </trkpt>
      <trkpt lat="49.37957" lon="1.43117">
        <ele>127.74</ele>
        <time>2014-06-22T09:55:06Z</time>
      </trkpt>
      <trkpt lat="49.37917" lon="1.4312">
        <ele>127.9</ele>
        <time>2014-06-22T09:55:13Z</time>
      </trkpt>
      <trkpt lat="49.37902" lon="1.43138">
        <ele>126.93</ele>
        <time>2014-06-22T09:55:18Z</time>
      </trkpt>
      <trkpt lat="49.37901" lon="1.43146">
        <ele>126.69</ele>
        <time>2014-06-22T09:55:19Z</time>
      </trkpt>
      <trkpt lat="49.37894" lon="1.4321">
        <ele>123.51</ele>
        <time>2014-06-22T09:55:25Z</time>
      </trkpt>
      <trkpt lat="49.37893" lon="1.43238">
        <ele>122.64</ele>
        <time>2014-06-22T09:55:27Z</time>
      </trkpt>
      <trkpt lat="49.37908" lon="1.43327">
        <ele>119.97</ele>
        <time>2014-06-22T09:55:33Z</time>
      </trkpt>
      <trkpt lat="49.37923" lon="1.4339">
        <ele>115.94</ele>
        <time>2014-06-22T09:55:37Z</time>
      </trkpt>
      <trkpt lat="49.37941" lon="1.43472">
        <ele>112.57</ele>
        <time>2014-06-22T09:55:42Z</time>
      </trkpt>
      <trkpt lat="49.37947" lon="1.43507">
        <ele>109.22</ele>
        <time>2014-06-22T09:55:44Z</time>
      </trkpt>
      <trkpt lat="49.37954" lon="1.43561">
        <ele>107</ele>
        <time>2014-06-22T09:55:47Z</time>
      </trkpt>
      <trkpt lat="49.37959" lon="1.43596">
        <ele>105.36</ele>
        <time>2014-06-22T09:55:49Z</time>
      </trkpt>
      <trkpt lat="49.37959" lon="1.43689">
        <ele>99.89</ele>
        <time>2014-06-22T09:55:54Z</time>
      </trkpt>
      <trkpt lat="49.37956" lon="1.43727">
        <ele>95.29</ele>
        <time>2014-06-22T09:55:56Z</time>
      </trkpt>
      <trkpt lat="49.3795" lon="1.43783">
        <ele>91.29</ele>
        <time>2014-06-22T09:55:59Z</time>
      </trkpt>
      <trkpt lat="49.37942" lon="1.43834">
        <ele>87.64</ele>
        <time>2014-06-22T09:56:02Z</time>
      </trkpt>
      <trkpt lat="49.37939" lon="1.4385">
        <ele>86.59</ele>
        <time>2014-06-22T09:56:03Z</time>
      </trkpt>
      <trkpt lat="49.37911" lon="1.43915">
        <ele>84.4</ele>
        <time>2014-06-22T09:56:08Z</time>
      </trkpt>
      <trkpt lat="49.37895" lon="1.43976">
        <ele>79.33</ele>
        <time>2014-06-22T09:56:12Z</time>
      </trkpt>
      <trkpt lat="49.37892" lon="1.43993">
        <ele>79.08</ele>
        <time>2014-06-22T09:56:13Z</time>
      </trkpt>
      <trkpt lat="49.37881" lon="1.44094">
        <ele>76.7</ele>
        <time>2014-06-22T09:56:19Z</time>
      </trkpt>
      <trkpt lat="49.37881" lon="1.44176">
        <ele>73.45</ele>
        <time>2014-06-22T09:56:24Z</time>
      </trkpt>
      <trkpt lat="49.37887" lon="1.44219">
        <ele>70.39</ele>
        <time>2014-06-22T09:56:27Z</time>
      </trkpt>
      <trkpt lat="49.37904" lon="1.44293">
        <ele>69.23</ele>
        <time>2014-06-22T09:56:33Z</time>
      </trkpt>
      <trkpt lat="49.37921" lon="1.4435">
        <ele>67.5</ele>
        <time>2014-06-22T09:56:39Z</time>
      </trkpt>
      <trkpt lat="49.37925" lon="1.44367">
        <ele>67.03</ele>
        <time>2014-06-22T09:56:42Z</time>
      </trkpt>
      <trkpt lat="49.37936" lon="1.44362">
        <ele>67.02</ele>
        <time>2014-06-22T09:56:48Z</time>
      </trkpt>
      <trkpt lat="49.37948" lon="1.4435">
        <ele>68.1</ele>
        <time>2014-06-22T09:56:54Z</time>
      </trkpt>
      <trkpt lat="49.3795" lon="1.44349">
        <ele>68.59</ele>
        <time>2014-06-22T09:56:55Z</time>
      </trkpt>
      <trkpt lat="49.37966" lon="1.44351">
        <ele>71.36</ele>
        <time>2014-06-22T09:57:03Z</time>
      </trkpt>
      <trkpt lat="49.3798" lon="1.44354">
        <ele>72.55</ele>
        <time>2014-06-22T09:57:09Z</time>
      </trkpt>
      <trkpt lat="49.37996" lon="1.44358">
        <ele>74.34</ele>
        <time>2014-06-22T09:57:17Z</time>
      </trkpt>
      <trkpt lat="49.38011" lon="1.44361">
        <ele>76.47</ele>
        <time>2014-06-22T09:57:25Z</time>
      </trkpt>
      <trkpt lat="49.38021" lon="1.44364">
        <ele>77.59</ele>
        <time>2014-06-22T09:57:31Z</time>
      </trkpt>
      <trkpt lat="49.38034" lon="1.44365">
        <ele>79.17</ele>
        <time>2014-06-22T09:57:39Z</time>
      </trkpt>
      <trkpt lat="49.38042" lon="1.44356">
        <ele>80.61</ele>
        <time>2014-06-22T09:57:45Z</time>
      </trkpt>
      <trkpt lat="49.38045" lon="1.44343">
        <ele>82.76</ele>
        <time>2014-06-22T09:57:52Z</time>
      </trkpt>
      <trkpt lat="49.38047" lon="1.44323">
        <ele>85.08</ele>
        <time>2014-06-22T09:58:01Z</time>
      </trkpt>
      <trkpt lat="49.38047" lon="1.44298">
        <ele>87.17</ele>
        <time>2014-06-22T09:58:11Z</time>
      </trkpt>
      <trkpt lat="49.38046" lon="1.44275">
        <ele>88.94</ele>
        <time>2014-06-22T09:58:20Z</time>
      </trkpt>
      <trkpt lat="49.38047" lon="1.44258">
        <ele>90.48</ele>
        <time>2014-06-22T09:58:28Z</time>
      </trkpt>
      <trkpt lat="49.38048" lon="1.44241">
        <ele>92.8</ele>
        <time>2014-06-22T09:58:37Z</time>
      </trkpt>
      <trkpt lat="49.38049" lon="1.44224">
        <ele>94.74</ele>
        <time>2014-06-22T09:58:46Z</time>
      </trkpt>
      <trkpt lat="49.38054" lon="1.44208">
        <ele>96.48</ele>
        <time>2014-06-22T09:58:54Z</time>
      </trkpt>
      <trkpt lat="49.38055" lon="1.44207">
        <ele>96.75</ele>
        <time>2014-06-22T09:58:55Z</time>
      </trkpt>
      <trkpt lat="49.38071" lon="1.44208">
        <ele>98.48</ele>
        <time>2014-06-22T09:59:03Z</time>
      </trkpt>
      <trkpt lat="49.38085" lon="1.4421">
        <ele>100.24</ele>
        <time>2014-06-22T09:59:11Z</time>
      </trkpt>
      <trkpt lat="49.38099" lon="1.44208">
        <ele>103.2</ele>
        <time>2014-06-22T09:59:20Z</time>
      </trkpt>
      <trkpt lat="49.38113" lon="1.44212">
        <ele>105.12</ele>
        <time>2014-06-22T09:59:29Z</time>
      </trkpt>
      <trkpt lat="49.38128" lon="1.44215">
        <ele>106.84</ele>
        <time>2014-06-22T09:59:38Z</time>
      </trkpt>
      <trkpt lat="49.38143" lon="1.4422">
        <ele>107.85</ele>
        <time>2014-06-22T09:59:47Z</time>
      </trkpt>
      <trkpt lat="49.3816" lon="1.44223">
        <ele>108.97</ele>
        <time>2014-06-22T09:59:56Z</time>
      </trkpt>
      <trkpt lat="49.38174" lon="1.44227">
        <ele>109.27</ele>
        <time>2014-06-22T10:00:03Z</time>
      </trkpt>
      <trkpt lat="49.38189" lon="1.4423">
        <ele>109.82</ele>
        <time>2014-06-22T10:00:10Z</time>
      </trkpt>
      <trkpt lat="49.38208" lon="1.44236">
        <ele>109.76</ele>
        <time>2014-06-22T10:00:17Z</time>
      </trkpt>
      <trkpt lat="49.38245" lon="1.4424">
        <ele>106.98</ele>
        <time>2014-06-22T10:00:25Z</time>
      </trkpt>
      <trkpt lat="49.3828" lon="1.44244">
        <ele>103.93</ele>
        <time>2014-06-22T10:00:30Z</time>
      </trkpt>
      <trkpt lat="49.38287" lon="1.44244">
        <ele>103.36</ele>
        <time>2014-06-22T10:00:31Z</time>
      </trkpt>
      <trkpt lat="49.3831" lon="1.44255">
        <ele>101.75</ele>
        <time>2014-06-22T10:00:34Z</time>
      </trkpt>
      <trkpt lat="49.38334" lon="1.4427">
        <ele>98.66</ele>
        <time>2014-06-22T10:00:37Z</time>
      </trkpt>
      <trkpt lat="49.3836" lon="1.44282">
        <ele>96.4</ele>
        <time>2014-06-22T10:00:40Z</time>
      </trkpt>
      <trkpt lat="49.38403" lon="1.44297">
        <ele>95.45</ele>
        <time>2014-06-22T10:00:46Z</time>
      </trkpt>
      <trkpt lat="49.38444" lon="1.44315">
        <ele>95.96</ele>
        <time>2014-06-22T10:00:54Z</time>
      </trkpt>
      <trkpt lat="49.38465" lon="1.44321">
        <ele>95.6</ele>
        <time>2014-06-22T10:00:58Z</time>
      </trkpt>
      <trkpt lat="49.38495" lon="1.44311">
        <ele>96.58</ele>
        <time>2014-06-22T10:01:05Z</time>
      </trkpt>
      <trkpt lat="49.38525" lon="1.44304">
        <ele>99.03</ele>
        <time>2014-06-22T10:01:14Z</time>
      </trkpt>
      <trkpt lat="49.38547" lon="1.44305">
        <ele>99.97</ele>
        <time>2014-06-22T10:01:21Z</time>
      </trkpt>
      <trkpt lat="49.38568" lon="1.44317">
        <ele>101.07</ele>
        <time>2014-06-22T10:01:27Z</time>
      </trkpt>
      <trkpt lat="49.38575" lon="1.44322">
        <ele>100.44</ele>
        <time>2014-06-22T10:01:29Z</time>
      </trkpt>
      <trkpt lat="49.38592" lon="1.44329">
        <ele>100.22</ele>
        <time>2014-06-22T10:01:33Z</time>
      </trkpt>
      <trkpt lat="49.386" lon="1.44332">
        <ele>100.16</ele>
        <time>2014-06-22T10:01:35Z</time>
      </trkpt>
      <trkpt lat="49.38625" lon="1.44332">
        <ele>100.86</ele>
        <time>2014-06-22T10:01:42Z</time>
      </trkpt>
      <trkpt lat="49.38649" lon="1.4434">
        <ele>101.24</ele>
        <time>2014-06-22T10:01:49Z</time>
      </trkpt>
      <trkpt lat="49.38676" lon="1.44355">
        <ele>100.06</ele>
        <time>2014-06-22T10:01:56Z</time>
      </trkpt>
      <trkpt lat="49.38694" lon="1.44371">
        <ele>98.54</ele>
        <time>2014-06-22T10:02:02Z</time>
      </trkpt>
      <trkpt lat="49.38718" lon="1.44395">
        <ele>97.66</ele>
        <time>2014-06-22T10:02:08Z</time>
      </trkpt>
      <trkpt lat="49.38747" lon="1.44412">
        <ele>97.68</ele>
        <time>2014-06-22T10:02:14Z</time>
      </trkpt>
      <trkpt lat="49.38765" lon="1.44436">
        <ele>96.98</ele>
        <time>2014-06-22T10:02:18Z</time>
      </trkpt>
      <trkpt lat="49.38777" lon="1.44468">
        <ele>94.65</ele>
        <time>2014-06-22T10:02:22Z</time>
      </trkpt>
      <trkpt lat="49.38782" lon="1.4447">
        <ele>93.06</ele>
        <time>2014-06-22T10:02:25Z</time>
      </trkpt>
      <trkpt lat="49.38782" lon="1.44466">
        <ele>93.03</ele>
        <time>2014-06-22T10:02:32Z</time>
      </trkpt>
      <trkpt lat="49.38788" lon="1.44462">
        <ele>94.59</ele>
        <time>2014-06-22T10:02:43Z</time>
      </trkpt>
      <trkpt lat="49.38804" lon="1.44462">
        <ele>95.03</ele>
        <time>2014-06-22T10:02:56Z</time>
      </trkpt>
      <trkpt lat="49.38817" lon="1.44462">
        <ele>96.01</ele>
        <time>2014-06-22T10:03:03Z</time>
      </trkpt>
      <trkpt lat="49.38831" lon="1.4447">
        <ele>96.08</ele>
        <time>2014-06-22T10:03:09Z</time>
      </trkpt>
      <trkpt lat="49.38851" lon="1.44489">
        <ele>95.03</ele>
        <time>2014-06-22T10:03:16Z</time>
      </trkpt>
      <trkpt lat="49.38863" lon="1.44506">
        <ele>94.78</ele>
        <time>2014-06-22T10:03:23Z</time>
      </trkpt>
      <trkpt lat="49.3887" lon="1.44509">
        <ele>94.83</ele>
        <time>2014-06-22T10:03:31Z</time>
      </trkpt>
      <trkpt lat="49.38871" lon="1.44512">
        <ele>94.45</ele>
        <time>2014-06-22T10:03:34Z</time>
      </trkpt>
      <trkpt lat="49.38865" lon="1.44533">
        <ele>90.66</ele>
        <time>2014-06-22T10:03:40Z</time>
      </trkpt>
      <trkpt lat="49.38861" lon="1.44543">
        <ele>88.72</ele>
        <time>2014-06-22T10:03:42Z</time>
      </trkpt>
      <trkpt lat="49.38855" lon="1.44569">
        <ele>82.96</ele>
        <time>2014-06-22T10:03:46Z</time>
      </trkpt>
      <trkpt lat="49.38854" lon="1.44585">
        <ele>79.95</ele>
        <time>2014-06-22T10:03:49Z</time>
      </trkpt>
      <trkpt lat="49.38858" lon="1.44592">
        <ele>78.29</ele>
        <time>2014-06-22T10:03:54Z</time>
      </trkpt>
      <trkpt lat="49.3886" lon="1.44591">
        <ele>78.15</ele>
        <time>2014-06-22T10:04:03Z</time>
      </trkpt>
      <trkpt lat="49.38867" lon="1.44596">
        <ele>78.19</ele>
        <time>2014-06-22T10:04:11Z</time>
      </trkpt>
      <trkpt lat="49.38875" lon="1.446">
        <ele>78.2</ele>
        <time>2014-06-22T10:04:19Z</time>
      </trkpt>
      <trkpt lat="49.38878" lon="1.44605">
        <ele>77.73</ele>
        <time>2014-06-22T10:04:22Z</time>
      </trkpt>
      <trkpt lat="49.38878" lon="1.4461">
        <ele>77.21</ele>
        <time>2014-06-22T10:04:29Z</time>
      </trkpt>
      <trkpt lat="49.38878" lon="1.44614">
        <ele>76.99</ele>
        <time>2014-06-22T10:04:33Z</time>
      </trkpt>
      <trkpt lat="49.38887" lon="1.44634">
        <ele>73.67</ele>
        <time>2014-06-22T10:04:39Z</time>
      </trkpt>
      <trkpt lat="49.38888" lon="1.44636">
        <ele>73.33</ele>
        <time>2014-06-22T10:04:40Z</time>
      </trkpt>
      <trkpt lat="49.38907" lon="1.44634">
        <ele>72.81</ele>
        <time>2014-06-22T10:04:47Z</time>
      </trkpt>
      <trkpt lat="49.38932" lon="1.44633">
        <ele>72.87</ele>
        <time>2014-06-22T10:04:55Z</time>
      </trkpt>
      <trkpt lat="49.38949" lon="1.44628">
        <ele>73.61</ele>
        <time>2014-06-22T10:05:01Z</time>
      </trkpt>
      <trkpt lat="49.3896" lon="1.44627">
        <ele>74.54</ele>
        <time>2014-06-22T10:05:07Z</time>
      </trkpt>
      <trkpt lat="49.38964" lon="1.44629">
        <ele>74.99</ele>
        <time>2014-06-22T10:05:15Z</time>
      </trkpt>
      <trkpt lat="49.38971" lon="1.4463">
        <ele>75.6</ele>
        <time>2014-06-22T10:05:24Z</time>
      </trkpt>
      <trkpt lat="49.38986" lon="1.44628">
        <ele>76.74</ele>
        <time>2014-06-22T10:05:31Z</time>
      </trkpt>
      <trkpt lat="49.39" lon="1.44628">
        <ele>77.12</ele>
        <time>2014-06-22T10:05:37Z</time>
      </trkpt>
      <trkpt lat="49.3902" lon="1.44637">
        <ele>75.35</ele>
        <time>2014-06-22T10:05:43Z</time>
      </trkpt>
      <trkpt lat="49.39036" lon="1.44658">
        <ele>75.25</ele>
        <time>2014-06-22T10:05:48Z</time>
      </trkpt>
      <trkpt lat="49.39049" lon="1.44681">
        <ele>75.29</ele>
        <time>2014-06-22T10:05:56Z</time>
      </trkpt>
      <trkpt lat="49.39065" lon="1.44707">
        <ele>75.28</ele>
        <time>2014-06-22T10:06:03Z</time>
      </trkpt>
      <trkpt lat="49.39083" lon="1.44735">
        <ele>75.59</ele>
        <time>2014-06-22T10:06:12Z</time>
      </trkpt>
      <trkpt lat="49.39097" lon="1.44765">
        <ele>75.94</ele>
        <time>2014-06-22T10:06:20Z</time>
      </trkpt>
      <trkpt lat="49.39109" lon="1.44782">
        <ele>76.65</ele>
        <time>2014-06-22T10:06:27Z</time>
      </trkpt>
      <trkpt lat="49.39118" lon="1.44794">
        <ele>76.96</ele>
        <time>2014-06-22T10:06:33Z</time>
      </trkpt>
      <trkpt lat="49.39133" lon="1.44811">
        <ele>77.38</ele>
        <time>2014-06-22T10:06:40Z</time>
      </trkpt>
      <trkpt lat="49.39147" lon="1.44837">
        <ele>77.2</ele>
        <time>2014-06-22T10:06:49Z</time>
      </trkpt>
      <trkpt lat="49.39154" lon="1.44862">
        <ele>77.03</ele>
        <time>2014-06-22T10:06:56Z</time>
      </trkpt>
      <trkpt lat="49.39164" lon="1.44868">
        <ele>77.76</ele>
        <time>2014-06-22T10:07:02Z</time>
      </trkpt>
      <trkpt lat="49.39178" lon="1.44869">
        <ele>80</ele>
        <time>2014-06-22T10:07:10Z</time>
      </trkpt>
      <trkpt lat="49.39192" lon="1.44881">
        <ele>81.63</ele>
        <time>2014-06-22T10:07:18Z</time>
      </trkpt>
      <trkpt lat="49.39202" lon="1.44884">
        <ele>83.56</ele>
        <time>2014-06-22T10:07:23Z</time>
      </trkpt>
      <trkpt lat="49.39213" lon="1.44894">
        <ele>86.08</ele>
        <time>2014-06-22T10:07:31Z</time>
      </trkpt>
      <trkpt lat="49.39224" lon="1.44922">
        <ele>88.11</ele>
        <time>2014-06-22T10:07:40Z</time>
      </trkpt>
      <trkpt lat="49.39231" lon="1.44942">
        <ele>88.55</ele>
        <time>2014-06-22T10:07:46Z</time>
      </trkpt>
      <trkpt lat="49.3924" lon="1.44979">
        <ele>87.97</ele>
        <time>2014-06-22T10:07:53Z</time>
      </trkpt>
      <trkpt lat="49.39252" lon="1.45015">
        <ele>87.78</ele>
        <time>2014-06-22T10:07:59Z</time>
      </trkpt>
      <trkpt lat="49.39268" lon="1.45052">
        <ele>87.31</ele>
        <time>2014-06-22T10:08:06Z</time>
      </trkpt>
      <trkpt lat="49.39277" lon="1.45073">
        <ele>86.79</ele>
        <time>2014-06-22T10:08:10Z</time>
      </trkpt>
      <trkpt lat="49.39287" lon="1.45107">
        <ele>85.94</ele>
        <time>2014-06-22T10:08:15Z</time>
      </trkpt>
      <trkpt lat="49.39296" lon="1.45132">
        <ele>85.41</ele>
        <time>2014-06-22T10:08:18Z</time>
      </trkpt>
      <trkpt lat="49.39308" lon="1.45163">
        <ele>85.03</ele>
        <time>2014-06-22T10:08:22Z</time>
      </trkpt>
      <trkpt lat="49.39315" lon="1.45181">
        <ele>85.11</ele>
        <time>2014-06-22T10:08:24Z</time>
      </trkpt>
      <trkpt lat="49.39322" lon="1.45194">
        <ele>84.47</ele>
        <time>2014-06-22T10:08:26Z</time>
      </trkpt>
      <trkpt lat="49.39332" lon="1.4522">
        <ele>83.9</ele>
        <time>2014-06-22T10:08:29Z</time>
      </trkpt>
      <trkpt lat="49.39355" lon="1.45267">
        <ele>83.85</ele>
        <time>2014-06-22T10:08:35Z</time>
      </trkpt>
      <trkpt lat="49.39371" lon="1.45312">
        <ele>83.52</ele>
        <time>2014-06-22T10:08:41Z</time>
      </trkpt>
      <trkpt lat="49.39385" lon="1.45349">
        <ele>83.71</ele>
        <time>2014-06-22T10:08:46Z</time>
      </trkpt>
      <trkpt lat="49.39397" lon="1.45382">
        <ele>84.52</ele>
        <time>2014-06-22T10:08:51Z</time>
      </trkpt>
      <trkpt lat="49.39417" lon="1.45451">
        <ele>84.86</ele>
        <time>2014-06-22T10:09:00Z</time>
      </trkpt>
      <trkpt lat="49.39425" lon="1.45477">
        <ele>85.11</ele>
        <time>2014-06-22T10:09:04Z</time>
      </trkpt>
      <trkpt lat="49.39439" lon="1.45524">
        <ele>84.89</ele>
        <time>2014-06-22T10:09:11Z</time>
      </trkpt>
      <trkpt lat="49.39448" lon="1.45559">
        <ele>85.65</ele>
        <time>2014-06-22T10:09:16Z</time>
      </trkpt>
      <trkpt lat="49.39457" lon="1.45601">
        <ele>85.62</ele>
        <time>2014-06-22T10:09:22Z</time>
      </trkpt>
      <trkpt lat="49.39461" lon="1.45632">
        <ele>85.48</ele>
        <time>2014-06-22T10:09:26Z</time>
      </trkpt>
      <trkpt lat="49.39463" lon="1.45646">
        <ele>85.28</ele>
        <time>2014-06-22T10:09:28Z</time>
      </trkpt>
      <trkpt lat="49.39465" lon="1.45668">
        <ele>85.31</ele>
        <time>2014-06-22T10:09:31Z</time>
      </trkpt>
      <trkpt lat="49.39468" lon="1.45719">
        <ele>86.03</ele>
        <time>2014-06-22T10:09:38Z</time>
      </trkpt>
      <trkpt lat="49.39471" lon="1.45734">
        <ele>86.26</ele>
        <time>2014-06-22T10:09:40Z</time>
      </trkpt>
      <trkpt lat="49.3948" lon="1.45784">
        <ele>85.03</ele>
        <time>2014-06-22T10:09:47Z</time>
      </trkpt>
      <trkpt lat="49.39497" lon="1.45856">
        <ele>83.65</ele>
        <time>2014-06-22T10:09:55Z</time>
      </trkpt>
      <trkpt lat="49.3951" lon="1.45924">
        <ele>84.2</ele>
        <time>2014-06-22T10:10:03Z</time>
      </trkpt>
      <trkpt lat="49.39518" lon="1.45967">
        <ele>85.33</ele>
        <time>2014-06-22T10:10:09Z</time>
      </trkpt>
      <trkpt lat="49.39525" lon="1.46003">
        <ele>86.1</ele>
        <time>2014-06-22T10:10:15Z</time>
      </trkpt>
      <trkpt lat="49.3953" lon="1.46046">
        <ele>86.45</ele>
        <time>2014-06-22T10:10:22Z</time>
      </trkpt>
      <trkpt lat="49.39532" lon="1.46084">
        <ele>87.63</ele>
        <time>2014-06-22T10:10:29Z</time>
      </trkpt>
      <trkpt lat="49.39538" lon="1.46131">
        <ele>88.67</ele>
        <time>2014-06-22T10:10:36Z</time>
      </trkpt>
      <trkpt lat="49.39552" lon="1.46167">
        <ele>89.15</ele>
        <time>2014-06-22T10:10:43Z</time>
      </trkpt>
      <trkpt lat="49.39571" lon="1.4621">
        <ele>88.87</ele>
        <time>2014-06-22T10:10:51Z</time>
      </trkpt>
      <trkpt lat="49.39599" lon="1.46262">
        <ele>87.84</ele>
        <time>2014-06-22T10:11:00Z</time>
      </trkpt>
      <trkpt lat="49.39635" lon="1.46294">
        <ele>85.83</ele>
        <time>2014-06-22T10:11:07Z</time>
      </trkpt>
      <trkpt lat="49.39678" lon="1.46334">
        <ele>84.46</ele>
        <time>2014-06-22T10:11:15Z</time>
      </trkpt>
      <trkpt lat="49.397" lon="1.46363">
        <ele>84.43</ele>
        <time>2014-06-22T10:11:20Z</time>
      </trkpt>
      <trkpt lat="49.39709" lon="1.46377">
        <ele>84.1</ele>
        <time>2014-06-22T10:11:22Z</time>
      </trkpt>
      <trkpt lat="49.39718" lon="1.46389">
        <ele>83.53</ele>
        <time>2014-06-22T10:11:24Z</time>
      </trkpt>
      <trkpt lat="49.39737" lon="1.46424">
        <ele>81.86</ele>
        <time>2014-06-22T10:11:29Z</time>
      </trkpt>
      <trkpt lat="49.39755" lon="1.46482">
        <ele>81.1</ele>
        <time>2014-06-22T10:11:37Z</time>
      </trkpt>
      <trkpt lat="49.39764" lon="1.46511">
        <ele>80.78</ele>
        <time>2014-06-22T10:11:41Z</time>
      </trkpt>
      <trkpt lat="49.39775" lon="1.46536">
        <ele>80.78</ele>
        <time>2014-06-22T10:11:45Z</time>
      </trkpt>
      <trkpt lat="49.39799" lon="1.4659">
        <ele>80.86</ele>
        <time>2014-06-22T10:11:53Z</time>
      </trkpt>
      <trkpt lat="49.39813" lon="1.46621">
        <ele>81.24</ele>
        <time>2014-06-22T10:11:58Z</time>
      </trkpt>
      <trkpt lat="49.39823" lon="1.46654">
        <ele>81.35</ele>
        <time>2014-06-22T10:12:03Z</time>
      </trkpt>
      <trkpt lat="49.39829" lon="1.46681">
        <ele>81.73</ele>
        <time>2014-06-22T10:12:09Z</time>
      </trkpt>
      <trkpt lat="49.39841" lon="1.46682">
        <ele>81.84</ele>
        <time>2014-06-22T10:12:14Z</time>
      </trkpt>
      <trkpt lat="49.39871" lon="1.46658">
        <ele>84.11</ele>
        <time>2014-06-22T10:12:23Z</time>
      </trkpt>
      <trkpt lat="49.39889" lon="1.46644">
        <ele>84.84</ele>
        <time>2014-06-22T10:12:29Z</time>
      </trkpt>
      <trkpt lat="49.39905" lon="1.46638">
        <ele>86.44</ele>
        <time>2014-06-22T10:12:36Z</time>
      </trkpt>
      <trkpt lat="49.3992" lon="1.46645">
        <ele>87.81</ele>
        <time>2014-06-22T10:12:43Z</time>
      </trkpt>
      <trkpt lat="49.39943" lon="1.46654">
        <ele>89.89</ele>
        <time>2014-06-22T10:12:53Z</time>
      </trkpt>
      <trkpt lat="49.39965" lon="1.46664">
        <ele>92.71</ele>
        <time>2014-06-22T10:13:03Z</time>
      </trkpt>
      <trkpt lat="49.39988" lon="1.46679">
        <ele>95.86</ele>
        <time>2014-06-22T10:13:13Z</time>
      </trkpt>
      <trkpt lat="49.40009" lon="1.46688">
        <ele>98.37</ele>
        <time>2014-06-22T10:13:22Z</time>
      </trkpt>
      <trkpt lat="49.40016" lon="1.46691">
        <ele>99.37</ele>
        <time>2014-06-22T10:13:25Z</time>
      </trkpt>
      <trkpt lat="49.40032" lon="1.4671">
        <ele>101.43</ele>
        <time>2014-06-22T10:13:34Z</time>
      </trkpt>
      <trkpt lat="49.40043" lon="1.4672">
        <ele>102.95</ele>
        <time>2014-06-22T10:13:41Z</time>
      </trkpt>
      <trkpt lat="49.40056" lon="1.46727">
        <ele>104.36</ele>
        <time>2014-06-22T10:13:48Z</time>
      </trkpt>
      <trkpt lat="49.40057" lon="1.46728">
        <ele>104.58</ele>
        <time>2014-06-22T10:13:49Z</time>
      </trkpt>
      <trkpt lat="49.40064" lon="1.46731">
        <ele>105.77</ele>
        <time>2014-06-22T10:13:54Z</time>
      </trkpt>
      <trkpt lat="49.40076" lon="1.46736">
        <ele>108.11</ele>
        <time>2014-06-22T10:14:02Z</time>
      </trkpt>
      <trkpt lat="49.40091" lon="1.46745">
        <ele>110.26</ele>
        <time>2014-06-22T10:14:09Z</time>
      </trkpt>
      <trkpt lat="49.40105" lon="1.46754">
        <ele>112.09</ele>
        <time>2014-06-22T10:14:16Z</time>
      </trkpt>
      <trkpt lat="49.4012" lon="1.46767">
        <ele>114.44</ele>
        <time>2014-06-22T10:14:24Z</time>
      </trkpt>
      <trkpt lat="49.40129" lon="1.46784">
        <ele>116.27</ele>
        <time>2014-06-22T10:14:30Z</time>
      </trkpt>
      <trkpt lat="49.40132" lon="1.46809">
        <ele>115.72</ele>
        <time>2014-06-22T10:14:37Z</time>
      </trkpt>
      <trkpt lat="49.40137" lon="1.46843">
        <ele>115.33</ele>
        <time>2014-06-22T10:14:45Z</time>
      </trkpt>
      <trkpt lat="49.40143" lon="1.46865">
        <ele>115.29</ele>
        <time>2014-06-22T10:14:50Z</time>
      </trkpt>
      <trkpt lat="49.40153" lon="1.46906">
        <ele>114.83</ele>
        <time>2014-06-22T10:14:57Z</time>
      </trkpt>
      <trkpt lat="49.40165" lon="1.46956">
        <ele>114.26</ele>
        <time>2014-06-22T10:15:04Z</time>
      </trkpt>
      <trkpt lat="49.40169" lon="1.46975">
        <ele>113.77</ele>
        <time>2014-06-22T10:15:07Z</time>
      </trkpt>
      <trkpt lat="49.40178" lon="1.47027">
        <ele>113.69</ele>
        <time>2014-06-22T10:15:15Z</time>
      </trkpt>
      <trkpt lat="49.40186" lon="1.4705">
        <ele>114.12</ele>
        <time>2014-06-22T10:15:18Z</time>
      </trkpt>
      <trkpt lat="49.402" lon="1.47106">
        <ele>114.49</ele>
        <time>2014-06-22T10:15:25Z</time>
      </trkpt>
      <trkpt lat="49.40209" lon="1.47139">
        <ele>115.15</ele>
        <time>2014-06-22T10:15:31Z</time>
      </trkpt>
      <trkpt lat="49.40206" lon="1.47167">
        <ele>113.49</ele>
        <time>2014-06-22T10:15:36Z</time>
      </trkpt>
      <trkpt lat="49.40204" lon="1.47174">
        <ele>112.58</ele>
        <time>2014-06-22T10:15:37Z</time>
      </trkpt>
      <trkpt lat="49.40197" lon="1.47204">
        <ele>108.02</ele>
        <time>2014-06-22T10:15:42Z</time>
      </trkpt>
      <trkpt lat="49.4019" lon="1.47223">
        <ele>104.81</ele>
        <time>2014-06-22T10:15:45Z</time>
      </trkpt>
      <trkpt lat="49.40188" lon="1.47229">
        <ele>104.39</ele>
        <time>2014-06-22T10:15:46Z</time>
      </trkpt>
      <trkpt lat="49.40188" lon="1.47264">
        <ele>101.51</ele>
        <time>2014-06-22T10:15:51Z</time>
      </trkpt>
      <trkpt lat="49.40172" lon="1.47272">
        <ele>96.9</ele>
        <time>2014-06-22T10:15:55Z</time>
      </trkpt>
      <trkpt lat="49.40167" lon="1.47272">
        <ele>96.1</ele>
        <time>2014-06-22T10:15:56Z</time>
      </trkpt>
      <trkpt lat="49.4015" lon="1.47285">
        <ele>90.76</ele>
        <time>2014-06-22T10:16:01Z</time>
      </trkpt>
      <trkpt lat="49.4015" lon="1.4729">
        <ele>89.87</ele>
        <time>2014-06-22T10:16:02Z</time>
      </trkpt>
      <trkpt lat="49.40159" lon="1.4731">
        <ele>87.24</ele>
        <time>2014-06-22T10:16:07Z</time>
      </trkpt>
      <trkpt lat="49.40192" lon="1.4735">
        <ele>87.79</ele>
        <time>2014-06-22T10:16:16Z</time>
      </trkpt>
      <trkpt lat="49.40215" lon="1.47386">
        <ele>88.22</ele>
        <time>2014-06-22T10:16:23Z</time>
      </trkpt>
      <trkpt lat="49.40229" lon="1.47405">
        <ele>89.07</ele>
        <time>2014-06-22T10:16:28Z</time>
      </trkpt>
      <trkpt lat="49.40247" lon="1.47436">
        <ele>89.99</ele>
        <time>2014-06-22T10:16:35Z</time>
      </trkpt>
      <trkpt lat="49.40263" lon="1.47463">
        <ele>89.93</ele>
        <time>2014-06-22T10:16:42Z</time>
      </trkpt>
      <trkpt lat="49.40275" lon="1.47482">
        <ele>90.48</ele>
        <time>2014-06-22T10:16:47Z</time>
      </trkpt>
      <trkpt lat="49.40282" lon="1.47496">
        <ele>90.81</ele>
        <time>2014-06-22T10:16:50Z</time>
      </trkpt>
      <trkpt lat="49.40298" lon="1.47529">
        <ele>90.95</ele>
        <time>2014-06-22T10:16:58Z</time>
      </trkpt>
      <trkpt lat="49.40306" lon="1.47542">
        <ele>91.31</ele>
        <time>2014-06-22T10:17:04Z</time>
      </trkpt>
      <trkpt lat="49.40317" lon="1.47559">
        <ele>91.82</ele>
        <time>2014-06-22T10:17:11Z</time>
      </trkpt>
      <trkpt lat="49.40324" lon="1.47593">
        <ele>91.91</ele>
        <time>2014-06-22T10:17:16Z</time>
      </trkpt>
      <trkpt lat="49.40335" lon="1.4764">
        <ele>92.12</ele>
        <time>2014-06-22T10:17:25Z</time>
      </trkpt>
      <trkpt lat="49.40347" lon="1.47693">
        <ele>92.5</ele>
        <time>2014-06-22T10:17:31Z</time>
      </trkpt>
      <trkpt lat="49.40361" lon="1.47742">
        <ele>92.46</ele>
        <time>2014-06-22T10:17:39Z</time>
      </trkpt>
      <trkpt lat="49.40366" lon="1.47762">
        <ele>92.6</ele>
        <time>2014-06-22T10:17:44Z</time>
      </trkpt>
      <trkpt lat="49.40358" lon="1.47781">
        <ele>92.35</ele>
        <time>2014-06-22T10:17:50Z</time>
      </trkpt>
      <trkpt lat="49.40352" lon="1.47799">
        <ele>91.42</ele>
        <time>2014-06-22T10:17:57Z</time>
      </trkpt>
      <trkpt lat="49.40351" lon="1.47804">
        <ele>91.45</ele>
        <time>2014-06-22T10:17:59Z</time>
      </trkpt>
      <trkpt lat="49.4036" lon="1.47838">
        <ele>91.94</ele>
        <time>2014-06-22T10:18:06Z</time>
      </trkpt>
      <trkpt lat="49.40369" lon="1.47883">
        <ele>93.14</ele>
        <time>2014-06-22T10:18:14Z</time>
      </trkpt>
      <trkpt lat="49.40378" lon="1.47928">
        <ele>94.65</ele>
        <time>2014-06-22T10:18:22Z</time>
      </trkpt>
      <trkpt lat="49.40389" lon="1.47989">
        <ele>96.61</ele>
        <time>2014-06-22T10:18:31Z</time>
      </trkpt>
      <trkpt lat="49.40401" lon="1.48055">
        <ele>98.65</ele>
        <time>2014-06-22T10:18:41Z</time>
      </trkpt>
      <trkpt lat="49.4041" lon="1.48105">
        <ele>99.89</ele>
        <time>2014-06-22T10:18:49Z</time>
      </trkpt>
      <trkpt lat="49.40424" lon="1.48181">
        <ele>102.96</ele>
        <time>2014-06-22T10:19:01Z</time>
      </trkpt>
      <trkpt lat="49.40425" lon="1.48188">
        <ele>103.35</ele>
        <time>2014-06-22T10:19:02Z</time>
      </trkpt>
      <trkpt lat="49.40447" lon="1.48254">
        <ele>101.86</ele>
        <time>2014-06-22T10:19:11Z</time>
      </trkpt>
      <trkpt lat="49.4045" lon="1.48262">
        <ele>101.34</ele>
        <time>2014-06-22T10:19:12Z</time>
      </trkpt>
      <trkpt lat="49.4048" lon="1.48314">
        <ele>98.38</ele>
        <time>2014-06-22T10:19:19Z</time>
      </trkpt>
      <trkpt lat="49.40494" lon="1.48353">
        <ele>96.82</ele>
        <time>2014-06-22T10:19:23Z</time>
      </trkpt>
      <trkpt lat="49.40534" lon="1.48435">
        <ele>95.15</ele>
        <time>2014-06-22T10:19:32Z</time>
      </trkpt>
      <trkpt lat="49.40562" lon="1.48485">
        <ele>94.71</ele>
        <time>2014-06-22T10:19:39Z</time>
      </trkpt>
      <trkpt lat="49.40594" lon="1.48543">
        <ele>95.59</ele>
        <time>2014-06-22T10:19:48Z</time>
      </trkpt>
      <trkpt lat="49.40594" lon="1.48577">
        <ele>95.31</ele>
        <time>2014-06-22T10:19:52Z</time>
      </trkpt>
      <trkpt lat="49.40579" lon="1.4864">
        <ele>92.68</ele>
        <time>2014-06-22T10:19:58Z</time>
      </trkpt>
      <trkpt lat="49.40566" lon="1.487">
        <ele>91.75</ele>
        <time>2014-06-22T10:20:04Z</time>
      </trkpt>
      <trkpt lat="49.40546" lon="1.48764">
        <ele>91.86</ele>
        <time>2014-06-22T10:20:12Z</time>
      </trkpt>
      <trkpt lat="49.40524" lon="1.48827">
        <ele>92.61</ele>
        <time>2014-06-22T10:20:21Z</time>
      </trkpt>
      <trkpt lat="49.40507" lon="1.48868">
        <ele>93.44</ele>
        <time>2014-06-22T10:20:28Z</time>
      </trkpt>
      <trkpt lat="49.40498" lon="1.48898">
        <ele>95.52</ele>
        <time>2014-06-22T10:20:35Z</time>
      </trkpt>
      <trkpt lat="49.40499" lon="1.48921">
        <ele>97.54</ele>
        <time>2014-06-22T10:20:41Z</time>
      </trkpt>
      <trkpt lat="49.405" lon="1.4894">
        <ele>98.84</ele>
        <time>2014-06-22T10:20:47Z</time>
      </trkpt>
      <trkpt lat="49.40492" lon="1.4897">
        <ele>99.08</ele>
        <time>2014-06-22T10:20:54Z</time>
      </trkpt>
      <trkpt lat="49.40486" lon="1.48999">
        <ele>101.07</ele>
        <time>2014-06-22T10:21:01Z</time>
      </trkpt>
      <trkpt lat="49.40481" lon="1.49035">
        <ele>102.01</ele>
        <time>2014-06-22T10:21:08Z</time>
      </trkpt>
      <trkpt lat="49.40475" lon="1.49072">
        <ele>101.9</ele>
        <time>2014-06-22T10:21:15Z</time>
      </trkpt>
      <trkpt lat="49.40464" lon="1.49131">
        <ele>102.54</ele>
        <time>2014-06-22T10:21:24Z</time>
      </trkpt>
      <trkpt lat="49.40457" lon="1.49161">
        <ele>103.34</ele>
        <time>2014-06-22T10:21:30Z</time>
      </trkpt>
      <trkpt lat="49.40445" lon="1.49194">
        <ele>105.09</ele>
        <time>2014-06-22T10:21:37Z</time>
      </trkpt>
      <trkpt lat="49.40428" lon="1.49217">
        <ele>106.21</ele>
        <time>2014-06-22T10:21:45Z</time>
      </trkpt>
      <trkpt lat="49.40412" lon="1.49233">
        <ele>106.22</ele>
        <time>2014-06-22T10:21:51Z</time>
      </trkpt>
      <trkpt lat="49.40394" lon="1.49253">
        <ele>106.6</ele>
        <time>2014-06-22T10:21:56Z</time>
      </trkpt>
      <trkpt lat="49.40373" lon="1.49273">
        <ele>107.8</ele>
        <time>2014-06-22T10:22:02Z</time>
      </trkpt>
      <trkpt lat="49.40353" lon="1.49289">
        <ele>107.88</ele>
        <time>2014-06-22T10:22:08Z</time>
      </trkpt>
      <trkpt lat="49.40331" lon="1.49303">
        <ele>108.72</ele>
        <time>2014-06-22T10:22:14Z</time>
      </trkpt>
      <trkpt lat="49.40313" lon="1.49317">
        <ele>108.29</ele>
        <time>2014-06-22T10:22:19Z</time>
      </trkpt>
      <trkpt lat="49.40301" lon="1.49326">
        <ele>108.2</ele>
        <time>2014-06-22T10:22:22Z</time>
      </trkpt>
      <trkpt lat="49.40279" lon="1.49358">
        <ele>109.34</ele>
        <time>2014-06-22T10:22:30Z</time>
      </trkpt>
      <trkpt lat="49.40278" lon="1.49385">
        <ele>109.52</ele>
        <time>2014-06-22T10:22:35Z</time>
      </trkpt>
      <trkpt lat="49.40284" lon="1.49408">
        <ele>109.36</ele>
        <time>2014-06-22T10:22:39Z</time>
      </trkpt>
      <trkpt lat="49.40298" lon="1.49445">
        <ele>109.32</ele>
        <time>2014-06-22T10:22:46Z</time>
      </trkpt>
      <trkpt lat="49.40313" lon="1.49471">
        <ele>110.29</ele>
        <time>2014-06-22T10:22:53Z</time>
      </trkpt>
      <trkpt lat="49.40331" lon="1.49501">
        <ele>111.45</ele>
        <time>2014-06-22T10:23:02Z</time>
      </trkpt>
      <trkpt lat="49.40343" lon="1.4953">
        <ele>112.1</ele>
        <time>2014-06-22T10:23:08Z</time>
      </trkpt>
      <trkpt lat="49.40351" lon="1.49566">
        <ele>112.98</ele>
        <time>2014-06-22T10:23:14Z</time>
      </trkpt>
      <trkpt lat="49.40352" lon="1.49594">
        <ele>112.96</ele>
        <time>2014-06-22T10:23:20Z</time>
      </trkpt>
      <trkpt lat="49.40351" lon="1.49601">
        <ele>112.94</ele>
        <time>2014-06-22T10:23:21Z</time>
      </trkpt>
      <trkpt lat="49.40344" lon="1.49654">
        <ele>112.89</ele>
        <time>2014-06-22T10:23:27Z</time>
      </trkpt>
      <trkpt lat="49.40331" lon="1.49704">
        <ele>113.97</ele>
        <time>2014-06-22T10:23:35Z</time>
      </trkpt>
      <trkpt lat="49.40323" lon="1.49731">
        <ele>114.88</ele>
        <time>2014-06-22T10:23:41Z</time>
      </trkpt>
      <trkpt lat="49.40311" lon="1.49757">
        <ele>115.77</ele>
        <time>2014-06-22T10:23:47Z</time>
      </trkpt>
      <trkpt lat="49.40299" lon="1.49776">
        <ele>115.69</ele>
        <time>2014-06-22T10:23:53Z</time>
      </trkpt>
      <trkpt lat="49.40285" lon="1.49797">
        <ele>116.5</ele>
        <time>2014-06-22T10:24:00Z</time>
      </trkpt>
      <trkpt lat="49.40266" lon="1.49824">
        <ele>117.22</ele>
        <time>2014-06-22T10:24:07Z</time>
      </trkpt>
      <trkpt lat="49.40249" lon="1.49844">
        <ele>117.65</ele>
        <time>2014-06-22T10:24:13Z</time>
      </trkpt>
      <trkpt lat="49.4023" lon="1.49866">
        <ele>118.03</ele>
        <time>2014-06-22T10:24:20Z</time>
      </trkpt>
      <trkpt lat="49.40213" lon="1.49886">
        <ele>119.03</ele>
        <time>2014-06-22T10:24:27Z</time>
      </trkpt>
      <trkpt lat="49.40193" lon="1.49911">
        <ele>119.7</ele>
        <time>2014-06-22T10:24:34Z</time>
      </trkpt>
      <trkpt lat="49.40172" lon="1.49934">
        <ele>121.03</ele>
        <time>2014-06-22T10:24:41Z</time>
      </trkpt>
      <trkpt lat="49.40156" lon="1.49959">
        <ele>121.66</ele>
        <time>2014-06-22T10:24:48Z</time>
      </trkpt>
      <trkpt lat="49.40144" lon="1.49983">
        <ele>123.29</ele>
        <time>2014-06-22T10:24:55Z</time>
      </trkpt>
      <trkpt lat="49.40131" lon="1.50025">
        <ele>123.69</ele>
        <time>2014-06-22T10:25:04Z</time>
      </trkpt>
      <trkpt lat="49.4012" lon="1.50064">
        <ele>123.41</ele>
        <time>2014-06-22T10:25:11Z</time>
      </trkpt>
      <trkpt lat="49.40108" lon="1.50057">
        <ele>122.62</ele>
        <time>2014-06-22T10:25:18Z</time>
      </trkpt>
      <trkpt lat="49.40092" lon="1.50043">
        <ele>124.43</ele>
        <time>2014-06-22T10:25:26Z</time>
      </trkpt>
      <trkpt lat="49.40081" lon="1.50034">
        <ele>126.76</ele>
        <time>2014-06-22T10:25:33Z</time>
      </trkpt>
      <trkpt lat="49.40071" lon="1.50021">
        <ele>128.49</ele>
        <time>2014-06-22T10:25:40Z</time>
      </trkpt>
      <trkpt lat="49.40059" lon="1.50011">
        <ele>130.37</ele>
        <time>2014-06-22T10:25:48Z</time>
      </trkpt>
      <trkpt lat="49.40055" lon="1.50009">
        <ele>130.43</ele>
        <time>2014-06-22T10:25:50Z</time>
      </trkpt>
      <trkpt lat="49.40041" lon="1.49997">
        <ele>133.11</ele>
        <time>2014-06-22T10:26:01Z</time>
      </trkpt>
      <trkpt lat="49.4003" lon="1.49994">
        <ele>134.14</ele>
        <time>2014-06-22T10:26:08Z</time>
      </trkpt>
      <trkpt lat="49.40018" lon="1.4998">
        <ele>135.88</ele>
        <time>2014-06-22T10:26:16Z</time>
      </trkpt>
      <trkpt lat="49.40005" lon="1.49973">
        <ele>138.52</ele>
        <time>2014-06-22T10:26:24Z</time>
      </trkpt>
      <trkpt lat="49.39998" lon="1.49966">
        <ele>140.06</ele>
        <time>2014-06-22T10:26:29Z</time>
      </trkpt>
      <trkpt lat="49.39985" lon="1.4996">
        <ele>142.78</ele>
        <time>2014-06-22T10:26:38Z</time>
      </trkpt>
      <trkpt lat="49.3998" lon="1.49942">
        <ele>144.02</ele>
        <time>2014-06-22T10:26:45Z</time>
      </trkpt>
      <trkpt lat="49.39984" lon="1.49921">
        <ele>143.93</ele>
        <time>2014-06-22T10:26:53Z</time>
      </trkpt>
      <trkpt lat="49.39991" lon="1.49896">
        <ele>142.96</ele>
        <time>2014-06-22T10:26:59Z</time>
      </trkpt>
      <trkpt lat="49.39999" lon="1.49878">
        <ele>142.01</ele>
        <time>2014-06-22T10:27:04Z</time>
      </trkpt>
      <trkpt lat="49.40009" lon="1.49848">
        <ele>142.44</ele>
        <time>2014-06-22T10:27:10Z</time>
      </trkpt>
      <trkpt lat="49.40021" lon="1.4982">
        <ele>141.61</ele>
        <time>2014-06-22T10:27:16Z</time>
      </trkpt>
      <trkpt lat="49.40034" lon="1.49788">
        <ele>141.39</ele>
        <time>2014-06-22T10:27:23Z</time>
      </trkpt>
      <trkpt lat="49.40045" lon="1.49764">
        <ele>142.41</ele>
        <time>2014-06-22T10:27:30Z</time>
      </trkpt>
      <trkpt lat="49.40061" lon="1.49731">
        <ele>143.21</ele>
        <time>2014-06-22T10:27:38Z</time>
      </trkpt>
      <trkpt lat="49.4007" lon="1.49712">
        <ele>142.73</ele>
        <time>2014-06-22T10:27:45Z</time>
      </trkpt>
      <trkpt lat="49.40083" lon="1.49698">
        <ele>141.75</ele>
        <time>2014-06-22T10:27:51Z</time>
      </trkpt>
      <trkpt lat="49.40087" lon="1.49697">
        <ele>141.49</ele>
        <time>2014-06-22T10:27:52Z</time>
      </trkpt>
      <trkpt lat="49.40099" lon="1.49667">
        <ele>139.91</ele>
        <time>2014-06-22T10:27:57Z</time>
      </trkpt>
      <trkpt lat="49.40105" lon="1.49647">
        <ele>140.2</ele>
        <time>2014-06-22T10:28:00Z</time>
      </trkpt>
      <trkpt lat="49.40114" lon="1.496">
        <ele>138.55</ele>
        <time>2014-06-22T10:28:06Z</time>
      </trkpt>
      <trkpt lat="49.40114" lon="1.49593">
        <ele>138.29</ele>
        <time>2014-06-22T10:28:07Z</time>
      </trkpt>
      <trkpt lat="49.40116" lon="1.49544">
        <ele>135.08</ele>
        <time>2014-06-22T10:28:14Z</time>
      </trkpt>
      <trkpt lat="49.40109" lon="1.49504">
        <ele>133.55</ele>
        <time>2014-06-22T10:28:22Z</time>
      </trkpt>
      <trkpt lat="49.40106" lon="1.49489">
        <ele>132.58</ele>
        <time>2014-06-22T10:28:25Z</time>
      </trkpt>
      <trkpt lat="49.40104" lon="1.49485">
        <ele>132.32</ele>
        <time>2014-06-22T10:28:26Z</time>
      </trkpt>
      <trkpt lat="49.40095" lon="1.49478">
        <ele>132.38</ele>
        <time>2014-06-22T10:28:31Z</time>
      </trkpt>
      <trkpt lat="49.40074" lon="1.49472">
        <ele>133.63</ele>
        <time>2014-06-22T10:28:38Z</time>
      </trkpt>
      <trkpt lat="49.40056" lon="1.49467">
        <ele>134.18</ele>
        <time>2014-06-22T10:28:45Z</time>
      </trkpt>
      <trkpt lat="49.40042" lon="1.49474">
        <ele>136.07</ele>
        <time>2014-06-22T10:28:51Z</time>
      </trkpt>
      <trkpt lat="49.40024" lon="1.49469">
        <ele>137.26</ele>
        <time>2014-06-22T10:28:58Z</time>
      </trkpt>
      <trkpt lat="49.4002" lon="1.49451">
        <ele>137.16</ele>
        <time>2014-06-22T10:29:02Z</time>
      </trkpt>
      <trkpt lat="49.40023" lon="1.4941">
        <ele>136.83</ele>
        <time>2014-06-22T10:29:08Z</time>
      </trkpt>
      <trkpt lat="49.40028" lon="1.49379">
        <ele>138.21</ele>
        <time>2014-06-22T10:29:15Z</time>
      </trkpt>
      <trkpt lat="49.40031" lon="1.49347">
        <ele>140.05</ele>
        <time>2014-06-22T10:29:22Z</time>
      </trkpt>
      <trkpt lat="49.40034" lon="1.49315">
        <ele>140.64</ele>
        <time>2014-06-22T10:29:29Z</time>
      </trkpt>
      <trkpt lat="49.40032" lon="1.49275">
        <ele>141.74</ele>
        <time>2014-06-22T10:29:37Z</time>
      </trkpt>
      <trkpt lat="49.4003" lon="1.49253">
        <ele>142.87</ele>
        <time>2014-06-22T10:29:43Z</time>
      </trkpt>
      <trkpt lat="49.40023" lon="1.49229">
        <ele>144.25</ele>
        <time>2014-06-22T10:29:49Z</time>
      </trkpt>
      <trkpt lat="49.4002" lon="1.49204">
        <ele>144.26</ele>
        <time>2014-06-22T10:29:55Z</time>
      </trkpt>
      <trkpt lat="49.40017" lon="1.49164">
        <ele>145.3</ele>
        <time>2014-06-22T10:30:03Z</time>
      </trkpt>
      <trkpt lat="49.40012" lon="1.4913">
        <ele>145.87</ele>
        <time>2014-06-22T10:30:10Z</time>
      </trkpt>
      <trkpt lat="49.40006" lon="1.49087">
        <ele>147.14</ele>
        <time>2014-06-22T10:30:19Z</time>
      </trkpt>
      <trkpt lat="49.40002" lon="1.49059">
        <ele>148.06</ele>
        <time>2014-06-22T10:30:26Z</time>
      </trkpt>
      <trkpt lat="49.39997" lon="1.49035">
        <ele>148.75</ele>
        <time>2014-06-22T10:30:33Z</time>
      </trkpt>
      <trkpt lat="49.39994" lon="1.49027">
        <ele>148.79</ele>
        <time>2014-06-22T10:30:36Z</time>
      </trkpt>
      <trkpt lat="49.39995" lon="1.49013">
        <ele>148.64</ele>
        <time>2014-06-22T10:30:40Z</time>
      </trkpt>
      <trkpt lat="49.39994" lon="1.48992">
        <ele>149.09</ele>
        <time>2014-06-22T10:30:45Z</time>
      </trkpt>
      <trkpt lat="49.39999" lon="1.48986">
        <ele>149.08</ele>
        <time>2014-06-22T10:30:49Z</time>
      </trkpt>
      <trkpt lat="49.40022" lon="1.48969">
        <ele>148.48</ele>
        <time>2014-06-22T10:30:56Z</time>
      </trkpt>
      <trkpt lat="49.40046" lon="1.48945">
        <ele>147.46</ele>
        <time>2014-06-22T10:31:01Z</time>
      </trkpt>
      <trkpt lat="49.4006" lon="1.48928">
        <ele>146.97</ele>
        <time>2014-06-22T10:31:04Z</time>
      </trkpt>
      <trkpt lat="49.40074" lon="1.48898">
        <ele>145.82</ele>
        <time>2014-06-22T10:31:09Z</time>
      </trkpt>
      <trkpt lat="49.40084" lon="1.48879">
        <ele>145.09</ele>
        <time>2014-06-22T10:31:12Z</time>
      </trkpt>
      <trkpt lat="49.40088" lon="1.48845">
        <ele>144.78</ele>
        <time>2014-06-22T10:31:17Z</time>
      </trkpt>
      <trkpt lat="49.40082" lon="1.4883">
        <ele>145.07</ele>
        <time>2014-06-22T10:31:20Z</time>
      </trkpt>
      <trkpt lat="49.40073" lon="1.48797">
        <ele>145.43</ele>
        <time>2014-06-22T10:31:27Z</time>
      </trkpt>
      <trkpt lat="49.40071" lon="1.48752">
        <ele>144.15</ele>
        <time>2014-06-22T10:31:35Z</time>
      </trkpt>
      <trkpt lat="49.40062" lon="1.48731">
        <ele>144.28</ele>
        <time>2014-06-22T10:31:40Z</time>
      </trkpt>
      <trkpt lat="49.40045" lon="1.48721">
        <ele>146.07</ele>
        <time>2014-06-22T10:31:46Z</time>
      </trkpt>
      <trkpt lat="49.40023" lon="1.48706">
        <ele>146.85</ele>
        <time>2014-06-22T10:31:54Z</time>
      </trkpt>
      <trkpt lat="49.40014" lon="1.48702">
        <ele>147.28</ele>
        <time>2014-06-22T10:31:58Z</time>
      </trkpt>
      <trkpt lat="49.40015" lon="1.4867">
        <ele>146.69</ele>
        <time>2014-06-22T10:32:04Z</time>
      </trkpt>
      <trkpt lat="49.40023" lon="1.48625">
        <ele>142.85</ele>
        <time>2014-06-22T10:32:10Z</time>
      </trkpt>
      <trkpt lat="49.4003" lon="1.48587">
        <ele>138.98</ele>
        <time>2014-06-22T10:32:14Z</time>
      </trkpt>
      <trkpt lat="49.40022" lon="1.48542">
        <ele>135.53</ele>
        <time>2014-06-22T10:32:19Z</time>
      </trkpt>
      <trkpt lat="49.40016" lon="1.48522">
        <ele>134.57</ele>
        <time>2014-06-22T10:32:21Z</time>
      </trkpt>
      <trkpt lat="49.40009" lon="1.48459">
        <ele>131.47</ele>
        <time>2014-06-22T10:32:27Z</time>
      </trkpt>
      <trkpt lat="49.40008" lon="1.48436">
        <ele>129.29</ele>
        <time>2014-06-22T10:32:32Z</time>
      </trkpt>
      <trkpt lat="49.40007" lon="1.48405">
        <ele>127.38</ele>
        <time>2014-06-22T10:32:38Z</time>
      </trkpt>
      <trkpt lat="49.40008" lon="1.48382">
        <ele>124.89</ele>
        <time>2014-06-22T10:32:42Z</time>
      </trkpt>
      <trkpt lat="49.40008" lon="1.48354">
        <ele>121.39</ele>
        <time>2014-06-22T10:32:48Z</time>
      </trkpt>
      <trkpt lat="49.40007" lon="1.48352">
        <ele>120.37</ele>
        <time>2014-06-22T10:32:50Z</time>
      </trkpt>
      <trkpt lat="49.4001" lon="1.48326">
        <ele>119.59</ele>
        <time>2014-06-22T10:32:56Z</time>
      </trkpt>
      <trkpt lat="49.40011" lon="1.48317">
        <ele>118.75</ele>
        <time>2014-06-22T10:32:57Z</time>
      </trkpt>
      <trkpt lat="49.40016" lon="1.48287">
        <ele>116.06</ele>
        <time>2014-06-22T10:33:00Z</time>
      </trkpt>
      <trkpt lat="49.40023" lon="1.48221">
        <ele>111.86</ele>
        <time>2014-06-22T10:33:05Z</time>
      </trkpt>
      <trkpt lat="49.40024" lon="1.48205">
        <ele>110.44</ele>
        <time>2014-06-22T10:33:06Z</time>
      </trkpt>
      <trkpt lat="49.4002" lon="1.4814">
        <ele>105.98</ele>
        <time>2014-06-22T10:33:10Z</time>
      </trkpt>
      <trkpt lat="49.39998" lon="1.4807">
        <ele>103.23</ele>
        <time>2014-06-22T10:33:15Z</time>
      </trkpt>
      <trkpt lat="49.39992" lon="1.4806">
        <ele>103.01</ele>
        <time>2014-06-22T10:33:16Z</time>
      </trkpt>
      <trkpt lat="49.39979" lon="1.48042">
        <ele>102.59</ele>
        <time>2014-06-22T10:33:18Z</time>
      </trkpt>
      <trkpt lat="49.39966" lon="1.47994">
        <ele>102.04</ele>
        <time>2014-06-22T10:33:22Z</time>
      </trkpt>
      <trkpt lat="49.39969" lon="1.47952">
        <ele>101.57</ele>
        <time>2014-06-22T10:33:25Z</time>
      </trkpt>
      <trkpt lat="49.3997" lon="1.47877">
        <ele>101.97</ele>
        <time>2014-06-22T10:33:32Z</time>
      </trkpt>
      <trkpt lat="49.39964" lon="1.47849">
        <ele>101.84</ele>
        <time>2014-06-22T10:33:37Z</time>
      </trkpt>
      <trkpt lat="49.39958" lon="1.47841">
        <ele>101.79</ele>
        <time>2014-06-22T10:33:40Z</time>
      </trkpt>
      <trkpt lat="49.39943" lon="1.47844">
        <ele>102.55</ele>
        <time>2014-06-22T10:33:47Z</time>
      </trkpt>
      <trkpt lat="49.39931" lon="1.47854">
        <ele>103.81</ele>
        <time>2014-06-22T10:33:53Z</time>
      </trkpt>
      <trkpt lat="49.39919" lon="1.47864">
        <ele>105.07</ele>
        <time>2014-06-22T10:33:59Z</time>
      </trkpt>
      <trkpt lat="49.39917" lon="1.47865">
        <ele>105.36</ele>
        <time>2014-06-22T10:34:01Z</time>
      </trkpt>
      <trkpt lat="49.39914" lon="1.47885">
        <ele>107.25</ele>
        <time>2014-06-22T10:34:06Z</time>
      </trkpt>
      <trkpt lat="49.39913" lon="1.47892">
        <ele>108.17</ele>
        <time>2014-06-22T10:34:08Z</time>
      </trkpt>
      <trkpt lat="49.39914" lon="1.47902">
        <ele>108.25</ele>
        <time>2014-06-22T10:34:11Z</time>
      </trkpt>
      <trkpt lat="49.39922" lon="1.47907">
        <ele>107.82</ele>
        <time>2014-06-22T10:34:16Z</time>
      </trkpt>
      <trkpt lat="49.39932" lon="1.47902">
        <ele>107.35</ele>
        <time>2014-06-22T10:34:22Z</time>
      </trkpt>
      <trkpt lat="49.39932" lon="1.47905">
        <ele>107.97</ele>
        <time>2014-06-22T10:34:31Z</time>
      </trkpt>
    </trkseg>
  </trk>
</gpx>